<?xml version="1.0" encoding="UTF-8" standalone="no" ?>
<gpx xmlns="http://www.topografix.com/GPX/1/1" xmlns:xsi="http://www.w3.org/2001/XMLSchema-instance" xsi:schemaLocation="http://www.topografix.com/GPX/1/1 http://www.topografix.com/GPX/1/1/gpx.xsd" version="1.1" creator="VisuGPX - https://www.visugpx.com">
  <metadata>
    <name>ST JULIEN VOCANCE 26 KM</name>
    <desc><![CDATA[RANDO EN BOUCLE AU DEPART DE ST JULIEN VOCANCE DE 26 KM]]></desc>
  </metadata>
  <trk>
    <name><![CDATA[JULSEPT-16 17:35:54]]></name>
    <trkseg>
      <trkpt lat="45.17519" lon="4.504">
        <ele>709.59</ele>
        <time>2016-09-04T08:04:16Z</time>
      </trkpt>
      <trkpt lat="45.17516" lon="4.50398">
        <ele>709.11</ele>
        <time>2016-09-04T08:04:33Z</time>
      </trkpt>
      <trkpt lat="45.17517" lon="4.504">
        <ele>710.07</ele>
        <time>2016-09-04T08:04:50Z</time>
      </trkpt>
      <trkpt lat="45.17517" lon="4.50401">
        <ele>704.3</ele>
        <time>2016-09-04T08:05:02Z</time>
      </trkpt>
      <trkpt lat="45.17516" lon="4.50402">
        <ele>702.86</ele>
        <time>2016-09-04T08:05:18Z</time>
      </trkpt>
      <trkpt lat="45.17515" lon="4.50402">
        <ele>704.3</ele>
        <time>2016-09-04T08:05:33Z</time>
      </trkpt>
      <trkpt lat="45.17514" lon="4.50403">
        <ele>705.75</ele>
        <time>2016-09-04T08:05:52Z</time>
      </trkpt>
      <trkpt lat="45.17515" lon="4.50403">
        <ele>703.82</ele>
        <time>2016-09-04T08:06:04Z</time>
      </trkpt>
      <trkpt lat="45.17515" lon="4.50402">
        <ele>702.38</ele>
        <time>2016-09-04T08:06:20Z</time>
      </trkpt>
      <trkpt lat="45.17517" lon="4.50403">
        <ele>703.34</ele>
        <time>2016-09-04T08:06:44Z</time>
      </trkpt>
      <trkpt lat="45.17518" lon="4.50402">
        <ele>702.38</ele>
        <time>2016-09-04T08:07:11Z</time>
      </trkpt>
      <trkpt lat="45.17518" lon="4.50404">
        <ele>701.9</ele>
        <time>2016-09-04T08:07:35Z</time>
      </trkpt>
      <trkpt lat="45.17517" lon="4.50405">
        <ele>701.42</ele>
        <time>2016-09-04T08:07:48Z</time>
      </trkpt>
      <trkpt lat="45.17517" lon="4.50405">
        <ele>701.9</ele>
        <time>2016-09-04T08:08:09Z</time>
      </trkpt>
      <trkpt lat="45.17517" lon="4.50405">
        <ele>701.9</ele>
        <time>2016-09-04T08:08:30Z</time>
      </trkpt>
      <trkpt lat="45.17517" lon="4.50405">
        <ele>701.9</ele>
        <time>2016-09-04T08:08:48Z</time>
      </trkpt>
      <trkpt lat="45.17517" lon="4.50406">
        <ele>702.38</ele>
        <time>2016-09-04T08:09:05Z</time>
      </trkpt>
      <trkpt lat="45.17517" lon="4.50405">
        <ele>702.38</ele>
        <time>2016-09-04T08:09:25Z</time>
      </trkpt>
      <trkpt lat="45.17517" lon="4.50406">
        <ele>702.38</ele>
        <time>2016-09-04T08:09:42Z</time>
      </trkpt>
      <trkpt lat="45.17517" lon="4.50408">
        <ele>700.94</ele>
        <time>2016-09-04T08:10:01Z</time>
      </trkpt>
      <trkpt lat="45.17517" lon="4.50406">
        <ele>700.46</ele>
        <time>2016-09-04T08:10:19Z</time>
      </trkpt>
      <trkpt lat="45.17516" lon="4.50406">
        <ele>700.46</ele>
        <time>2016-09-04T08:10:37Z</time>
      </trkpt>
      <trkpt lat="45.17516" lon="4.50406">
        <ele>699.98</ele>
        <time>2016-09-04T08:10:59Z</time>
      </trkpt>
      <trkpt lat="45.17517" lon="4.50405">
        <ele>699.98</ele>
        <time>2016-09-04T08:11:19Z</time>
      </trkpt>
      <trkpt lat="45.17518" lon="4.50403">
        <ele>699.98</ele>
        <time>2016-09-04T08:11:36Z</time>
      </trkpt>
      <trkpt lat="45.17519" lon="4.50399">
        <ele>699.5</ele>
        <time>2016-09-04T08:11:50Z</time>
      </trkpt>
      <trkpt lat="45.17508" lon="4.504">
        <ele>701.42</ele>
        <time>2016-09-04T08:12:03Z</time>
      </trkpt>
      <trkpt lat="45.17503" lon="4.50411">
        <ele>704.3</ele>
        <time>2016-09-04T08:12:15Z</time>
      </trkpt>
      <trkpt lat="45.17495" lon="4.50423">
        <ele>708.63</ele>
        <time>2016-09-04T08:12:29Z</time>
      </trkpt>
      <trkpt lat="45.17487" lon="4.50434">
        <ele>710.07</ele>
        <time>2016-09-04T08:12:42Z</time>
      </trkpt>
      <trkpt lat="45.17479" lon="4.50445">
        <ele>711.51</ele>
        <time>2016-09-04T08:12:54Z</time>
      </trkpt>
      <trkpt lat="45.17479" lon="4.50446">
        <ele>711.51</ele>
        <time>2016-09-04T08:12:55Z</time>
      </trkpt>
      <trkpt lat="45.17478" lon="4.50449">
        <ele>712.47</ele>
        <time>2016-09-04T08:12:57Z</time>
      </trkpt>
      <trkpt lat="45.17479" lon="4.50452">
        <ele>713.92</ele>
        <time>2016-09-04T08:12:59Z</time>
      </trkpt>
      <trkpt lat="45.1748" lon="4.50456">
        <ele>717.28</ele>
        <time>2016-09-04T08:13:03Z</time>
      </trkpt>
      <trkpt lat="45.1748" lon="4.50472">
        <ele>727.37</ele>
        <time>2016-09-04T08:13:18Z</time>
      </trkpt>
      <trkpt lat="45.17481" lon="4.50484">
        <ele>733.14</ele>
        <time>2016-09-04T08:13:28Z</time>
      </trkpt>
      <trkpt lat="45.1748" lon="4.50505">
        <ele>735.07</ele>
        <time>2016-09-04T08:13:42Z</time>
      </trkpt>
      <trkpt lat="45.17479" lon="4.50521">
        <ele>736.03</ele>
        <time>2016-09-04T08:13:54Z</time>
      </trkpt>
      <trkpt lat="45.17474" lon="4.50528">
        <ele>736.99</ele>
        <time>2016-09-04T08:14:04Z</time>
      </trkpt>
      <trkpt lat="45.17461" lon="4.50556">
        <ele>736.51</ele>
        <time>2016-09-04T08:14:18Z</time>
      </trkpt>
      <trkpt lat="45.17456" lon="4.50585">
        <ele>740.35</ele>
        <time>2016-09-04T08:14:36Z</time>
      </trkpt>
      <trkpt lat="45.17457" lon="4.50598">
        <ele>740.35</ele>
        <time>2016-09-04T08:14:45Z</time>
      </trkpt>
      <trkpt lat="45.17463" lon="4.5062">
        <ele>742.76</ele>
        <time>2016-09-04T08:15:00Z</time>
      </trkpt>
      <trkpt lat="45.17466" lon="4.50643">
        <ele>746.6</ele>
        <time>2016-09-04T08:15:15Z</time>
      </trkpt>
      <trkpt lat="45.17464" lon="4.50656">
        <ele>748.04</ele>
        <time>2016-09-04T08:15:25Z</time>
      </trkpt>
      <trkpt lat="45.1746" lon="4.50669">
        <ele>750.45</ele>
        <time>2016-09-04T08:15:38Z</time>
      </trkpt>
      <trkpt lat="45.17445" lon="4.5068">
        <ele>752.37</ele>
        <time>2016-09-04T08:15:51Z</time>
      </trkpt>
      <trkpt lat="45.17439" lon="4.50694">
        <ele>754.29</ele>
        <time>2016-09-04T08:16:05Z</time>
      </trkpt>
      <trkpt lat="45.17436" lon="4.507">
        <ele>754.77</ele>
        <time>2016-09-04T08:16:10Z</time>
      </trkpt>
      <trkpt lat="45.17427" lon="4.50718">
        <ele>755.73</ele>
        <time>2016-09-04T08:16:23Z</time>
      </trkpt>
      <trkpt lat="45.17418" lon="4.50733">
        <ele>755.73</ele>
        <time>2016-09-04T08:16:37Z</time>
      </trkpt>
      <trkpt lat="45.17402" lon="4.50749">
        <ele>754.77</ele>
        <time>2016-09-04T08:16:51Z</time>
      </trkpt>
      <trkpt lat="45.17391" lon="4.5076">
        <ele>757.18</ele>
        <time>2016-09-04T08:17:04Z</time>
      </trkpt>
      <trkpt lat="45.17387" lon="4.50777">
        <ele>767.75</ele>
        <time>2016-09-04T08:17:18Z</time>
      </trkpt>
      <trkpt lat="45.17381" lon="4.50791">
        <ele>781.69</ele>
        <time>2016-09-04T08:17:33Z</time>
      </trkpt>
      <trkpt lat="45.1738" lon="4.50796">
        <ele>788.9</ele>
        <time>2016-09-04T08:17:42Z</time>
      </trkpt>
      <trkpt lat="45.17375" lon="4.50813">
        <ele>787.46</ele>
        <time>2016-09-04T08:17:55Z</time>
      </trkpt>
      <trkpt lat="45.17368" lon="4.50822">
        <ele>786.5</ele>
        <time>2016-09-04T08:18:08Z</time>
      </trkpt>
      <trkpt lat="45.17356" lon="4.50839">
        <ele>786.02</ele>
        <time>2016-09-04T08:18:21Z</time>
      </trkpt>
      <trkpt lat="45.17354" lon="4.50846">
        <ele>785.53</ele>
        <time>2016-09-04T08:18:26Z</time>
      </trkpt>
      <trkpt lat="45.1735" lon="4.5086">
        <ele>786.02</ele>
        <time>2016-09-04T08:18:40Z</time>
      </trkpt>
      <trkpt lat="45.17342" lon="4.50871">
        <ele>785.53</ele>
        <time>2016-09-04T08:18:53Z</time>
      </trkpt>
      <trkpt lat="45.17336" lon="4.50882">
        <ele>785.53</ele>
        <time>2016-09-04T08:19:08Z</time>
      </trkpt>
      <trkpt lat="45.17313" lon="4.50892">
        <ele>784.57</ele>
        <time>2016-09-04T08:19:23Z</time>
      </trkpt>
      <trkpt lat="45.17301" lon="4.50904">
        <ele>786.5</ele>
        <time>2016-09-04T08:19:37Z</time>
      </trkpt>
      <trkpt lat="45.17303" lon="4.50918">
        <ele>789.86</ele>
        <time>2016-09-04T08:19:49Z</time>
      </trkpt>
      <trkpt lat="45.17307" lon="4.50936">
        <ele>798.99</ele>
        <time>2016-09-04T08:20:03Z</time>
      </trkpt>
      <trkpt lat="45.17308" lon="4.50946">
        <ele>805.72</ele>
        <time>2016-09-04T08:20:12Z</time>
      </trkpt>
      <trkpt lat="45.17309" lon="4.50966">
        <ele>803.32</ele>
        <time>2016-09-04T08:20:26Z</time>
      </trkpt>
      <trkpt lat="45.17309" lon="4.50971">
        <ele>799.47</ele>
        <time>2016-09-04T08:20:30Z</time>
      </trkpt>
      <trkpt lat="45.17314" lon="4.50988">
        <ele>789.38</ele>
        <time>2016-09-04T08:20:44Z</time>
      </trkpt>
      <trkpt lat="45.17322" lon="4.51011">
        <ele>785.53</ele>
        <time>2016-09-04T08:21:00Z</time>
      </trkpt>
      <trkpt lat="45.17324" lon="4.5103">
        <ele>783.61</ele>
        <time>2016-09-04T08:21:13Z</time>
      </trkpt>
      <trkpt lat="45.17328" lon="4.5104">
        <ele>782.65</ele>
        <time>2016-09-04T08:21:21Z</time>
      </trkpt>
      <trkpt lat="45.17331" lon="4.51045">
        <ele>780.73</ele>
        <time>2016-09-04T08:21:30Z</time>
      </trkpt>
      <trkpt lat="45.17333" lon="4.5104">
        <ele>780.73</ele>
        <time>2016-09-04T08:21:34Z</time>
      </trkpt>
      <trkpt lat="45.1734" lon="4.51032">
        <ele>779.29</ele>
        <time>2016-09-04T08:21:50Z</time>
      </trkpt>
      <trkpt lat="45.17348" lon="4.5102">
        <ele>783.61</ele>
        <time>2016-09-04T08:22:04Z</time>
      </trkpt>
      <trkpt lat="45.17353" lon="4.51014">
        <ele>786.5</ele>
        <time>2016-09-04T08:22:10Z</time>
      </trkpt>
      <trkpt lat="45.17356" lon="4.51005">
        <ele>790.82</ele>
        <time>2016-09-04T08:22:17Z</time>
      </trkpt>
      <trkpt lat="45.1737" lon="4.50993">
        <ele>790.34</ele>
        <time>2016-09-04T08:22:32Z</time>
      </trkpt>
      <trkpt lat="45.17371" lon="4.50991">
        <ele>789.86</ele>
        <time>2016-09-04T08:22:34Z</time>
      </trkpt>
      <trkpt lat="45.17386" lon="4.50987">
        <ele>790.34</ele>
        <time>2016-09-04T08:22:48Z</time>
      </trkpt>
      <trkpt lat="45.17388" lon="4.50987">
        <ele>789.86</ele>
        <time>2016-09-04T08:22:50Z</time>
      </trkpt>
      <trkpt lat="45.17402" lon="4.50984">
        <ele>789.38</ele>
        <time>2016-09-04T08:23:05Z</time>
      </trkpt>
      <trkpt lat="45.17415" lon="4.50979">
        <ele>794.19</ele>
        <time>2016-09-04T08:23:19Z</time>
      </trkpt>
      <trkpt lat="45.17422" lon="4.50977">
        <ele>797.07</ele>
        <time>2016-09-04T08:23:26Z</time>
      </trkpt>
      <trkpt lat="45.17436" lon="4.5097">
        <ele>793.71</ele>
        <time>2016-09-04T08:23:39Z</time>
      </trkpt>
      <trkpt lat="45.17446" lon="4.50964">
        <ele>794.19</ele>
        <time>2016-09-04T08:23:50Z</time>
      </trkpt>
      <trkpt lat="45.1745" lon="4.50963">
        <ele>794.67</ele>
        <time>2016-09-04T08:23:53Z</time>
      </trkpt>
      <trkpt lat="45.17464" lon="4.50961">
        <ele>794.67</ele>
        <time>2016-09-04T08:24:08Z</time>
      </trkpt>
      <trkpt lat="45.17465" lon="4.50964">
        <ele>794.19</ele>
        <time>2016-09-04T08:24:19Z</time>
      </trkpt>
      <trkpt lat="45.17464" lon="4.50966">
        <ele>794.19</ele>
        <time>2016-09-04T08:24:38Z</time>
      </trkpt>
      <trkpt lat="45.17464" lon="4.50967">
        <ele>794.19</ele>
        <time>2016-09-04T08:25:02Z</time>
      </trkpt>
      <trkpt lat="45.17464" lon="4.50967">
        <ele>794.67</ele>
        <time>2016-09-04T08:25:23Z</time>
      </trkpt>
      <trkpt lat="45.17464" lon="4.50967">
        <ele>794.19</ele>
        <time>2016-09-04T08:25:45Z</time>
      </trkpt>
      <trkpt lat="45.17464" lon="4.50967">
        <ele>794.19</ele>
        <time>2016-09-04T08:26:07Z</time>
      </trkpt>
      <trkpt lat="45.17465" lon="4.50967">
        <ele>794.67</ele>
        <time>2016-09-04T08:26:30Z</time>
      </trkpt>
      <trkpt lat="45.17464" lon="4.50967">
        <ele>794.19</ele>
        <time>2016-09-04T08:26:55Z</time>
      </trkpt>
      <trkpt lat="45.17471" lon="4.50968">
        <ele>793.22</ele>
        <time>2016-09-04T08:27:09Z</time>
      </trkpt>
      <trkpt lat="45.17482" lon="4.50986">
        <ele>795.63</ele>
        <time>2016-09-04T08:27:24Z</time>
      </trkpt>
      <trkpt lat="45.17487" lon="4.51002">
        <ele>798.51</ele>
        <time>2016-09-04T08:27:38Z</time>
      </trkpt>
      <trkpt lat="45.17491" lon="4.51011">
        <ele>799.95</ele>
        <time>2016-09-04T08:27:44Z</time>
      </trkpt>
      <trkpt lat="45.17504" lon="4.51028">
        <ele>803.32</ele>
        <time>2016-09-04T08:27:58Z</time>
      </trkpt>
      <trkpt lat="45.17509" lon="4.51034">
        <ele>805.24</ele>
        <time>2016-09-04T08:28:03Z</time>
      </trkpt>
      <trkpt lat="45.17523" lon="4.51051">
        <ele>808.13</ele>
        <time>2016-09-04T08:28:17Z</time>
      </trkpt>
      <trkpt lat="45.17536" lon="4.51067">
        <ele>811.49</ele>
        <time>2016-09-04T08:28:31Z</time>
      </trkpt>
      <trkpt lat="45.17541" lon="4.51074">
        <ele>813.89</ele>
        <time>2016-09-04T08:28:36Z</time>
      </trkpt>
      <trkpt lat="45.17553" lon="4.51089">
        <ele>817.26</ele>
        <time>2016-09-04T08:28:49Z</time>
      </trkpt>
      <trkpt lat="45.17564" lon="4.51107">
        <ele>818.22</ele>
        <time>2016-09-04T08:29:03Z</time>
      </trkpt>
      <trkpt lat="45.17573" lon="4.51118">
        <ele>811.97</ele>
        <time>2016-09-04T08:29:15Z</time>
      </trkpt>
      <trkpt lat="45.17579" lon="4.5113">
        <ele>811.49</ele>
        <time>2016-09-04T08:29:22Z</time>
      </trkpt>
      <trkpt lat="45.1759" lon="4.51147">
        <ele>813.89</ele>
        <time>2016-09-04T08:29:36Z</time>
      </trkpt>
      <trkpt lat="45.176" lon="4.51168">
        <ele>816.3</ele>
        <time>2016-09-04T08:29:51Z</time>
      </trkpt>
      <trkpt lat="45.17606" lon="4.51181">
        <ele>813.89</ele>
        <time>2016-09-04T08:30:03Z</time>
      </trkpt>
      <trkpt lat="45.17614" lon="4.51191">
        <ele>815.34</ele>
        <time>2016-09-04T08:30:16Z</time>
      </trkpt>
      <trkpt lat="45.17627" lon="4.51205">
        <ele>815.82</ele>
        <time>2016-09-04T08:30:29Z</time>
      </trkpt>
      <trkpt lat="45.17636" lon="4.51215">
        <ele>817.74</ele>
        <time>2016-09-04T08:30:40Z</time>
      </trkpt>
      <trkpt lat="45.17648" lon="4.51231">
        <ele>822.06</ele>
        <time>2016-09-04T08:30:57Z</time>
      </trkpt>
      <trkpt lat="45.17653" lon="4.51241">
        <ele>823.99</ele>
        <time>2016-09-04T08:31:04Z</time>
      </trkpt>
      <trkpt lat="45.17659" lon="4.5125">
        <ele>825.43</ele>
        <time>2016-09-04T08:31:17Z</time>
      </trkpt>
      <trkpt lat="45.17662" lon="4.51259">
        <ele>828.31</ele>
        <time>2016-09-04T08:31:28Z</time>
      </trkpt>
      <trkpt lat="45.17661" lon="4.51269">
        <ele>828.31</ele>
        <time>2016-09-04T08:31:40Z</time>
      </trkpt>
      <trkpt lat="45.17662" lon="4.51295">
        <ele>830.24</ele>
        <time>2016-09-04T08:31:53Z</time>
      </trkpt>
      <trkpt lat="45.17663" lon="4.51319">
        <ele>830.24</ele>
        <time>2016-09-04T08:32:05Z</time>
      </trkpt>
      <trkpt lat="45.17665" lon="4.51328">
        <ele>831.68</ele>
        <time>2016-09-04T08:32:07Z</time>
      </trkpt>
      <trkpt lat="45.17671" lon="4.51357">
        <ele>835.52</ele>
        <time>2016-09-04T08:32:18Z</time>
      </trkpt>
      <trkpt lat="45.1767" lon="4.51367">
        <ele>837.45</ele>
        <time>2016-09-04T08:32:24Z</time>
      </trkpt>
      <trkpt lat="45.17666" lon="4.51386">
        <ele>840.81</ele>
        <time>2016-09-04T08:32:35Z</time>
      </trkpt>
      <trkpt lat="45.17664" lon="4.51401">
        <ele>839.85</ele>
        <time>2016-09-04T08:32:51Z</time>
      </trkpt>
      <trkpt lat="45.1766" lon="4.51417">
        <ele>843.69</ele>
        <time>2016-09-04T08:33:04Z</time>
      </trkpt>
      <trkpt lat="45.17662" lon="4.51445">
        <ele>845.62</ele>
        <time>2016-09-04T08:33:18Z</time>
      </trkpt>
      <trkpt lat="45.17664" lon="4.51469">
        <ele>845.62</ele>
        <time>2016-09-04T08:33:31Z</time>
      </trkpt>
      <trkpt lat="45.17669" lon="4.51498">
        <ele>846.1</ele>
        <time>2016-09-04T08:33:44Z</time>
      </trkpt>
      <trkpt lat="45.17671" lon="4.51517">
        <ele>851.87</ele>
        <time>2016-09-04T08:33:58Z</time>
      </trkpt>
      <trkpt lat="45.1767" lon="4.51528">
        <ele>852.35</ele>
        <time>2016-09-04T08:34:07Z</time>
      </trkpt>
      <trkpt lat="45.17668" lon="4.51543">
        <ele>851.87</ele>
        <time>2016-09-04T08:34:19Z</time>
      </trkpt>
      <trkpt lat="45.17663" lon="4.51562">
        <ele>850.42</ele>
        <time>2016-09-04T08:34:33Z</time>
      </trkpt>
      <trkpt lat="45.17662" lon="4.51565">
        <ele>850.42</ele>
        <time>2016-09-04T08:34:35Z</time>
      </trkpt>
      <trkpt lat="45.17662" lon="4.51581">
        <ele>851.38</ele>
        <time>2016-09-04T08:34:45Z</time>
      </trkpt>
      <trkpt lat="45.17658" lon="4.51599">
        <ele>853.31</ele>
        <time>2016-09-04T08:35:00Z</time>
      </trkpt>
      <trkpt lat="45.17659" lon="4.51608">
        <ele>855.23</ele>
        <time>2016-09-04T08:35:14Z</time>
      </trkpt>
      <trkpt lat="45.17667" lon="4.51623">
        <ele>856.67</ele>
        <time>2016-09-04T08:35:30Z</time>
      </trkpt>
      <trkpt lat="45.17668" lon="4.51624">
        <ele>856.67</ele>
        <time>2016-09-04T08:35:31Z</time>
      </trkpt>
      <trkpt lat="45.17678" lon="4.51645">
        <ele>859.08</ele>
        <time>2016-09-04T08:35:47Z</time>
      </trkpt>
      <trkpt lat="45.17685" lon="4.51657">
        <ele>861.48</ele>
        <time>2016-09-04T08:35:59Z</time>
      </trkpt>
      <trkpt lat="45.17696" lon="4.51669">
        <ele>863.4</ele>
        <time>2016-09-04T08:36:15Z</time>
      </trkpt>
      <trkpt lat="45.17705" lon="4.51678">
        <ele>866.77</ele>
        <time>2016-09-04T08:36:28Z</time>
      </trkpt>
      <trkpt lat="45.17708" lon="4.5168">
        <ele>868.21</ele>
        <time>2016-09-04T08:36:31Z</time>
      </trkpt>
      <trkpt lat="45.1772" lon="4.51693">
        <ele>873.98</ele>
        <time>2016-09-04T08:36:45Z</time>
      </trkpt>
      <trkpt lat="45.17728" lon="4.51703">
        <ele>875.42</ele>
        <time>2016-09-04T08:36:53Z</time>
      </trkpt>
      <trkpt lat="45.17737" lon="4.51716">
        <ele>875.9</ele>
        <time>2016-09-04T08:37:03Z</time>
      </trkpt>
      <trkpt lat="45.17748" lon="4.51736">
        <ele>878.78</ele>
        <time>2016-09-04T08:37:19Z</time>
      </trkpt>
      <trkpt lat="45.17757" lon="4.51755">
        <ele>881.19</ele>
        <time>2016-09-04T08:37:34Z</time>
      </trkpt>
      <trkpt lat="45.17766" lon="4.51772">
        <ele>883.59</ele>
        <time>2016-09-04T08:37:48Z</time>
      </trkpt>
      <trkpt lat="45.17773" lon="4.51792">
        <ele>884.07</ele>
        <time>2016-09-04T08:38:03Z</time>
      </trkpt>
      <trkpt lat="45.17773" lon="4.51798">
        <ele>884.55</ele>
        <time>2016-09-04T08:38:15Z</time>
      </trkpt>
      <trkpt lat="45.17773" lon="4.51805">
        <ele>878.78</ele>
        <time>2016-09-04T08:38:34Z</time>
      </trkpt>
      <trkpt lat="45.17769" lon="4.51807">
        <ele>874.94</ele>
        <time>2016-09-04T08:38:56Z</time>
      </trkpt>
      <trkpt lat="45.17767" lon="4.51807">
        <ele>873.01</ele>
        <time>2016-09-04T08:39:00Z</time>
      </trkpt>
      <trkpt lat="45.17761" lon="4.51803">
        <ele>872.05</ele>
        <time>2016-09-04T08:39:06Z</time>
      </trkpt>
      <trkpt lat="45.17759" lon="4.51803">
        <ele>872.05</ele>
        <time>2016-09-04T08:39:08Z</time>
      </trkpt>
      <trkpt lat="45.17743" lon="4.51791">
        <ele>873.98</ele>
        <time>2016-09-04T08:39:24Z</time>
      </trkpt>
      <trkpt lat="45.17732" lon="4.51781">
        <ele>875.42</ele>
        <time>2016-09-04T08:39:36Z</time>
      </trkpt>
      <trkpt lat="45.17718" lon="4.51769">
        <ele>879.26</ele>
        <time>2016-09-04T08:39:51Z</time>
      </trkpt>
      <trkpt lat="45.17699" lon="4.51761">
        <ele>881.19</ele>
        <time>2016-09-04T08:40:08Z</time>
      </trkpt>
      <trkpt lat="45.17687" lon="4.51752">
        <ele>883.11</ele>
        <time>2016-09-04T08:40:21Z</time>
      </trkpt>
      <trkpt lat="45.1767" lon="4.51745">
        <ele>883.59</ele>
        <time>2016-09-04T08:40:36Z</time>
      </trkpt>
      <trkpt lat="45.17653" lon="4.51738">
        <ele>883.59</ele>
        <time>2016-09-04T08:40:50Z</time>
      </trkpt>
      <trkpt lat="45.17642" lon="4.51735">
        <ele>883.11</ele>
        <time>2016-09-04T08:40:58Z</time>
      </trkpt>
      <trkpt lat="45.17625" lon="4.51721">
        <ele>885.99</ele>
        <time>2016-09-04T08:41:13Z</time>
      </trkpt>
      <trkpt lat="45.17613" lon="4.51703">
        <ele>889.36</ele>
        <time>2016-09-04T08:41:27Z</time>
      </trkpt>
      <trkpt lat="45.176" lon="4.51684">
        <ele>893.68</ele>
        <time>2016-09-04T08:41:42Z</time>
      </trkpt>
      <trkpt lat="45.17588" lon="4.51668">
        <ele>897.05</ele>
        <time>2016-09-04T08:41:56Z</time>
      </trkpt>
      <trkpt lat="45.17573" lon="4.51656">
        <ele>899.45</ele>
        <time>2016-09-04T08:42:12Z</time>
      </trkpt>
      <trkpt lat="45.1757" lon="4.51648">
        <ele>899.45</ele>
        <time>2016-09-04T08:42:17Z</time>
      </trkpt>
      <trkpt lat="45.17553" lon="4.51626">
        <ele>899.45</ele>
        <time>2016-09-04T08:42:34Z</time>
      </trkpt>
      <trkpt lat="45.17543" lon="4.51612">
        <ele>900.41</ele>
        <time>2016-09-04T08:42:50Z</time>
      </trkpt>
      <trkpt lat="45.1754" lon="4.51604">
        <ele>899.45</ele>
        <time>2016-09-04T08:42:57Z</time>
      </trkpt>
      <trkpt lat="45.17535" lon="4.5159">
        <ele>899.45</ele>
        <time>2016-09-04T08:43:11Z</time>
      </trkpt>
      <trkpt lat="45.17529" lon="4.5157">
        <ele>907.14</ele>
        <time>2016-09-04T08:43:25Z</time>
      </trkpt>
      <trkpt lat="45.17525" lon="4.51559">
        <ele>913.39</ele>
        <time>2016-09-04T08:43:37Z</time>
      </trkpt>
      <trkpt lat="45.17522" lon="4.51544">
        <ele>919.64</ele>
        <time>2016-09-04T08:43:48Z</time>
      </trkpt>
      <trkpt lat="45.17522" lon="4.51513">
        <ele>922.04</ele>
        <time>2016-09-04T08:44:03Z</time>
      </trkpt>
      <trkpt lat="45.17515" lon="4.51489">
        <ele>920.6</ele>
        <time>2016-09-04T08:44:16Z</time>
      </trkpt>
      <trkpt lat="45.17505" lon="4.51461">
        <ele>917.72</ele>
        <time>2016-09-04T08:44:32Z</time>
      </trkpt>
      <trkpt lat="45.17498" lon="4.5144">
        <ele>910.99</ele>
        <time>2016-09-04T08:44:44Z</time>
      </trkpt>
      <trkpt lat="45.17482" lon="4.51422">
        <ele>911.95</ele>
        <time>2016-09-04T08:44:59Z</time>
      </trkpt>
      <trkpt lat="45.17467" lon="4.51401">
        <ele>912.91</ele>
        <time>2016-09-04T08:45:15Z</time>
      </trkpt>
      <trkpt lat="45.17452" lon="4.51391">
        <ele>911.95</ele>
        <time>2016-09-04T08:45:30Z</time>
      </trkpt>
      <trkpt lat="45.17435" lon="4.51392">
        <ele>910.99</ele>
        <time>2016-09-04T08:45:45Z</time>
      </trkpt>
      <trkpt lat="45.17415" lon="4.514">
        <ele>909.54</ele>
        <time>2016-09-04T08:46:03Z</time>
      </trkpt>
      <trkpt lat="45.17402" lon="4.5141">
        <ele>906.66</ele>
        <time>2016-09-04T08:46:17Z</time>
      </trkpt>
      <trkpt lat="45.17393" lon="4.51422">
        <ele>905.7</ele>
        <time>2016-09-04T08:46:29Z</time>
      </trkpt>
      <trkpt lat="45.17391" lon="4.51426">
        <ele>905.7</ele>
        <time>2016-09-04T08:46:33Z</time>
      </trkpt>
      <trkpt lat="45.17393" lon="4.51426">
        <ele>906.66</ele>
        <time>2016-09-04T08:46:37Z</time>
      </trkpt>
      <trkpt lat="45.17398" lon="4.51417">
        <ele>907.14</ele>
        <time>2016-09-04T08:46:47Z</time>
      </trkpt>
      <trkpt lat="45.17406" lon="4.51414">
        <ele>908.58</ele>
        <time>2016-09-04T08:46:53Z</time>
      </trkpt>
      <trkpt lat="45.17412" lon="4.51411">
        <ele>909.54</ele>
        <time>2016-09-04T08:46:58Z</time>
      </trkpt>
      <trkpt lat="45.17433" lon="4.51407">
        <ele>914.83</ele>
        <time>2016-09-04T08:47:16Z</time>
      </trkpt>
      <trkpt lat="45.1744" lon="4.51407">
        <ele>916.75</ele>
        <time>2016-09-04T08:47:22Z</time>
      </trkpt>
      <trkpt lat="45.17457" lon="4.51414">
        <ele>919.64</ele>
        <time>2016-09-04T08:47:38Z</time>
      </trkpt>
      <trkpt lat="45.17469" lon="4.51423">
        <ele>924.45</ele>
        <time>2016-09-04T08:47:50Z</time>
      </trkpt>
      <trkpt lat="45.17478" lon="4.5145">
        <ele>926.85</ele>
        <time>2016-09-04T08:48:06Z</time>
      </trkpt>
      <trkpt lat="45.17481" lon="4.5147">
        <ele>926.85</ele>
        <time>2016-09-04T08:48:20Z</time>
      </trkpt>
      <trkpt lat="45.17483" lon="4.51494">
        <ele>927.81</ele>
        <time>2016-09-04T08:48:36Z</time>
      </trkpt>
      <trkpt lat="45.17482" lon="4.51523">
        <ele>930.69</ele>
        <time>2016-09-04T08:48:52Z</time>
      </trkpt>
      <trkpt lat="45.17484" lon="4.51549">
        <ele>934.06</ele>
        <time>2016-09-04T08:49:03Z</time>
      </trkpt>
      <trkpt lat="45.17479" lon="4.51567">
        <ele>938.38</ele>
        <time>2016-09-04T08:49:19Z</time>
      </trkpt>
      <trkpt lat="45.17481" lon="4.51573">
        <ele>941.75</ele>
        <time>2016-09-04T08:49:32Z</time>
      </trkpt>
      <trkpt lat="45.17486" lon="4.51589">
        <ele>947.52</ele>
        <time>2016-09-04T08:49:48Z</time>
      </trkpt>
      <trkpt lat="45.17492" lon="4.51607">
        <ele>948.48</ele>
        <time>2016-09-04T08:50:00Z</time>
      </trkpt>
      <trkpt lat="45.17499" lon="4.51621">
        <ele>950.4</ele>
        <time>2016-09-04T08:50:13Z</time>
      </trkpt>
      <trkpt lat="45.17507" lon="4.51646">
        <ele>952.32</ele>
        <time>2016-09-04T08:50:27Z</time>
      </trkpt>
      <trkpt lat="45.17517" lon="4.51675">
        <ele>944.63</ele>
        <time>2016-09-04T08:50:40Z</time>
      </trkpt>
      <trkpt lat="45.17528" lon="4.51692">
        <ele>947.04</ele>
        <time>2016-09-04T08:50:54Z</time>
      </trkpt>
      <trkpt lat="45.1754" lon="4.51713">
        <ele>949.92</ele>
        <time>2016-09-04T08:51:07Z</time>
      </trkpt>
      <trkpt lat="45.17549" lon="4.51731">
        <ele>949.44</ele>
        <time>2016-09-04T08:51:15Z</time>
      </trkpt>
      <trkpt lat="45.17562" lon="4.51743">
        <ele>947.52</ele>
        <time>2016-09-04T08:51:28Z</time>
      </trkpt>
      <trkpt lat="45.17563" lon="4.51744">
        <ele>947.52</ele>
        <time>2016-09-04T08:51:29Z</time>
      </trkpt>
      <trkpt lat="45.17571" lon="4.5175">
        <ele>947.04</ele>
        <time>2016-09-04T08:51:38Z</time>
      </trkpt>
      <trkpt lat="45.17587" lon="4.51775">
        <ele>946.07</ele>
        <time>2016-09-04T08:51:54Z</time>
      </trkpt>
      <trkpt lat="45.17589" lon="4.51778">
        <ele>945.59</ele>
        <time>2016-09-04T08:51:56Z</time>
      </trkpt>
      <trkpt lat="45.17604" lon="4.51803">
        <ele>941.75</ele>
        <time>2016-09-04T08:52:12Z</time>
      </trkpt>
      <trkpt lat="45.17614" lon="4.51816">
        <ele>941.27</ele>
        <time>2016-09-04T08:52:24Z</time>
      </trkpt>
      <trkpt lat="45.17626" lon="4.51839">
        <ele>940.31</ele>
        <time>2016-09-04T08:52:40Z</time>
      </trkpt>
      <trkpt lat="45.17632" lon="4.51847">
        <ele>942.71</ele>
        <time>2016-09-04T08:52:48Z</time>
      </trkpt>
      <trkpt lat="45.17644" lon="4.51861">
        <ele>946.07</ele>
        <time>2016-09-04T08:53:01Z</time>
      </trkpt>
      <trkpt lat="45.17653" lon="4.5187">
        <ele>949.92</ele>
        <time>2016-09-04T08:53:15Z</time>
      </trkpt>
      <trkpt lat="45.17656" lon="4.51875">
        <ele>951.84</ele>
        <time>2016-09-04T08:53:22Z</time>
      </trkpt>
      <trkpt lat="45.17659" lon="4.51896">
        <ele>952.32</ele>
        <time>2016-09-04T08:53:34Z</time>
      </trkpt>
      <trkpt lat="45.1766" lon="4.51914">
        <ele>949.92</ele>
        <time>2016-09-04T08:53:44Z</time>
      </trkpt>
      <trkpt lat="45.17661" lon="4.51941">
        <ele>948.96</ele>
        <time>2016-09-04T08:53:56Z</time>
      </trkpt>
      <trkpt lat="45.17663" lon="4.51979">
        <ele>945.11</ele>
        <time>2016-09-04T08:54:08Z</time>
      </trkpt>
      <trkpt lat="45.17664" lon="4.51988">
        <ele>943.19</ele>
        <time>2016-09-04T08:54:11Z</time>
      </trkpt>
      <trkpt lat="45.17663" lon="4.52003">
        <ele>941.27</ele>
        <time>2016-09-04T08:54:18Z</time>
      </trkpt>
      <trkpt lat="45.17663" lon="4.5201">
        <ele>941.27</ele>
        <time>2016-09-04T08:54:22Z</time>
      </trkpt>
      <trkpt lat="45.17665" lon="4.5202">
        <ele>941.75</ele>
        <time>2016-09-04T08:54:27Z</time>
      </trkpt>
      <trkpt lat="45.17656" lon="4.52034">
        <ele>943.67</ele>
        <time>2016-09-04T08:54:40Z</time>
      </trkpt>
      <trkpt lat="45.17653" lon="4.52044">
        <ele>944.63</ele>
        <time>2016-09-04T08:54:57Z</time>
      </trkpt>
      <trkpt lat="45.17655" lon="4.52054">
        <ele>944.15</ele>
        <time>2016-09-04T08:55:01Z</time>
      </trkpt>
      <trkpt lat="45.17654" lon="4.52062">
        <ele>944.15</ele>
        <time>2016-09-04T08:55:06Z</time>
      </trkpt>
      <trkpt lat="45.17655" lon="4.5208">
        <ele>944.63</ele>
        <time>2016-09-04T08:55:14Z</time>
      </trkpt>
      <trkpt lat="45.17655" lon="4.52091">
        <ele>945.11</ele>
        <time>2016-09-04T08:55:19Z</time>
      </trkpt>
      <trkpt lat="45.17654" lon="4.52098">
        <ele>946.07</ele>
        <time>2016-09-04T08:55:23Z</time>
      </trkpt>
      <trkpt lat="45.17648" lon="4.52122">
        <ele>947.52</ele>
        <time>2016-09-04T08:55:38Z</time>
      </trkpt>
      <trkpt lat="45.17645" lon="4.52131">
        <ele>948</ele>
        <time>2016-09-04T08:55:43Z</time>
      </trkpt>
      <trkpt lat="45.17636" lon="4.52157">
        <ele>948.48</ele>
        <time>2016-09-04T08:55:58Z</time>
      </trkpt>
      <trkpt lat="45.17636" lon="4.52158">
        <ele>948.48</ele>
        <time>2016-09-04T08:55:59Z</time>
      </trkpt>
      <trkpt lat="45.17632" lon="4.5218">
        <ele>949.92</ele>
        <time>2016-09-04T08:56:14Z</time>
      </trkpt>
      <trkpt lat="45.1763" lon="4.52208">
        <ele>952.8</ele>
        <time>2016-09-04T08:56:27Z</time>
      </trkpt>
      <trkpt lat="45.17624" lon="4.5223">
        <ele>954.73</ele>
        <time>2016-09-04T08:56:43Z</time>
      </trkpt>
      <trkpt lat="45.17623" lon="4.52246">
        <ele>958.09</ele>
        <time>2016-09-04T08:56:58Z</time>
      </trkpt>
      <trkpt lat="45.17624" lon="4.52259">
        <ele>958.57</ele>
        <time>2016-09-04T08:57:10Z</time>
      </trkpt>
      <trkpt lat="45.17626" lon="4.52269">
        <ele>958.57</ele>
        <time>2016-09-04T08:57:19Z</time>
      </trkpt>
      <trkpt lat="45.17634" lon="4.52296">
        <ele>960.49</ele>
        <time>2016-09-04T08:57:33Z</time>
      </trkpt>
      <trkpt lat="45.17639" lon="4.52303">
        <ele>961.94</ele>
        <time>2016-09-04T08:57:39Z</time>
      </trkpt>
      <trkpt lat="45.17652" lon="4.52328">
        <ele>967.22</ele>
        <time>2016-09-04T08:57:54Z</time>
      </trkpt>
      <trkpt lat="45.17663" lon="4.52345">
        <ele>965.78</ele>
        <time>2016-09-04T08:58:11Z</time>
      </trkpt>
      <trkpt lat="45.17672" lon="4.52352">
        <ele>965.78</ele>
        <time>2016-09-04T08:58:23Z</time>
      </trkpt>
      <trkpt lat="45.17684" lon="4.52365">
        <ele>967.22</ele>
        <time>2016-09-04T08:58:36Z</time>
      </trkpt>
      <trkpt lat="45.17684" lon="4.52366">
        <ele>967.22</ele>
        <time>2016-09-04T08:58:37Z</time>
      </trkpt>
      <trkpt lat="45.17687" lon="4.52369">
        <ele>967.22</ele>
        <time>2016-09-04T08:58:40Z</time>
      </trkpt>
      <trkpt lat="45.177" lon="4.5239">
        <ele>964.82</ele>
        <time>2016-09-04T08:58:54Z</time>
      </trkpt>
      <trkpt lat="45.17714" lon="4.52409">
        <ele>966.26</ele>
        <time>2016-09-04T08:59:10Z</time>
      </trkpt>
      <trkpt lat="45.17721" lon="4.52432">
        <ele>962.9</ele>
        <time>2016-09-04T08:59:22Z</time>
      </trkpt>
      <trkpt lat="45.17723" lon="4.52459">
        <ele>956.65</ele>
        <time>2016-09-04T08:59:30Z</time>
      </trkpt>
      <trkpt lat="45.17727" lon="4.5251">
        <ele>948</ele>
        <time>2016-09-04T08:59:46Z</time>
      </trkpt>
      <trkpt lat="45.17724" lon="4.52538">
        <ele>947.52</ele>
        <time>2016-09-04T09:00:02Z</time>
      </trkpt>
      <trkpt lat="45.17717" lon="4.52561">
        <ele>949.92</ele>
        <time>2016-09-04T09:00:18Z</time>
      </trkpt>
      <trkpt lat="45.17707" lon="4.52583">
        <ele>950.88</ele>
        <time>2016-09-04T09:00:33Z</time>
      </trkpt>
      <trkpt lat="45.17706" lon="4.52585">
        <ele>950.4</ele>
        <time>2016-09-04T09:00:34Z</time>
      </trkpt>
      <trkpt lat="45.17704" lon="4.52589">
        <ele>950.4</ele>
        <time>2016-09-04T09:00:37Z</time>
      </trkpt>
      <trkpt lat="45.17693" lon="4.52614">
        <ele>952.32</ele>
        <time>2016-09-04T09:00:52Z</time>
      </trkpt>
      <trkpt lat="45.17682" lon="4.52635">
        <ele>954.73</ele>
        <time>2016-09-04T09:01:06Z</time>
      </trkpt>
      <trkpt lat="45.17669" lon="4.52652">
        <ele>954.25</ele>
        <time>2016-09-04T09:01:18Z</time>
      </trkpt>
      <trkpt lat="45.17654" lon="4.52669">
        <ele>952.32</ele>
        <time>2016-09-04T09:01:32Z</time>
      </trkpt>
      <trkpt lat="45.1764" lon="4.52689">
        <ele>951.84</ele>
        <time>2016-09-04T09:01:47Z</time>
      </trkpt>
      <trkpt lat="45.17637" lon="4.52692">
        <ele>952.32</ele>
        <time>2016-09-04T09:01:50Z</time>
      </trkpt>
      <trkpt lat="45.17622" lon="4.5271">
        <ele>951.36</ele>
        <time>2016-09-04T09:02:07Z</time>
      </trkpt>
      <trkpt lat="45.17615" lon="4.52723">
        <ele>953.28</ele>
        <time>2016-09-04T09:02:19Z</time>
      </trkpt>
      <trkpt lat="45.17607" lon="4.52736">
        <ele>957.13</ele>
        <time>2016-09-04T09:02:33Z</time>
      </trkpt>
      <trkpt lat="45.176" lon="4.52749">
        <ele>959.05</ele>
        <time>2016-09-04T09:02:47Z</time>
      </trkpt>
      <trkpt lat="45.17591" lon="4.52758">
        <ele>960.49</ele>
        <time>2016-09-04T09:02:58Z</time>
      </trkpt>
      <trkpt lat="45.1758" lon="4.52762">
        <ele>960.98</ele>
        <time>2016-09-04T09:03:04Z</time>
      </trkpt>
      <trkpt lat="45.17567" lon="4.5277">
        <ele>963.38</ele>
        <time>2016-09-04T09:03:19Z</time>
      </trkpt>
      <trkpt lat="45.17556" lon="4.52778">
        <ele>968.67</ele>
        <time>2016-09-04T09:03:31Z</time>
      </trkpt>
      <trkpt lat="45.17552" lon="4.52781">
        <ele>970.11</ele>
        <time>2016-09-04T09:03:34Z</time>
      </trkpt>
      <trkpt lat="45.17525" lon="4.52796">
        <ele>971.07</ele>
        <time>2016-09-04T09:03:48Z</time>
      </trkpt>
      <trkpt lat="45.17523" lon="4.52802">
        <ele>970.59</ele>
        <time>2016-09-04T09:03:53Z</time>
      </trkpt>
      <trkpt lat="45.17522" lon="4.52809">
        <ele>972.03</ele>
        <time>2016-09-04T09:03:58Z</time>
      </trkpt>
      <trkpt lat="45.17511" lon="4.5282">
        <ele>970.11</ele>
        <time>2016-09-04T09:04:08Z</time>
      </trkpt>
      <trkpt lat="45.17507" lon="4.52825">
        <ele>969.15</ele>
        <time>2016-09-04T09:04:12Z</time>
      </trkpt>
      <trkpt lat="45.17499" lon="4.52837">
        <ele>969.15</ele>
        <time>2016-09-04T09:04:22Z</time>
      </trkpt>
      <trkpt lat="45.17494" lon="4.52853">
        <ele>968.67</ele>
        <time>2016-09-04T09:04:34Z</time>
      </trkpt>
      <trkpt lat="45.17482" lon="4.52878">
        <ele>967.7</ele>
        <time>2016-09-04T09:04:50Z</time>
      </trkpt>
      <trkpt lat="45.17474" lon="4.52889">
        <ele>968.18</ele>
        <time>2016-09-04T09:05:03Z</time>
      </trkpt>
      <trkpt lat="45.17471" lon="4.52902">
        <ele>967.7</ele>
        <time>2016-09-04T09:05:10Z</time>
      </trkpt>
      <trkpt lat="45.17468" lon="4.52929">
        <ele>970.11</ele>
        <time>2016-09-04T09:05:24Z</time>
      </trkpt>
      <trkpt lat="45.17458" lon="4.5295">
        <ele>970.59</ele>
        <time>2016-09-04T09:05:36Z</time>
      </trkpt>
      <trkpt lat="45.17457" lon="4.52977">
        <ele>968.18</ele>
        <time>2016-09-04T09:05:50Z</time>
      </trkpt>
      <trkpt lat="45.17455" lon="4.52985">
        <ele>968.67</ele>
        <time>2016-09-04T09:05:53Z</time>
      </trkpt>
      <trkpt lat="45.17453" lon="4.53013">
        <ele>968.18</ele>
        <time>2016-09-04T09:06:07Z</time>
      </trkpt>
      <trkpt lat="45.17447" lon="4.53033">
        <ele>969.63</ele>
        <time>2016-09-04T09:06:21Z</time>
      </trkpt>
      <trkpt lat="45.17443" lon="4.53047">
        <ele>972.99</ele>
        <time>2016-09-04T09:06:37Z</time>
      </trkpt>
      <trkpt lat="45.17439" lon="4.53056">
        <ele>974.43</ele>
        <time>2016-09-04T09:06:50Z</time>
      </trkpt>
      <trkpt lat="45.17439" lon="4.53069">
        <ele>978.76</ele>
        <time>2016-09-04T09:07:03Z</time>
      </trkpt>
      <trkpt lat="45.1744" lon="4.5307">
        <ele>980.2</ele>
        <time>2016-09-04T09:07:05Z</time>
      </trkpt>
      <trkpt lat="45.17441" lon="4.53072">
        <ele>981.64</ele>
        <time>2016-09-04T09:07:08Z</time>
      </trkpt>
      <trkpt lat="45.17443" lon="4.53073">
        <ele>983.09</ele>
        <time>2016-09-04T09:07:11Z</time>
      </trkpt>
      <trkpt lat="45.1745" lon="4.53084">
        <ele>985.01</ele>
        <time>2016-09-04T09:07:22Z</time>
      </trkpt>
      <trkpt lat="45.17453" lon="4.53093">
        <ele>985.01</ele>
        <time>2016-09-04T09:07:26Z</time>
      </trkpt>
      <trkpt lat="45.17465" lon="4.53125">
        <ele>981.64</ele>
        <time>2016-09-04T09:07:38Z</time>
      </trkpt>
      <trkpt lat="45.17466" lon="4.53125">
        <ele>982.12</ele>
        <time>2016-09-04T09:07:39Z</time>
      </trkpt>
      <trkpt lat="45.1747" lon="4.53126">
        <ele>981.64</ele>
        <time>2016-09-04T09:07:42Z</time>
      </trkpt>
      <trkpt lat="45.17488" lon="4.53135">
        <ele>985.01</ele>
        <time>2016-09-04T09:07:56Z</time>
      </trkpt>
      <trkpt lat="45.17506" lon="4.53145">
        <ele>987.41</ele>
        <time>2016-09-04T09:08:10Z</time>
      </trkpt>
      <trkpt lat="45.17524" lon="4.53151">
        <ele>985.01</ele>
        <time>2016-09-04T09:08:24Z</time>
      </trkpt>
      <trkpt lat="45.17529" lon="4.53154">
        <ele>983.57</ele>
        <time>2016-09-04T09:08:30Z</time>
      </trkpt>
      <trkpt lat="45.17533" lon="4.53158">
        <ele>983.57</ele>
        <time>2016-09-04T09:08:34Z</time>
      </trkpt>
      <trkpt lat="45.17545" lon="4.53168">
        <ele>986.93</ele>
        <time>2016-09-04T09:08:49Z</time>
      </trkpt>
      <trkpt lat="45.17557" lon="4.53185">
        <ele>986.93</ele>
        <time>2016-09-04T09:09:04Z</time>
      </trkpt>
      <trkpt lat="45.17558" lon="4.53187">
        <ele>986.93</ele>
        <time>2016-09-04T09:09:05Z</time>
      </trkpt>
      <trkpt lat="45.17565" lon="4.53206">
        <ele>986.45</ele>
        <time>2016-09-04T09:09:16Z</time>
      </trkpt>
      <trkpt lat="45.1757" lon="4.53229">
        <ele>982.12</ele>
        <time>2016-09-04T09:09:27Z</time>
      </trkpt>
      <trkpt lat="45.1757" lon="4.53279">
        <ele>975.39</ele>
        <time>2016-09-04T09:09:43Z</time>
      </trkpt>
      <trkpt lat="45.17559" lon="4.53301">
        <ele>975.39</ele>
        <time>2016-09-04T09:09:58Z</time>
      </trkpt>
      <trkpt lat="45.17549" lon="4.53313">
        <ele>977.32</ele>
        <time>2016-09-04T09:10:09Z</time>
      </trkpt>
      <trkpt lat="45.1754" lon="4.53336">
        <ele>980.68</ele>
        <time>2016-09-04T09:10:25Z</time>
      </trkpt>
      <trkpt lat="45.17538" lon="4.5334">
        <ele>981.64</ele>
        <time>2016-09-04T09:10:28Z</time>
      </trkpt>
      <trkpt lat="45.17529" lon="4.53361">
        <ele>986.93</ele>
        <time>2016-09-04T09:10:42Z</time>
      </trkpt>
      <trkpt lat="45.17524" lon="4.53378">
        <ele>988.37</ele>
        <time>2016-09-04T09:10:55Z</time>
      </trkpt>
      <trkpt lat="45.17525" lon="4.53396">
        <ele>991.74</ele>
        <time>2016-09-04T09:11:12Z</time>
      </trkpt>
      <trkpt lat="45.17525" lon="4.53407">
        <ele>997.02</ele>
        <time>2016-09-04T09:11:26Z</time>
      </trkpt>
      <trkpt lat="45.17535" lon="4.53416">
        <ele>1003.27</ele>
        <time>2016-09-04T09:11:40Z</time>
      </trkpt>
      <trkpt lat="45.1755" lon="4.53436">
        <ele>1008.08</ele>
        <time>2016-09-04T09:11:56Z</time>
      </trkpt>
      <trkpt lat="45.17551" lon="4.53438">
        <ele>1008.08</ele>
        <time>2016-09-04T09:11:57Z</time>
      </trkpt>
      <trkpt lat="45.17556" lon="4.53444">
        <ele>1007.12</ele>
        <time>2016-09-04T09:12:02Z</time>
      </trkpt>
      <trkpt lat="45.1756" lon="4.53449">
        <ele>1006.16</ele>
        <time>2016-09-04T09:12:06Z</time>
      </trkpt>
      <trkpt lat="45.17574" lon="4.53469">
        <ele>1003.75</ele>
        <time>2016-09-04T09:12:21Z</time>
      </trkpt>
      <trkpt lat="45.17584" lon="4.53494">
        <ele>997.99</ele>
        <time>2016-09-04T09:12:35Z</time>
      </trkpt>
      <trkpt lat="45.17584" lon="4.53513">
        <ele>991.26</ele>
        <time>2016-09-04T09:12:43Z</time>
      </trkpt>
      <trkpt lat="45.17574" lon="4.53524">
        <ele>988.85</ele>
        <time>2016-09-04T09:12:56Z</time>
      </trkpt>
      <trkpt lat="45.17561" lon="4.53519">
        <ele>991.74</ele>
        <time>2016-09-04T09:13:09Z</time>
      </trkpt>
      <trkpt lat="45.17549" lon="4.5351">
        <ele>993.66</ele>
        <time>2016-09-04T09:13:21Z</time>
      </trkpt>
      <trkpt lat="45.17535" lon="4.53498">
        <ele>997.51</ele>
        <time>2016-09-04T09:13:34Z</time>
      </trkpt>
      <trkpt lat="45.17531" lon="4.53495">
        <ele>998.47</ele>
        <time>2016-09-04T09:13:38Z</time>
      </trkpt>
      <trkpt lat="45.1752" lon="4.53481">
        <ele>1003.27</ele>
        <time>2016-09-04T09:13:53Z</time>
      </trkpt>
      <trkpt lat="45.17518" lon="4.53478">
        <ele>1005.68</ele>
        <time>2016-09-04T09:13:59Z</time>
      </trkpt>
      <trkpt lat="45.17505" lon="4.53476">
        <ele>1008.56</ele>
        <time>2016-09-04T09:14:13Z</time>
      </trkpt>
      <trkpt lat="45.17497" lon="4.5347">
        <ele>1013.37</ele>
        <time>2016-09-04T09:14:25Z</time>
      </trkpt>
      <trkpt lat="45.17484" lon="4.53467">
        <ele>1013.85</ele>
        <time>2016-09-04T09:14:37Z</time>
      </trkpt>
      <trkpt lat="45.17476" lon="4.53463">
        <ele>1013.85</ele>
        <time>2016-09-04T09:14:48Z</time>
      </trkpt>
      <trkpt lat="45.1746" lon="4.53458">
        <ele>1008.08</ele>
        <time>2016-09-04T09:15:02Z</time>
      </trkpt>
      <trkpt lat="45.17451" lon="4.53452">
        <ele>1010.96</ele>
        <time>2016-09-04T09:15:14Z</time>
      </trkpt>
      <trkpt lat="45.17442" lon="4.53442">
        <ele>1014.81</ele>
        <time>2016-09-04T09:15:27Z</time>
      </trkpt>
      <trkpt lat="45.17433" lon="4.5341">
        <ele>1012.41</ele>
        <time>2016-09-04T09:15:42Z</time>
      </trkpt>
      <trkpt lat="45.17429" lon="4.53398">
        <ele>1013.85</ele>
        <time>2016-09-04T09:15:54Z</time>
      </trkpt>
      <trkpt lat="45.17429" lon="4.5338">
        <ele>1018.65</ele>
        <time>2016-09-04T09:16:07Z</time>
      </trkpt>
      <trkpt lat="45.17427" lon="4.53363">
        <ele>1020.1</ele>
        <time>2016-09-04T09:16:19Z</time>
      </trkpt>
      <trkpt lat="45.17426" lon="4.53339">
        <ele>1019.13</ele>
        <time>2016-09-04T09:16:33Z</time>
      </trkpt>
      <trkpt lat="45.17422" lon="4.53315">
        <ele>1018.65</ele>
        <time>2016-09-04T09:16:49Z</time>
      </trkpt>
      <trkpt lat="45.1742" lon="4.53301">
        <ele>1019.62</ele>
        <time>2016-09-04T09:16:58Z</time>
      </trkpt>
      <trkpt lat="45.17415" lon="4.53296">
        <ele>1019.13</ele>
        <time>2016-09-04T09:17:05Z</time>
      </trkpt>
      <trkpt lat="45.17414" lon="4.53295">
        <ele>1019.13</ele>
        <time>2016-09-04T09:17:07Z</time>
      </trkpt>
      <trkpt lat="45.17412" lon="4.53306">
        <ele>1023.46</ele>
        <time>2016-09-04T09:17:20Z</time>
      </trkpt>
      <trkpt lat="45.17405" lon="4.53326">
        <ele>1028.27</ele>
        <time>2016-09-04T09:17:35Z</time>
      </trkpt>
      <trkpt lat="45.17395" lon="4.53347">
        <ele>1030.67</ele>
        <time>2016-09-04T09:17:50Z</time>
      </trkpt>
      <trkpt lat="45.17394" lon="4.5335">
        <ele>1030.67</ele>
        <time>2016-09-04T09:17:52Z</time>
      </trkpt>
      <trkpt lat="45.17384" lon="4.53367">
        <ele>1030.67</ele>
        <time>2016-09-04T09:18:05Z</time>
      </trkpt>
      <trkpt lat="45.17372" lon="4.53384">
        <ele>1031.15</ele>
        <time>2016-09-04T09:18:19Z</time>
      </trkpt>
      <trkpt lat="45.17365" lon="4.53398">
        <ele>1031.63</ele>
        <time>2016-09-04T09:18:30Z</time>
      </trkpt>
      <trkpt lat="45.17361" lon="4.53403">
        <ele>1033.55</ele>
        <time>2016-09-04T09:18:35Z</time>
      </trkpt>
      <trkpt lat="45.17351" lon="4.53423">
        <ele>1035</ele>
        <time>2016-09-04T09:18:50Z</time>
      </trkpt>
      <trkpt lat="45.17343" lon="4.5344">
        <ele>1037.88</ele>
        <time>2016-09-04T09:19:03Z</time>
      </trkpt>
      <trkpt lat="45.17334" lon="4.5346">
        <ele>1039.8</ele>
        <time>2016-09-04T09:19:18Z</time>
      </trkpt>
      <trkpt lat="45.17329" lon="4.5347">
        <ele>1041.25</ele>
        <time>2016-09-04T09:19:26Z</time>
      </trkpt>
      <trkpt lat="45.17319" lon="4.5349">
        <ele>1041.73</ele>
        <time>2016-09-04T09:19:40Z</time>
      </trkpt>
      <trkpt lat="45.17311" lon="4.5351">
        <ele>1042.69</ele>
        <time>2016-09-04T09:19:55Z</time>
      </trkpt>
      <trkpt lat="45.173" lon="4.53531">
        <ele>1042.21</ele>
        <time>2016-09-04T09:20:10Z</time>
      </trkpt>
      <trkpt lat="45.17298" lon="4.53535">
        <ele>1042.69</ele>
        <time>2016-09-04T09:20:13Z</time>
      </trkpt>
      <trkpt lat="45.17288" lon="4.53555">
        <ele>1046.05</ele>
        <time>2016-09-04T09:20:28Z</time>
      </trkpt>
      <trkpt lat="45.17277" lon="4.53568">
        <ele>1045.57</ele>
        <time>2016-09-04T09:20:40Z</time>
      </trkpt>
      <trkpt lat="45.17277" lon="4.53569">
        <ele>1046.05</ele>
        <time>2016-09-04T09:20:41Z</time>
      </trkpt>
      <trkpt lat="45.17272" lon="4.53577">
        <ele>1047.01</ele>
        <time>2016-09-04T09:20:47Z</time>
      </trkpt>
      <trkpt lat="45.1727" lon="4.5358">
        <ele>1047.49</ele>
        <time>2016-09-04T09:20:50Z</time>
      </trkpt>
      <trkpt lat="45.17265" lon="4.53591">
        <ele>1048.94</ele>
        <time>2016-09-04T09:20:58Z</time>
      </trkpt>
      <trkpt lat="45.17261" lon="4.53602">
        <ele>1050.86</ele>
        <time>2016-09-04T09:21:06Z</time>
      </trkpt>
      <trkpt lat="45.17249" lon="4.53623">
        <ele>1055.18</ele>
        <time>2016-09-04T09:21:22Z</time>
      </trkpt>
      <trkpt lat="45.1723" lon="4.53629">
        <ele>1059.03</ele>
        <time>2016-09-04T09:21:39Z</time>
      </trkpt>
      <trkpt lat="45.17225" lon="4.53635">
        <ele>1056.63</ele>
        <time>2016-09-04T09:21:54Z</time>
      </trkpt>
      <trkpt lat="45.17222" lon="4.53637">
        <ele>1051.34</ele>
        <time>2016-09-04T09:22:09Z</time>
      </trkpt>
      <trkpt lat="45.17221" lon="4.53635">
        <ele>1048.45</ele>
        <time>2016-09-04T09:22:24Z</time>
      </trkpt>
      <trkpt lat="45.17221" lon="4.53634">
        <ele>1047.49</ele>
        <time>2016-09-04T09:22:37Z</time>
      </trkpt>
      <trkpt lat="45.17221" lon="4.53635">
        <ele>1046.53</ele>
        <time>2016-09-04T09:22:59Z</time>
      </trkpt>
      <trkpt lat="45.17221" lon="4.53635">
        <ele>1045.57</ele>
        <time>2016-09-04T09:23:22Z</time>
      </trkpt>
      <trkpt lat="45.17221" lon="4.53636">
        <ele>1045.57</ele>
        <time>2016-09-04T09:23:43Z</time>
      </trkpt>
      <trkpt lat="45.17216" lon="4.53634">
        <ele>1043.65</ele>
        <time>2016-09-04T09:24:00Z</time>
      </trkpt>
      <trkpt lat="45.17217" lon="4.53635">
        <ele>1043.17</ele>
        <time>2016-09-04T09:24:13Z</time>
      </trkpt>
      <trkpt lat="45.17217" lon="4.53634">
        <ele>1042.21</ele>
        <time>2016-09-04T09:24:29Z</time>
      </trkpt>
      <trkpt lat="45.17217" lon="4.53636">
        <ele>1042.21</ele>
        <time>2016-09-04T09:24:43Z</time>
      </trkpt>
      <trkpt lat="45.17217" lon="4.53636">
        <ele>1042.21</ele>
        <time>2016-09-04T09:25:04Z</time>
      </trkpt>
      <trkpt lat="45.17217" lon="4.53635">
        <ele>1042.21</ele>
        <time>2016-09-04T09:25:21Z</time>
      </trkpt>
      <trkpt lat="45.17215" lon="4.53634">
        <ele>1042.21</ele>
        <time>2016-09-04T09:25:36Z</time>
      </trkpt>
      <trkpt lat="45.17214" lon="4.53634">
        <ele>1042.21</ele>
        <time>2016-09-04T09:25:53Z</time>
      </trkpt>
      <trkpt lat="45.17214" lon="4.53633">
        <ele>1041.73</ele>
        <time>2016-09-04T09:26:03Z</time>
      </trkpt>
      <trkpt lat="45.17216" lon="4.53633">
        <ele>1042.69</ele>
        <time>2016-09-04T09:26:25Z</time>
      </trkpt>
      <trkpt lat="45.17217" lon="4.53634">
        <ele>1043.17</ele>
        <time>2016-09-04T09:26:49Z</time>
      </trkpt>
      <trkpt lat="45.17215" lon="4.53634">
        <ele>1044.13</ele>
        <time>2016-09-04T09:27:03Z</time>
      </trkpt>
      <trkpt lat="45.17214" lon="4.53633">
        <ele>1043.17</ele>
        <time>2016-09-04T09:27:30Z</time>
      </trkpt>
      <trkpt lat="45.17213" lon="4.53633">
        <ele>1041.73</ele>
        <time>2016-09-04T09:27:47Z</time>
      </trkpt>
      <trkpt lat="45.17213" lon="4.53633">
        <ele>1041.73</ele>
        <time>2016-09-04T09:28:04Z</time>
      </trkpt>
      <trkpt lat="45.17213" lon="4.53633">
        <ele>1041.73</ele>
        <time>2016-09-04T09:28:27Z</time>
      </trkpt>
      <trkpt lat="45.17212" lon="4.53634">
        <ele>1041.25</ele>
        <time>2016-09-04T09:28:45Z</time>
      </trkpt>
      <trkpt lat="45.17212" lon="4.53634">
        <ele>1041.25</ele>
        <time>2016-09-04T09:28:59Z</time>
      </trkpt>
      <trkpt lat="45.17213" lon="4.53634">
        <ele>1039.8</ele>
        <time>2016-09-04T09:29:28Z</time>
      </trkpt>
      <trkpt lat="45.17212" lon="4.53634">
        <ele>1040.28</ele>
        <time>2016-09-04T09:29:52Z</time>
      </trkpt>
      <trkpt lat="45.17212" lon="4.53635">
        <ele>1040.76</ele>
        <time>2016-09-04T09:30:14Z</time>
      </trkpt>
      <trkpt lat="45.17212" lon="4.53635">
        <ele>1041.25</ele>
        <time>2016-09-04T09:30:35Z</time>
      </trkpt>
      <trkpt lat="45.17212" lon="4.53634">
        <ele>1042.21</ele>
        <time>2016-09-04T09:30:50Z</time>
      </trkpt>
      <trkpt lat="45.17212" lon="4.53633">
        <ele>1042.69</ele>
        <time>2016-09-04T09:31:11Z</time>
      </trkpt>
      <trkpt lat="45.17212" lon="4.53633">
        <ele>1043.17</ele>
        <time>2016-09-04T09:31:35Z</time>
      </trkpt>
      <trkpt lat="45.17214" lon="4.53633">
        <ele>1043.65</ele>
        <time>2016-09-04T09:31:49Z</time>
      </trkpt>
      <trkpt lat="45.17217" lon="4.53639">
        <ele>1045.09</ele>
        <time>2016-09-04T09:31:54Z</time>
      </trkpt>
      <trkpt lat="45.1722" lon="4.53645">
        <ele>1047.01</ele>
        <time>2016-09-04T09:31:59Z</time>
      </trkpt>
      <trkpt lat="45.1723" lon="4.53652">
        <ele>1054.7</ele>
        <time>2016-09-04T09:32:13Z</time>
      </trkpt>
      <trkpt lat="45.17238" lon="4.53657">
        <ele>1065.28</ele>
        <time>2016-09-04T09:32:28Z</time>
      </trkpt>
      <trkpt lat="45.17245" lon="4.5366">
        <ele>1072.01</ele>
        <time>2016-09-04T09:32:40Z</time>
      </trkpt>
      <trkpt lat="45.17255" lon="4.53667">
        <ele>1076.33</ele>
        <time>2016-09-04T09:32:55Z</time>
      </trkpt>
      <trkpt lat="45.17264" lon="4.53679">
        <ele>1077.78</ele>
        <time>2016-09-04T09:33:11Z</time>
      </trkpt>
      <trkpt lat="45.1727" lon="4.53683">
        <ele>1083.06</ele>
        <time>2016-09-04T09:33:26Z</time>
      </trkpt>
      <trkpt lat="45.17277" lon="4.53687">
        <ele>1088.83</ele>
        <time>2016-09-04T09:33:40Z</time>
      </trkpt>
      <trkpt lat="45.17287" lon="4.53692">
        <ele>1097</ele>
        <time>2016-09-04T09:33:53Z</time>
      </trkpt>
      <trkpt lat="45.17299" lon="4.53701">
        <ele>1100.37</ele>
        <time>2016-09-04T09:34:07Z</time>
      </trkpt>
      <trkpt lat="45.17309" lon="4.53715">
        <ele>1095.08</ele>
        <time>2016-09-04T09:34:19Z</time>
      </trkpt>
      <trkpt lat="45.17318" lon="4.53733">
        <ele>1093.16</ele>
        <time>2016-09-04T09:34:34Z</time>
      </trkpt>
      <trkpt lat="45.17321" lon="4.53754">
        <ele>1091.71</ele>
        <time>2016-09-04T09:34:49Z</time>
      </trkpt>
      <trkpt lat="45.17321" lon="4.53772">
        <ele>1092.2</ele>
        <time>2016-09-04T09:35:03Z</time>
      </trkpt>
      <trkpt lat="45.17314" lon="4.53783">
        <ele>1092.68</ele>
        <time>2016-09-04T09:35:15Z</time>
      </trkpt>
      <trkpt lat="45.17306" lon="4.538">
        <ele>1091.71</ele>
        <time>2016-09-04T09:35:30Z</time>
      </trkpt>
      <trkpt lat="45.17299" lon="4.53817">
        <ele>1090.75</ele>
        <time>2016-09-04T09:35:45Z</time>
      </trkpt>
      <trkpt lat="45.17293" lon="4.53841">
        <ele>1090.75</ele>
        <time>2016-09-04T09:36:01Z</time>
      </trkpt>
      <trkpt lat="45.17283" lon="4.53856">
        <ele>1097</ele>
        <time>2016-09-04T09:36:18Z</time>
      </trkpt>
      <trkpt lat="45.17275" lon="4.53871">
        <ele>1104.21</ele>
        <time>2016-09-04T09:36:33Z</time>
      </trkpt>
      <trkpt lat="45.17269" lon="4.53886">
        <ele>1106.61</ele>
        <time>2016-09-04T09:36:46Z</time>
      </trkpt>
      <trkpt lat="45.17261" lon="4.53902">
        <ele>1107.1</ele>
        <time>2016-09-04T09:37:02Z</time>
      </trkpt>
      <trkpt lat="45.17256" lon="4.53921">
        <ele>1105.65</ele>
        <time>2016-09-04T09:37:15Z</time>
      </trkpt>
      <trkpt lat="45.17251" lon="4.53935">
        <ele>1107.1</ele>
        <time>2016-09-04T09:37:27Z</time>
      </trkpt>
      <trkpt lat="45.17246" lon="4.53953">
        <ele>1107.58</ele>
        <time>2016-09-04T09:37:41Z</time>
      </trkpt>
      <trkpt lat="45.17242" lon="4.53974">
        <ele>1107.1</ele>
        <time>2016-09-04T09:37:53Z</time>
      </trkpt>
      <trkpt lat="45.17238" lon="4.53988">
        <ele>1109.5</ele>
        <time>2016-09-04T09:38:06Z</time>
      </trkpt>
      <trkpt lat="45.17237" lon="4.53996">
        <ele>1111.42</ele>
        <time>2016-09-04T09:38:17Z</time>
      </trkpt>
      <trkpt lat="45.17233" lon="4.54015">
        <ele>1113.34</ele>
        <time>2016-09-04T09:38:30Z</time>
      </trkpt>
      <trkpt lat="45.17227" lon="4.54037">
        <ele>1113.82</ele>
        <time>2016-09-04T09:38:44Z</time>
      </trkpt>
      <trkpt lat="45.17221" lon="4.54056">
        <ele>1118.15</ele>
        <time>2016-09-04T09:38:57Z</time>
      </trkpt>
      <trkpt lat="45.17217" lon="4.5406">
        <ele>1119.59</ele>
        <time>2016-09-04T09:39:11Z</time>
      </trkpt>
      <trkpt lat="45.17211" lon="4.5408">
        <ele>1124.4</ele>
        <time>2016-09-04T09:39:25Z</time>
      </trkpt>
      <trkpt lat="45.17208" lon="4.54094">
        <ele>1124.88</ele>
        <time>2016-09-04T09:39:37Z</time>
      </trkpt>
      <trkpt lat="45.17206" lon="4.54109">
        <ele>1126.8</ele>
        <time>2016-09-04T09:39:51Z</time>
      </trkpt>
      <trkpt lat="45.17204" lon="4.54125">
        <ele>1126.32</ele>
        <time>2016-09-04T09:40:04Z</time>
      </trkpt>
      <trkpt lat="45.17201" lon="4.54146">
        <ele>1126.8</ele>
        <time>2016-09-04T09:40:15Z</time>
      </trkpt>
      <trkpt lat="45.17201" lon="4.54157">
        <ele>1126.32</ele>
        <time>2016-09-04T09:40:22Z</time>
      </trkpt>
      <trkpt lat="45.17201" lon="4.54178">
        <ele>1127.28</ele>
        <time>2016-09-04T09:40:34Z</time>
      </trkpt>
      <trkpt lat="45.17201" lon="4.54182">
        <ele>1128.24</ele>
        <time>2016-09-04T09:40:36Z</time>
      </trkpt>
      <trkpt lat="45.17202" lon="4.54186">
        <ele>1129.21</ele>
        <time>2016-09-04T09:40:38Z</time>
      </trkpt>
      <trkpt lat="45.172" lon="4.54214">
        <ele>1130.17</ele>
        <time>2016-09-04T09:40:53Z</time>
      </trkpt>
      <trkpt lat="45.172" lon="4.54229">
        <ele>1133.05</ele>
        <time>2016-09-04T09:41:06Z</time>
      </trkpt>
      <trkpt lat="45.17199" lon="4.54241">
        <ele>1136.42</ele>
        <time>2016-09-04T09:41:19Z</time>
      </trkpt>
      <trkpt lat="45.17201" lon="4.5425">
        <ele>1136.42</ele>
        <time>2016-09-04T09:41:35Z</time>
      </trkpt>
      <trkpt lat="45.17203" lon="4.5425">
        <ele>1138.34</ele>
        <time>2016-09-04T09:41:39Z</time>
      </trkpt>
      <trkpt lat="45.17208" lon="4.54254">
        <ele>1139.3</ele>
        <time>2016-09-04T09:41:54Z</time>
      </trkpt>
      <trkpt lat="45.1722" lon="4.54248">
        <ele>1143.14</ele>
        <time>2016-09-04T09:42:08Z</time>
      </trkpt>
      <trkpt lat="45.17227" lon="4.5425">
        <ele>1148.91</ele>
        <time>2016-09-04T09:42:23Z</time>
      </trkpt>
      <trkpt lat="45.17227" lon="4.5425">
        <ele>1148.91</ele>
        <time>2016-09-04T09:42:24Z</time>
      </trkpt>
      <trkpt lat="45.17238" lon="4.54251">
        <ele>1152.28</ele>
        <time>2016-09-04T09:42:38Z</time>
      </trkpt>
      <trkpt lat="45.17246" lon="4.54249">
        <ele>1154.68</ele>
        <time>2016-09-04T09:42:51Z</time>
      </trkpt>
      <trkpt lat="45.17254" lon="4.54247">
        <ele>1156.6</ele>
        <time>2016-09-04T09:43:03Z</time>
      </trkpt>
      <trkpt lat="45.17261" lon="4.54232">
        <ele>1156.6</ele>
        <time>2016-09-04T09:43:17Z</time>
      </trkpt>
      <trkpt lat="45.17269" lon="4.5422">
        <ele>1159.01</ele>
        <time>2016-09-04T09:43:31Z</time>
      </trkpt>
      <trkpt lat="45.17279" lon="4.54209">
        <ele>1159.97</ele>
        <time>2016-09-04T09:43:45Z</time>
      </trkpt>
      <trkpt lat="45.17284" lon="4.54194">
        <ele>1156.12</ele>
        <time>2016-09-04T09:43:59Z</time>
      </trkpt>
      <trkpt lat="45.17289" lon="4.54175">
        <ele>1153.72</ele>
        <time>2016-09-04T09:44:13Z</time>
      </trkpt>
      <trkpt lat="45.17296" lon="4.5416">
        <ele>1151.8</ele>
        <time>2016-09-04T09:44:27Z</time>
      </trkpt>
      <trkpt lat="45.17299" lon="4.54155">
        <ele>1150.84</ele>
        <time>2016-09-04T09:44:33Z</time>
      </trkpt>
      <trkpt lat="45.17306" lon="4.54138">
        <ele>1148.91</ele>
        <time>2016-09-04T09:44:47Z</time>
      </trkpt>
      <trkpt lat="45.17308" lon="4.54121">
        <ele>1151.32</ele>
        <time>2016-09-04T09:45:00Z</time>
      </trkpt>
      <trkpt lat="45.17308" lon="4.54118">
        <ele>1151.32</ele>
        <time>2016-09-04T09:45:02Z</time>
      </trkpt>
      <trkpt lat="45.17316" lon="4.54092">
        <ele>1151.32</ele>
        <time>2016-09-04T09:45:17Z</time>
      </trkpt>
      <trkpt lat="45.17322" lon="4.54075">
        <ele>1152.28</ele>
        <time>2016-09-04T09:45:29Z</time>
      </trkpt>
      <trkpt lat="45.17329" lon="4.54061">
        <ele>1152.28</ele>
        <time>2016-09-04T09:45:43Z</time>
      </trkpt>
      <trkpt lat="45.17334" lon="4.54058">
        <ele>1153.72</ele>
        <time>2016-09-04T09:45:55Z</time>
      </trkpt>
      <trkpt lat="45.17343" lon="4.54049">
        <ele>1153.72</ele>
        <time>2016-09-04T09:46:09Z</time>
      </trkpt>
      <trkpt lat="45.17352" lon="4.54037">
        <ele>1153.24</ele>
        <time>2016-09-04T09:46:21Z</time>
      </trkpt>
      <trkpt lat="45.1736" lon="4.54033">
        <ele>1152.28</ele>
        <time>2016-09-04T09:46:33Z</time>
      </trkpt>
      <trkpt lat="45.17365" lon="4.54028">
        <ele>1149.87</ele>
        <time>2016-09-04T09:46:45Z</time>
      </trkpt>
      <trkpt lat="45.1737" lon="4.54028">
        <ele>1147.47</ele>
        <time>2016-09-04T09:47:02Z</time>
      </trkpt>
      <trkpt lat="45.17375" lon="4.54024">
        <ele>1144.59</ele>
        <time>2016-09-04T09:47:15Z</time>
      </trkpt>
      <trkpt lat="45.17378" lon="4.54021">
        <ele>1143.63</ele>
        <time>2016-09-04T09:47:27Z</time>
      </trkpt>
      <trkpt lat="45.17382" lon="4.54015">
        <ele>1141.7</ele>
        <time>2016-09-04T09:47:39Z</time>
      </trkpt>
      <trkpt lat="45.17382" lon="4.54013">
        <ele>1139.78</ele>
        <time>2016-09-04T09:47:50Z</time>
      </trkpt>
      <trkpt lat="45.17383" lon="4.54014">
        <ele>1140.26</ele>
        <time>2016-09-04T09:48:06Z</time>
      </trkpt>
      <trkpt lat="45.17384" lon="4.54014">
        <ele>1139.3</ele>
        <time>2016-09-04T09:48:24Z</time>
      </trkpt>
      <trkpt lat="45.17384" lon="4.54013">
        <ele>1136.9</ele>
        <time>2016-09-04T09:48:57Z</time>
      </trkpt>
      <trkpt lat="45.17386" lon="4.54013">
        <ele>1134.97</ele>
        <time>2016-09-04T09:49:19Z</time>
      </trkpt>
      <trkpt lat="45.17387" lon="4.54013">
        <ele>1134.01</ele>
        <time>2016-09-04T09:49:47Z</time>
      </trkpt>
      <trkpt lat="45.17387" lon="4.54014">
        <ele>1134.49</ele>
        <time>2016-09-04T09:50:11Z</time>
      </trkpt>
      <trkpt lat="45.17385" lon="4.54015">
        <ele>1134.49</ele>
        <time>2016-09-04T09:50:27Z</time>
      </trkpt>
      <trkpt lat="45.17385" lon="4.54017">
        <ele>1135.45</ele>
        <time>2016-09-04T09:50:55Z</time>
      </trkpt>
      <trkpt lat="45.17384" lon="4.54018">
        <ele>1135.45</ele>
        <time>2016-09-04T09:51:14Z</time>
      </trkpt>
      <trkpt lat="45.17382" lon="4.54018">
        <ele>1136.9</ele>
        <time>2016-09-04T09:51:44Z</time>
      </trkpt>
      <trkpt lat="45.17383" lon="4.54016">
        <ele>1137.38</ele>
        <time>2016-09-04T09:52:05Z</time>
      </trkpt>
      <trkpt lat="45.17383" lon="4.54016">
        <ele>1137.86</ele>
        <time>2016-09-04T09:52:27Z</time>
      </trkpt>
      <trkpt lat="45.17383" lon="4.54015">
        <ele>1137.86</ele>
        <time>2016-09-04T09:52:45Z</time>
      </trkpt>
      <trkpt lat="45.17383" lon="4.54015">
        <ele>1138.34</ele>
        <time>2016-09-04T09:53:05Z</time>
      </trkpt>
      <trkpt lat="45.17383" lon="4.54014">
        <ele>1138.34</ele>
        <time>2016-09-04T09:53:33Z</time>
      </trkpt>
      <trkpt lat="45.17383" lon="4.54014">
        <ele>1138.34</ele>
        <time>2016-09-04T09:54:01Z</time>
      </trkpt>
      <trkpt lat="45.17383" lon="4.54013">
        <ele>1138.34</ele>
        <time>2016-09-04T09:54:37Z</time>
      </trkpt>
      <trkpt lat="45.17382" lon="4.54012">
        <ele>1137.86</ele>
        <time>2016-09-04T09:54:57Z</time>
      </trkpt>
      <trkpt lat="45.17378" lon="4.54013">
        <ele>1137.86</ele>
        <time>2016-09-04T09:55:12Z</time>
      </trkpt>
      <trkpt lat="45.17372" lon="4.54024">
        <ele>1140.74</ele>
        <time>2016-09-04T09:55:26Z</time>
      </trkpt>
      <trkpt lat="45.17368" lon="4.54027">
        <ele>1142.66</ele>
        <time>2016-09-04T09:55:36Z</time>
      </trkpt>
      <trkpt lat="45.17368" lon="4.5403">
        <ele>1143.14</ele>
        <time>2016-09-04T09:55:38Z</time>
      </trkpt>
      <trkpt lat="45.1736" lon="4.54034">
        <ele>1146.51</ele>
        <time>2016-09-04T09:55:50Z</time>
      </trkpt>
      <trkpt lat="45.17353" lon="4.54047">
        <ele>1150.35</ele>
        <time>2016-09-04T09:56:03Z</time>
      </trkpt>
      <trkpt lat="45.17343" lon="4.54055">
        <ele>1154.68</ele>
        <time>2016-09-04T09:56:17Z</time>
      </trkpt>
      <trkpt lat="45.17334" lon="4.5406">
        <ele>1154.2</ele>
        <time>2016-09-04T09:56:31Z</time>
      </trkpt>
      <trkpt lat="45.17325" lon="4.54077">
        <ele>1155.16</ele>
        <time>2016-09-04T09:56:44Z</time>
      </trkpt>
      <trkpt lat="45.17321" lon="4.54086">
        <ele>1156.12</ele>
        <time>2016-09-04T09:56:50Z</time>
      </trkpt>
      <trkpt lat="45.17314" lon="4.54103">
        <ele>1156.12</ele>
        <time>2016-09-04T09:57:00Z</time>
      </trkpt>
      <trkpt lat="45.1731" lon="4.54118">
        <ele>1157.08</ele>
        <time>2016-09-04T09:57:14Z</time>
      </trkpt>
      <trkpt lat="45.17308" lon="4.54128">
        <ele>1157.08</ele>
        <time>2016-09-04T09:57:19Z</time>
      </trkpt>
      <trkpt lat="45.17301" lon="4.54146">
        <ele>1154.2</ele>
        <time>2016-09-04T09:57:32Z</time>
      </trkpt>
      <trkpt lat="45.17295" lon="4.54161">
        <ele>1151.8</ele>
        <time>2016-09-04T09:57:46Z</time>
      </trkpt>
      <trkpt lat="45.17295" lon="4.54163">
        <ele>1151.8</ele>
        <time>2016-09-04T09:57:48Z</time>
      </trkpt>
      <trkpt lat="45.17293" lon="4.54178">
        <ele>1149.39</ele>
        <time>2016-09-04T09:58:00Z</time>
      </trkpt>
      <trkpt lat="45.17292" lon="4.54185">
        <ele>1148.43</ele>
        <time>2016-09-04T09:58:05Z</time>
      </trkpt>
      <trkpt lat="45.17292" lon="4.54197">
        <ele>1146.99</ele>
        <time>2016-09-04T09:58:11Z</time>
      </trkpt>
      <trkpt lat="45.17284" lon="4.54208">
        <ele>1142.66</ele>
        <time>2016-09-04T09:58:26Z</time>
      </trkpt>
      <trkpt lat="45.17277" lon="4.54221">
        <ele>1141.22</ele>
        <time>2016-09-04T09:58:40Z</time>
      </trkpt>
      <trkpt lat="45.17274" lon="4.54226">
        <ele>1140.26</ele>
        <time>2016-09-04T09:58:45Z</time>
      </trkpt>
      <trkpt lat="45.17267" lon="4.54245">
        <ele>1135.45</ele>
        <time>2016-09-04T09:59:00Z</time>
      </trkpt>
      <trkpt lat="45.17257" lon="4.54252">
        <ele>1135.45</ele>
        <time>2016-09-04T09:59:15Z</time>
      </trkpt>
      <trkpt lat="45.17247" lon="4.54257">
        <ele>1131.61</ele>
        <time>2016-09-04T09:59:30Z</time>
      </trkpt>
      <trkpt lat="45.17246" lon="4.54257">
        <ele>1130.65</ele>
        <time>2016-09-04T09:59:44Z</time>
      </trkpt>
      <trkpt lat="45.17239" lon="4.54256">
        <ele>1129.69</ele>
        <time>2016-09-04T09:59:55Z</time>
      </trkpt>
      <trkpt lat="45.17232" lon="4.54254">
        <ele>1129.21</ele>
        <time>2016-09-04T10:00:10Z</time>
      </trkpt>
      <trkpt lat="45.17223" lon="4.54263">
        <ele>1127.28</ele>
        <time>2016-09-04T10:00:25Z</time>
      </trkpt>
      <trkpt lat="45.1722" lon="4.54269">
        <ele>1125.36</ele>
        <time>2016-09-04T10:00:37Z</time>
      </trkpt>
      <trkpt lat="45.17217" lon="4.54272">
        <ele>1123.92</ele>
        <time>2016-09-04T10:00:48Z</time>
      </trkpt>
      <trkpt lat="45.17214" lon="4.54284">
        <ele>1122.96</ele>
        <time>2016-09-04T10:00:59Z</time>
      </trkpt>
      <trkpt lat="45.17215" lon="4.54295">
        <ele>1125.84</ele>
        <time>2016-09-04T10:01:12Z</time>
      </trkpt>
      <trkpt lat="45.17226" lon="4.54312">
        <ele>1122.96</ele>
        <time>2016-09-04T10:01:29Z</time>
      </trkpt>
      <trkpt lat="45.17231" lon="4.5432">
        <ele>1122.48</ele>
        <time>2016-09-04T10:01:42Z</time>
      </trkpt>
      <trkpt lat="45.17236" lon="4.54331">
        <ele>1122.48</ele>
        <time>2016-09-04T10:01:54Z</time>
      </trkpt>
      <trkpt lat="45.17239" lon="4.5434">
        <ele>1122</ele>
        <time>2016-09-04T10:02:11Z</time>
      </trkpt>
      <trkpt lat="45.17244" lon="4.54349">
        <ele>1120.07</ele>
        <time>2016-09-04T10:02:29Z</time>
      </trkpt>
      <trkpt lat="45.1725" lon="4.54358">
        <ele>1117.19</ele>
        <time>2016-09-04T10:02:43Z</time>
      </trkpt>
      <trkpt lat="45.17254" lon="4.54366">
        <ele>1115.27</ele>
        <time>2016-09-04T10:02:56Z</time>
      </trkpt>
      <trkpt lat="45.17262" lon="4.54382">
        <ele>1112.38</ele>
        <time>2016-09-04T10:03:12Z</time>
      </trkpt>
      <trkpt lat="45.17269" lon="4.544">
        <ele>1109.02</ele>
        <time>2016-09-04T10:03:28Z</time>
      </trkpt>
      <trkpt lat="45.17272" lon="4.54408">
        <ele>1109.02</ele>
        <time>2016-09-04T10:03:42Z</time>
      </trkpt>
      <trkpt lat="45.17281" lon="4.54421">
        <ele>1108.06</ele>
        <time>2016-09-04T10:03:57Z</time>
      </trkpt>
      <trkpt lat="45.17287" lon="4.54433">
        <ele>1107.58</ele>
        <time>2016-09-04T10:04:13Z</time>
      </trkpt>
      <trkpt lat="45.17292" lon="4.54444">
        <ele>1108.06</ele>
        <time>2016-09-04T10:04:29Z</time>
      </trkpt>
      <trkpt lat="45.17292" lon="4.54445">
        <ele>1108.06</ele>
        <time>2016-09-04T10:04:30Z</time>
      </trkpt>
      <trkpt lat="45.173" lon="4.54462">
        <ele>1106.61</ele>
        <time>2016-09-04T10:04:42Z</time>
      </trkpt>
      <trkpt lat="45.17303" lon="4.54482">
        <ele>1104.69</ele>
        <time>2016-09-04T10:04:56Z</time>
      </trkpt>
      <trkpt lat="45.17304" lon="4.545">
        <ele>1104.69</ele>
        <time>2016-09-04T10:05:11Z</time>
      </trkpt>
      <trkpt lat="45.17305" lon="4.54508">
        <ele>1103.25</ele>
        <time>2016-09-04T10:05:28Z</time>
      </trkpt>
      <trkpt lat="45.17305" lon="4.54515">
        <ele>1101.81</ele>
        <time>2016-09-04T10:05:43Z</time>
      </trkpt>
      <trkpt lat="45.17307" lon="4.54521">
        <ele>1101.81</ele>
        <time>2016-09-04T10:05:54Z</time>
      </trkpt>
      <trkpt lat="45.17319" lon="4.54562">
        <ele>1097.96</ele>
        <time>2016-09-04T10:06:08Z</time>
      </trkpt>
      <trkpt lat="45.17324" lon="4.54586">
        <ele>1094.6</ele>
        <time>2016-09-04T10:06:25Z</time>
      </trkpt>
      <trkpt lat="45.17327" lon="4.54596">
        <ele>1092.68</ele>
        <time>2016-09-04T10:06:41Z</time>
      </trkpt>
      <trkpt lat="45.17329" lon="4.54603">
        <ele>1090.75</ele>
        <time>2016-09-04T10:06:56Z</time>
      </trkpt>
      <trkpt lat="45.17331" lon="4.54613">
        <ele>1090.75</ele>
        <time>2016-09-04T10:07:09Z</time>
      </trkpt>
      <trkpt lat="45.17346" lon="4.5466">
        <ele>1087.39</ele>
        <time>2016-09-04T10:07:23Z</time>
      </trkpt>
      <trkpt lat="45.1735" lon="4.54684">
        <ele>1084.5</ele>
        <time>2016-09-04T10:07:38Z</time>
      </trkpt>
      <trkpt lat="45.17353" lon="4.54702">
        <ele>1085.95</ele>
        <time>2016-09-04T10:07:50Z</time>
      </trkpt>
      <trkpt lat="45.17355" lon="4.54714">
        <ele>1085.47</ele>
        <time>2016-09-04T10:08:01Z</time>
      </trkpt>
      <trkpt lat="45.17363" lon="4.54737">
        <ele>1077.29</ele>
        <time>2016-09-04T10:08:11Z</time>
      </trkpt>
      <trkpt lat="45.17366" lon="4.54744">
        <ele>1072.97</ele>
        <time>2016-09-04T10:08:26Z</time>
      </trkpt>
      <trkpt lat="45.17372" lon="4.54757">
        <ele>1067.2</ele>
        <time>2016-09-04T10:08:43Z</time>
      </trkpt>
      <trkpt lat="45.17386" lon="4.54768">
        <ele>1064.8</ele>
        <time>2016-09-04T10:08:59Z</time>
      </trkpt>
      <trkpt lat="45.17395" lon="4.54781">
        <ele>1062.39</ele>
        <time>2016-09-04T10:09:12Z</time>
      </trkpt>
      <trkpt lat="45.17399" lon="4.54789">
        <ele>1060.95</ele>
        <time>2016-09-04T10:09:26Z</time>
      </trkpt>
      <trkpt lat="45.17409" lon="4.54811">
        <ele>1055.67</ele>
        <time>2016-09-04T10:09:42Z</time>
      </trkpt>
      <trkpt lat="45.17414" lon="4.54819">
        <ele>1054.7</ele>
        <time>2016-09-04T10:09:59Z</time>
      </trkpt>
      <trkpt lat="45.17416" lon="4.5482">
        <ele>1054.7</ele>
        <time>2016-09-04T10:10:02Z</time>
      </trkpt>
      <trkpt lat="45.17418" lon="4.54819">
        <ele>1054.7</ele>
        <time>2016-09-04T10:10:04Z</time>
      </trkpt>
      <trkpt lat="45.1743" lon="4.54824">
        <ele>1058.07</ele>
        <time>2016-09-04T10:10:19Z</time>
      </trkpt>
      <trkpt lat="45.17433" lon="4.54828">
        <ele>1060.47</ele>
        <time>2016-09-04T10:10:28Z</time>
      </trkpt>
      <trkpt lat="45.17438" lon="4.54831">
        <ele>1062.39</ele>
        <time>2016-09-04T10:10:34Z</time>
      </trkpt>
      <trkpt lat="45.17455" lon="4.54843">
        <ele>1065.76</ele>
        <time>2016-09-04T10:10:51Z</time>
      </trkpt>
      <trkpt lat="45.17472" lon="4.54864">
        <ele>1064.32</ele>
        <time>2016-09-04T10:11:09Z</time>
      </trkpt>
      <trkpt lat="45.17479" lon="4.54871">
        <ele>1062.39</ele>
        <time>2016-09-04T10:11:16Z</time>
      </trkpt>
      <trkpt lat="45.17497" lon="4.54892">
        <ele>1057.11</ele>
        <time>2016-09-04T10:11:30Z</time>
      </trkpt>
      <trkpt lat="45.17511" lon="4.54911">
        <ele>1053.26</ele>
        <time>2016-09-04T10:11:45Z</time>
      </trkpt>
      <trkpt lat="45.17527" lon="4.54928">
        <ele>1048.45</ele>
        <time>2016-09-04T10:11:59Z</time>
      </trkpt>
      <trkpt lat="45.17538" lon="4.54936">
        <ele>1048.45</ele>
        <time>2016-09-04T10:12:09Z</time>
      </trkpt>
      <trkpt lat="45.17542" lon="4.54938">
        <ele>1048.94</ele>
        <time>2016-09-04T10:12:13Z</time>
      </trkpt>
      <trkpt lat="45.17558" lon="4.54948">
        <ele>1053.74</ele>
        <time>2016-09-04T10:12:29Z</time>
      </trkpt>
      <trkpt lat="45.17573" lon="4.54955">
        <ele>1056.63</ele>
        <time>2016-09-04T10:12:44Z</time>
      </trkpt>
      <trkpt lat="45.1758" lon="4.54961">
        <ele>1057.59</ele>
        <time>2016-09-04T10:12:50Z</time>
      </trkpt>
      <trkpt lat="45.17593" lon="4.54971">
        <ele>1056.63</ele>
        <time>2016-09-04T10:13:02Z</time>
      </trkpt>
      <trkpt lat="45.17598" lon="4.54976">
        <ele>1056.63</ele>
        <time>2016-09-04T10:13:06Z</time>
      </trkpt>
      <trkpt lat="45.17618" lon="4.54994">
        <ele>1051.34</ele>
        <time>2016-09-04T10:13:22Z</time>
      </trkpt>
      <trkpt lat="45.1763" lon="4.55012">
        <ele>1043.65</ele>
        <time>2016-09-04T10:13:33Z</time>
      </trkpt>
      <trkpt lat="45.17641" lon="4.55028">
        <ele>1042.21</ele>
        <time>2016-09-04T10:13:45Z</time>
      </trkpt>
      <trkpt lat="45.17648" lon="4.55047">
        <ele>1041.73</ele>
        <time>2016-09-04T10:13:57Z</time>
      </trkpt>
      <trkpt lat="45.17649" lon="4.55059">
        <ele>1041.73</ele>
        <time>2016-09-04T10:14:05Z</time>
      </trkpt>
      <trkpt lat="45.17651" lon="4.55081">
        <ele>1041.73</ele>
        <time>2016-09-04T10:14:16Z</time>
      </trkpt>
      <trkpt lat="45.17651" lon="4.55088">
        <ele>1041.25</ele>
        <time>2016-09-04T10:14:19Z</time>
      </trkpt>
      <trkpt lat="45.17651" lon="4.55102">
        <ele>1040.76</ele>
        <time>2016-09-04T10:14:25Z</time>
      </trkpt>
      <trkpt lat="45.17649" lon="4.55106">
        <ele>1040.28</ele>
        <time>2016-09-04T10:14:27Z</time>
      </trkpt>
      <trkpt lat="45.17648" lon="4.55125">
        <ele>1037.4</ele>
        <time>2016-09-04T10:14:37Z</time>
      </trkpt>
      <trkpt lat="45.17648" lon="4.55141">
        <ele>1036.92</ele>
        <time>2016-09-04T10:14:46Z</time>
      </trkpt>
      <trkpt lat="45.17647" lon="4.55149">
        <ele>1037.4</ele>
        <time>2016-09-04T10:14:50Z</time>
      </trkpt>
      <trkpt lat="45.17647" lon="4.55158">
        <ele>1035.96</ele>
        <time>2016-09-04T10:14:55Z</time>
      </trkpt>
      <trkpt lat="45.17646" lon="4.55176">
        <ele>1035</ele>
        <time>2016-09-04T10:15:04Z</time>
      </trkpt>
      <trkpt lat="45.17642" lon="4.55209">
        <ele>1032.59</ele>
        <time>2016-09-04T10:15:22Z</time>
      </trkpt>
      <trkpt lat="45.17641" lon="4.55223">
        <ele>1031.63</ele>
        <time>2016-09-04T10:15:30Z</time>
      </trkpt>
      <trkpt lat="45.17639" lon="4.55229">
        <ele>1032.11</ele>
        <time>2016-09-04T10:15:34Z</time>
      </trkpt>
      <trkpt lat="45.17635" lon="4.55238">
        <ele>1032.59</ele>
        <time>2016-09-04T10:15:39Z</time>
      </trkpt>
      <trkpt lat="45.17634" lon="4.55241">
        <ele>1032.59</ele>
        <time>2016-09-04T10:15:41Z</time>
      </trkpt>
      <trkpt lat="45.17626" lon="4.55256">
        <ele>1033.07</ele>
        <time>2016-09-04T10:15:50Z</time>
      </trkpt>
      <trkpt lat="45.17626" lon="4.55266">
        <ele>1034.04</ele>
        <time>2016-09-04T10:15:56Z</time>
      </trkpt>
      <trkpt lat="45.17623" lon="4.55278">
        <ele>1034.52</ele>
        <time>2016-09-04T10:16:02Z</time>
      </trkpt>
      <trkpt lat="45.17615" lon="4.55298">
        <ele>1038.36</ele>
        <time>2016-09-04T10:16:14Z</time>
      </trkpt>
      <trkpt lat="45.17614" lon="4.55306">
        <ele>1039.8</ele>
        <time>2016-09-04T10:16:19Z</time>
      </trkpt>
      <trkpt lat="45.17613" lon="4.55316">
        <ele>1040.28</ele>
        <time>2016-09-04T10:16:25Z</time>
      </trkpt>
      <trkpt lat="45.17609" lon="4.55323">
        <ele>1041.25</ele>
        <time>2016-09-04T10:16:30Z</time>
      </trkpt>
      <trkpt lat="45.17611" lon="4.55338">
        <ele>1034.52</ele>
        <time>2016-09-04T10:16:35Z</time>
      </trkpt>
      <trkpt lat="45.17609" lon="4.55346">
        <ele>1032.11</ele>
        <time>2016-09-04T10:16:39Z</time>
      </trkpt>
      <trkpt lat="45.17607" lon="4.55356">
        <ele>1030.19</ele>
        <time>2016-09-04T10:16:46Z</time>
      </trkpt>
      <trkpt lat="45.176" lon="4.55378">
        <ele>1026.83</ele>
        <time>2016-09-04T10:16:58Z</time>
      </trkpt>
      <trkpt lat="45.17598" lon="4.55389">
        <ele>1027.31</ele>
        <time>2016-09-04T10:17:06Z</time>
      </trkpt>
      <trkpt lat="45.17596" lon="4.55398">
        <ele>1026.83</ele>
        <time>2016-09-04T10:17:11Z</time>
      </trkpt>
      <trkpt lat="45.17597" lon="4.55413">
        <ele>1025.38</ele>
        <time>2016-09-04T10:17:18Z</time>
      </trkpt>
      <trkpt lat="45.17596" lon="4.55424">
        <ele>1025.38</ele>
        <time>2016-09-04T10:17:24Z</time>
      </trkpt>
      <trkpt lat="45.17592" lon="4.55442">
        <ele>1025.38</ele>
        <time>2016-09-04T10:17:34Z</time>
      </trkpt>
      <trkpt lat="45.1759" lon="4.5545">
        <ele>1025.38</ele>
        <time>2016-09-04T10:17:39Z</time>
      </trkpt>
      <trkpt lat="45.17585" lon="4.55468">
        <ele>1026.83</ele>
        <time>2016-09-04T10:17:49Z</time>
      </trkpt>
      <trkpt lat="45.17585" lon="4.55476">
        <ele>1026.83</ele>
        <time>2016-09-04T10:17:53Z</time>
      </trkpt>
      <trkpt lat="45.17584" lon="4.55485">
        <ele>1027.31</ele>
        <time>2016-09-04T10:17:58Z</time>
      </trkpt>
      <trkpt lat="45.17583" lon="4.55509">
        <ele>1028.27</ele>
        <time>2016-09-04T10:18:14Z</time>
      </trkpt>
      <trkpt lat="45.17582" lon="4.55514">
        <ele>1028.75</ele>
        <time>2016-09-04T10:18:17Z</time>
      </trkpt>
      <trkpt lat="45.17582" lon="4.55524">
        <ele>1029.23</ele>
        <time>2016-09-04T10:18:23Z</time>
      </trkpt>
      <trkpt lat="45.17579" lon="4.55534">
        <ele>1030.67</ele>
        <time>2016-09-04T10:18:29Z</time>
      </trkpt>
      <trkpt lat="45.17579" lon="4.55542">
        <ele>1031.15</ele>
        <time>2016-09-04T10:18:34Z</time>
      </trkpt>
      <trkpt lat="45.17575" lon="4.55553">
        <ele>1032.59</ele>
        <time>2016-09-04T10:18:42Z</time>
      </trkpt>
      <trkpt lat="45.17571" lon="4.55567">
        <ele>1035.48</ele>
        <time>2016-09-04T10:18:53Z</time>
      </trkpt>
      <trkpt lat="45.17563" lon="4.55583">
        <ele>1036.92</ele>
        <time>2016-09-04T10:19:06Z</time>
      </trkpt>
      <trkpt lat="45.17556" lon="4.55591">
        <ele>1037.4</ele>
        <time>2016-09-04T10:19:12Z</time>
      </trkpt>
      <trkpt lat="45.17553" lon="4.55609">
        <ele>1040.28</ele>
        <time>2016-09-04T10:19:25Z</time>
      </trkpt>
      <trkpt lat="45.17555" lon="4.55626">
        <ele>1040.76</ele>
        <time>2016-09-04T10:19:38Z</time>
      </trkpt>
      <trkpt lat="45.17558" lon="4.55643">
        <ele>1043.17</ele>
        <time>2016-09-04T10:19:51Z</time>
      </trkpt>
      <trkpt lat="45.17561" lon="4.55652">
        <ele>1046.53</ele>
        <time>2016-09-04T10:20:07Z</time>
      </trkpt>
      <trkpt lat="45.17563" lon="4.55662">
        <ele>1048.94</ele>
        <time>2016-09-04T10:20:22Z</time>
      </trkpt>
      <trkpt lat="45.17565" lon="4.55669">
        <ele>1050.38</ele>
        <time>2016-09-04T10:20:34Z</time>
      </trkpt>
      <trkpt lat="45.17568" lon="4.55674">
        <ele>1050.38</ele>
        <time>2016-09-04T10:20:49Z</time>
      </trkpt>
      <trkpt lat="45.1758" lon="4.55682">
        <ele>1049.9</ele>
        <time>2016-09-04T10:21:05Z</time>
      </trkpt>
      <trkpt lat="45.17593" lon="4.55688">
        <ele>1053.26</ele>
        <time>2016-09-04T10:21:20Z</time>
      </trkpt>
      <trkpt lat="45.17605" lon="4.55696">
        <ele>1058.07</ele>
        <time>2016-09-04T10:21:34Z</time>
      </trkpt>
      <trkpt lat="45.17612" lon="4.55707">
        <ele>1058.55</ele>
        <time>2016-09-04T10:21:44Z</time>
      </trkpt>
      <trkpt lat="45.17626" lon="4.55722">
        <ele>1059.03</ele>
        <time>2016-09-04T10:21:59Z</time>
      </trkpt>
      <trkpt lat="45.17631" lon="4.55727">
        <ele>1059.99</ele>
        <time>2016-09-04T10:22:06Z</time>
      </trkpt>
      <trkpt lat="45.17636" lon="4.55738">
        <ele>1061.43</ele>
        <time>2016-09-04T10:22:17Z</time>
      </trkpt>
      <trkpt lat="45.17647" lon="4.55758">
        <ele>1059.99</ele>
        <time>2016-09-04T10:22:30Z</time>
      </trkpt>
      <trkpt lat="45.17664" lon="4.55787">
        <ele>1056.15</ele>
        <time>2016-09-04T10:22:44Z</time>
      </trkpt>
      <trkpt lat="45.17672" lon="4.55806">
        <ele>1054.22</ele>
        <time>2016-09-04T10:22:57Z</time>
      </trkpt>
      <trkpt lat="45.17676" lon="4.55817">
        <ele>1052.3</ele>
        <time>2016-09-04T10:23:11Z</time>
      </trkpt>
      <trkpt lat="45.17683" lon="4.55828">
        <ele>1049.9</ele>
        <time>2016-09-04T10:23:24Z</time>
      </trkpt>
      <trkpt lat="45.17689" lon="4.55839">
        <ele>1051.34</ele>
        <time>2016-09-04T10:23:37Z</time>
      </trkpt>
      <trkpt lat="45.17697" lon="4.55851">
        <ele>1052.3</ele>
        <time>2016-09-04T10:23:50Z</time>
      </trkpt>
      <trkpt lat="45.17702" lon="4.55861">
        <ele>1052.78</ele>
        <time>2016-09-04T10:24:01Z</time>
      </trkpt>
      <trkpt lat="45.17712" lon="4.55878">
        <ele>1050.86</ele>
        <time>2016-09-04T10:24:14Z</time>
      </trkpt>
      <trkpt lat="45.17717" lon="4.55892">
        <ele>1051.34</ele>
        <time>2016-09-04T10:24:31Z</time>
      </trkpt>
      <trkpt lat="45.17729" lon="4.55918">
        <ele>1050.38</ele>
        <time>2016-09-04T10:24:45Z</time>
      </trkpt>
      <trkpt lat="45.17736" lon="4.55937">
        <ele>1049.9</ele>
        <time>2016-09-04T10:25:00Z</time>
      </trkpt>
      <trkpt lat="45.17736" lon="4.55952">
        <ele>1050.38</ele>
        <time>2016-09-04T10:25:13Z</time>
      </trkpt>
      <trkpt lat="45.17736" lon="4.55967">
        <ele>1049.9</ele>
        <time>2016-09-04T10:25:25Z</time>
      </trkpt>
      <trkpt lat="45.17738" lon="4.55975">
        <ele>1048.45</ele>
        <time>2016-09-04T10:25:38Z</time>
      </trkpt>
      <trkpt lat="45.17745" lon="4.5599">
        <ele>1043.65</ele>
        <time>2016-09-04T10:25:53Z</time>
      </trkpt>
      <trkpt lat="45.17754" lon="4.55987">
        <ele>1042.21</ele>
        <time>2016-09-04T10:26:07Z</time>
      </trkpt>
      <trkpt lat="45.17759" lon="4.55989">
        <ele>1042.21</ele>
        <time>2016-09-04T10:26:24Z</time>
      </trkpt>
      <trkpt lat="45.17766" lon="4.55985">
        <ele>1042.69</ele>
        <time>2016-09-04T10:26:39Z</time>
      </trkpt>
      <trkpt lat="45.1778" lon="4.55984">
        <ele>1046.05</ele>
        <time>2016-09-04T10:26:56Z</time>
      </trkpt>
      <trkpt lat="45.17797" lon="4.55989">
        <ele>1047.01</ele>
        <time>2016-09-04T10:27:09Z</time>
      </trkpt>
      <trkpt lat="45.17808" lon="4.56001">
        <ele>1047.01</ele>
        <time>2016-09-04T10:27:23Z</time>
      </trkpt>
      <trkpt lat="45.17826" lon="4.56011">
        <ele>1047.49</ele>
        <time>2016-09-04T10:27:38Z</time>
      </trkpt>
      <trkpt lat="45.17829" lon="4.56024">
        <ele>1047.01</ele>
        <time>2016-09-04T10:27:51Z</time>
      </trkpt>
      <trkpt lat="45.17844" lon="4.5605">
        <ele>1043.65</ele>
        <time>2016-09-04T10:28:06Z</time>
      </trkpt>
      <trkpt lat="45.17853" lon="4.56081">
        <ele>1036.92</ele>
        <time>2016-09-04T10:28:21Z</time>
      </trkpt>
      <trkpt lat="45.17857" lon="4.56086">
        <ele>1037.4</ele>
        <time>2016-09-04T10:28:26Z</time>
      </trkpt>
      <trkpt lat="45.17867" lon="4.56104">
        <ele>1037.4</ele>
        <time>2016-09-04T10:28:41Z</time>
      </trkpt>
      <trkpt lat="45.17874" lon="4.56122">
        <ele>1042.69</ele>
        <time>2016-09-04T10:28:56Z</time>
      </trkpt>
      <trkpt lat="45.17882" lon="4.56145">
        <ele>1047.97</ele>
        <time>2016-09-04T10:29:12Z</time>
      </trkpt>
      <trkpt lat="45.17882" lon="4.56165">
        <ele>1056.63</ele>
        <time>2016-09-04T10:29:27Z</time>
      </trkpt>
      <trkpt lat="45.17885" lon="4.56176">
        <ele>1061.43</ele>
        <time>2016-09-04T10:29:39Z</time>
      </trkpt>
      <trkpt lat="45.17896" lon="4.56204">
        <ele>1065.76</ele>
        <time>2016-09-04T10:29:56Z</time>
      </trkpt>
      <trkpt lat="45.17908" lon="4.56228">
        <ele>1065.28</ele>
        <time>2016-09-04T10:30:10Z</time>
      </trkpt>
      <trkpt lat="45.17908" lon="4.56229">
        <ele>1064.8</ele>
        <time>2016-09-04T10:30:12Z</time>
      </trkpt>
      <trkpt lat="45.17913" lon="4.56245">
        <ele>1061.43</ele>
        <time>2016-09-04T10:30:28Z</time>
      </trkpt>
      <trkpt lat="45.17916" lon="4.56258">
        <ele>1061.43</ele>
        <time>2016-09-04T10:30:44Z</time>
      </trkpt>
      <trkpt lat="45.17918" lon="4.56262">
        <ele>1061.91</ele>
        <time>2016-09-04T10:30:47Z</time>
      </trkpt>
      <trkpt lat="45.17934" lon="4.56286">
        <ele>1059.03</ele>
        <time>2016-09-04T10:31:02Z</time>
      </trkpt>
      <trkpt lat="45.17943" lon="4.56308">
        <ele>1059.03</ele>
        <time>2016-09-04T10:31:18Z</time>
      </trkpt>
      <trkpt lat="45.17946" lon="4.56333">
        <ele>1052.78</ele>
        <time>2016-09-04T10:31:36Z</time>
      </trkpt>
      <trkpt lat="45.17942" lon="4.5634">
        <ele>1050.38</ele>
        <time>2016-09-04T10:31:48Z</time>
      </trkpt>
      <trkpt lat="45.17952" lon="4.56364">
        <ele>1043.65</ele>
        <time>2016-09-04T10:32:02Z</time>
      </trkpt>
      <trkpt lat="45.17961" lon="4.56376">
        <ele>1042.69</ele>
        <time>2016-09-04T10:32:15Z</time>
      </trkpt>
      <trkpt lat="45.17968" lon="4.56383">
        <ele>1041.25</ele>
        <time>2016-09-04T10:32:23Z</time>
      </trkpt>
      <trkpt lat="45.17978" lon="4.56402">
        <ele>1037.88</ele>
        <time>2016-09-04T10:32:39Z</time>
      </trkpt>
      <trkpt lat="45.17987" lon="4.56415">
        <ele>1034.52</ele>
        <time>2016-09-04T10:32:53Z</time>
      </trkpt>
      <trkpt lat="45.17995" lon="4.56422">
        <ele>1034.04</ele>
        <time>2016-09-04T10:33:06Z</time>
      </trkpt>
      <trkpt lat="45.18002" lon="4.5644">
        <ele>1031.15</ele>
        <time>2016-09-04T10:33:21Z</time>
      </trkpt>
      <trkpt lat="45.18017" lon="4.56467">
        <ele>1025.38</ele>
        <time>2016-09-04T10:33:36Z</time>
      </trkpt>
      <trkpt lat="45.18026" lon="4.5648">
        <ele>1020.58</ele>
        <time>2016-09-04T10:33:50Z</time>
      </trkpt>
      <trkpt lat="45.18031" lon="4.56493">
        <ele>1013.85</ele>
        <time>2016-09-04T10:34:05Z</time>
      </trkpt>
      <trkpt lat="45.18031" lon="4.56497">
        <ele>1010.96</ele>
        <time>2016-09-04T10:34:16Z</time>
      </trkpt>
      <trkpt lat="45.18035" lon="4.56516">
        <ele>1006.16</ele>
        <time>2016-09-04T10:34:32Z</time>
      </trkpt>
      <trkpt lat="45.18036" lon="4.56532">
        <ele>1005.68</ele>
        <time>2016-09-04T10:34:44Z</time>
      </trkpt>
      <trkpt lat="45.18037" lon="4.56554">
        <ele>1004.72</ele>
        <time>2016-09-04T10:34:58Z</time>
      </trkpt>
      <trkpt lat="45.18038" lon="4.56565">
        <ele>1003.75</ele>
        <time>2016-09-04T10:35:17Z</time>
      </trkpt>
      <trkpt lat="45.18049" lon="4.56578">
        <ele>1003.75</ele>
        <time>2016-09-04T10:35:31Z</time>
      </trkpt>
      <trkpt lat="45.18056" lon="4.56589">
        <ele>1008.08</ele>
        <time>2016-09-04T10:35:46Z</time>
      </trkpt>
      <trkpt lat="45.18068" lon="4.56605">
        <ele>1007.12</ele>
        <time>2016-09-04T10:36:02Z</time>
      </trkpt>
      <trkpt lat="45.18074" lon="4.5661">
        <ele>1003.75</ele>
        <time>2016-09-04T10:36:20Z</time>
      </trkpt>
      <trkpt lat="45.18089" lon="4.56628">
        <ele>998.95</ele>
        <time>2016-09-04T10:36:36Z</time>
      </trkpt>
      <trkpt lat="45.18093" lon="4.56639">
        <ele>996.06</ele>
        <time>2016-09-04T10:36:51Z</time>
      </trkpt>
      <trkpt lat="45.18096" lon="4.56654">
        <ele>996.54</ele>
        <time>2016-09-04T10:37:05Z</time>
      </trkpt>
      <trkpt lat="45.18113" lon="4.56677">
        <ele>992.22</ele>
        <time>2016-09-04T10:37:24Z</time>
      </trkpt>
      <trkpt lat="45.18117" lon="4.56686">
        <ele>989.33</ele>
        <time>2016-09-04T10:37:37Z</time>
      </trkpt>
      <trkpt lat="45.18128" lon="4.56696">
        <ele>980.68</ele>
        <time>2016-09-04T10:37:52Z</time>
      </trkpt>
      <trkpt lat="45.18138" lon="4.56708">
        <ele>975.39</ele>
        <time>2016-09-04T10:38:07Z</time>
      </trkpt>
      <trkpt lat="45.18155" lon="4.56714">
        <ele>972.51</ele>
        <time>2016-09-04T10:38:23Z</time>
      </trkpt>
      <trkpt lat="45.18162" lon="4.56716">
        <ele>970.59</ele>
        <time>2016-09-04T10:38:27Z</time>
      </trkpt>
      <trkpt lat="45.18177" lon="4.56709">
        <ele>955.69</ele>
        <time>2016-09-04T10:38:43Z</time>
      </trkpt>
      <trkpt lat="45.18179" lon="4.5672">
        <ele>942.23</ele>
        <time>2016-09-04T10:38:55Z</time>
      </trkpt>
      <trkpt lat="45.18177" lon="4.56721">
        <ele>940.31</ele>
        <time>2016-09-04T10:38:56Z</time>
      </trkpt>
      <trkpt lat="45.18168" lon="4.56728">
        <ele>932.62</ele>
        <time>2016-09-04T10:39:04Z</time>
      </trkpt>
      <trkpt lat="45.18163" lon="4.56733">
        <ele>931.17</ele>
        <time>2016-09-04T10:39:11Z</time>
      </trkpt>
      <trkpt lat="45.18159" lon="4.56735">
        <ele>932.14</ele>
        <time>2016-09-04T10:39:24Z</time>
      </trkpt>
      <trkpt lat="45.18157" lon="4.56735">
        <ele>932.62</ele>
        <time>2016-09-04T10:39:38Z</time>
      </trkpt>
      <trkpt lat="45.18158" lon="4.56737">
        <ele>933.1</ele>
        <time>2016-09-04T10:39:56Z</time>
      </trkpt>
      <trkpt lat="45.18161" lon="4.56739">
        <ele>935.5</ele>
        <time>2016-09-04T10:40:25Z</time>
      </trkpt>
      <trkpt lat="45.1816" lon="4.5674">
        <ele>936.46</ele>
        <time>2016-09-04T10:40:59Z</time>
      </trkpt>
      <trkpt lat="45.1816" lon="4.5674">
        <ele>937.42</ele>
        <time>2016-09-04T10:41:39Z</time>
      </trkpt>
      <trkpt lat="45.18161" lon="4.5674">
        <ele>938.38</ele>
        <time>2016-09-04T10:42:24Z</time>
      </trkpt>
      <trkpt lat="45.18161" lon="4.56741">
        <ele>939.35</ele>
        <time>2016-09-04T10:42:58Z</time>
      </trkpt>
      <trkpt lat="45.18162" lon="4.56741">
        <ele>939.35</ele>
        <time>2016-09-04T10:43:37Z</time>
      </trkpt>
      <trkpt lat="45.18161" lon="4.56742">
        <ele>940.31</ele>
        <time>2016-09-04T10:44:16Z</time>
      </trkpt>
      <trkpt lat="45.18162" lon="4.56741">
        <ele>939.83</ele>
        <time>2016-09-04T10:44:48Z</time>
      </trkpt>
      <trkpt lat="45.18162" lon="4.5674">
        <ele>939.83</ele>
        <time>2016-09-04T10:45:19Z</time>
      </trkpt>
      <trkpt lat="45.18162" lon="4.5674">
        <ele>940.79</ele>
        <time>2016-09-04T10:45:57Z</time>
      </trkpt>
      <trkpt lat="45.18162" lon="4.56739">
        <ele>941.75</ele>
        <time>2016-09-04T10:46:30Z</time>
      </trkpt>
      <trkpt lat="45.18162" lon="4.56739">
        <ele>942.71</ele>
        <time>2016-09-04T10:47:07Z</time>
      </trkpt>
      <trkpt lat="45.18163" lon="4.5674">
        <ele>943.19</ele>
        <time>2016-09-04T10:47:41Z</time>
      </trkpt>
      <trkpt lat="45.18163" lon="4.5674">
        <ele>943.67</ele>
        <time>2016-09-04T10:48:15Z</time>
      </trkpt>
      <trkpt lat="45.18163" lon="4.5674">
        <ele>943.67</ele>
        <time>2016-09-04T10:48:46Z</time>
      </trkpt>
      <trkpt lat="45.18163" lon="4.5674">
        <ele>944.15</ele>
        <time>2016-09-04T10:49:26Z</time>
      </trkpt>
      <trkpt lat="45.18163" lon="4.5674">
        <ele>944.15</ele>
        <time>2016-09-04T10:50:09Z</time>
      </trkpt>
      <trkpt lat="45.18163" lon="4.56739">
        <ele>944.15</ele>
        <time>2016-09-04T10:50:46Z</time>
      </trkpt>
      <trkpt lat="45.18163" lon="4.56739">
        <ele>944.63</ele>
        <time>2016-09-04T10:51:30Z</time>
      </trkpt>
      <trkpt lat="45.18162" lon="4.5674">
        <ele>945.11</ele>
        <time>2016-09-04T10:52:12Z</time>
      </trkpt>
      <trkpt lat="45.18163" lon="4.5674">
        <ele>945.59</ele>
        <time>2016-09-04T10:52:45Z</time>
      </trkpt>
      <trkpt lat="45.18163" lon="4.5674">
        <ele>946.07</ele>
        <time>2016-09-04T10:53:17Z</time>
      </trkpt>
      <trkpt lat="45.18164" lon="4.5674">
        <ele>946.07</ele>
        <time>2016-09-04T10:53:46Z</time>
      </trkpt>
      <trkpt lat="45.18164" lon="4.56739">
        <ele>946.56</ele>
        <time>2016-09-04T10:54:18Z</time>
      </trkpt>
      <trkpt lat="45.18164" lon="4.5674">
        <ele>945.59</ele>
        <time>2016-09-04T10:54:54Z</time>
      </trkpt>
      <trkpt lat="45.18164" lon="4.56742">
        <ele>945.11</ele>
        <time>2016-09-04T10:55:28Z</time>
      </trkpt>
      <trkpt lat="45.18163" lon="4.56742">
        <ele>945.59</ele>
        <time>2016-09-04T10:56:02Z</time>
      </trkpt>
      <trkpt lat="45.18163" lon="4.56741">
        <ele>946.07</ele>
        <time>2016-09-04T10:56:45Z</time>
      </trkpt>
      <trkpt lat="45.18164" lon="4.56741">
        <ele>946.56</ele>
        <time>2016-09-04T10:57:20Z</time>
      </trkpt>
      <trkpt lat="45.18164" lon="4.56741">
        <ele>947.04</ele>
        <time>2016-09-04T10:58:01Z</time>
      </trkpt>
      <trkpt lat="45.18164" lon="4.56741">
        <ele>947.04</ele>
        <time>2016-09-04T10:58:29Z</time>
      </trkpt>
      <trkpt lat="45.18164" lon="4.56741">
        <ele>947.04</ele>
        <time>2016-09-04T10:59:08Z</time>
      </trkpt>
      <trkpt lat="45.18164" lon="4.5674">
        <ele>947.04</ele>
        <time>2016-09-04T10:59:40Z</time>
      </trkpt>
      <trkpt lat="45.18164" lon="4.56741">
        <ele>947.04</ele>
        <time>2016-09-04T11:00:18Z</time>
      </trkpt>
      <trkpt lat="45.18164" lon="4.56742">
        <ele>947.04</ele>
        <time>2016-09-04T11:00:53Z</time>
      </trkpt>
      <trkpt lat="45.18164" lon="4.56741">
        <ele>947.04</ele>
        <time>2016-09-04T11:01:32Z</time>
      </trkpt>
      <trkpt lat="45.18164" lon="4.56741">
        <ele>947.04</ele>
        <time>2016-09-04T11:02:09Z</time>
      </trkpt>
      <trkpt lat="45.18164" lon="4.56741">
        <ele>947.04</ele>
        <time>2016-09-04T11:02:48Z</time>
      </trkpt>
      <trkpt lat="45.18164" lon="4.56741">
        <ele>947.04</ele>
        <time>2016-09-04T11:03:30Z</time>
      </trkpt>
      <trkpt lat="45.18164" lon="4.56741">
        <ele>947.52</ele>
        <time>2016-09-04T11:04:10Z</time>
      </trkpt>
      <trkpt lat="45.18164" lon="4.56741">
        <ele>947.52</ele>
        <time>2016-09-04T11:04:48Z</time>
      </trkpt>
      <trkpt lat="45.18164" lon="4.56742">
        <ele>946.56</ele>
        <time>2016-09-04T11:05:26Z</time>
      </trkpt>
      <trkpt lat="45.18164" lon="4.56743">
        <ele>946.07</ele>
        <time>2016-09-04T11:06:02Z</time>
      </trkpt>
      <trkpt lat="45.18164" lon="4.56741">
        <ele>946.07</ele>
        <time>2016-09-04T11:06:34Z</time>
      </trkpt>
      <trkpt lat="45.18164" lon="4.56741">
        <ele>945.59</ele>
        <time>2016-09-04T11:07:10Z</time>
      </trkpt>
      <trkpt lat="45.18164" lon="4.5674">
        <ele>945.11</ele>
        <time>2016-09-04T11:07:48Z</time>
      </trkpt>
      <trkpt lat="45.18164" lon="4.5674">
        <ele>945.11</ele>
        <time>2016-09-04T11:08:23Z</time>
      </trkpt>
      <trkpt lat="45.18164" lon="4.5674">
        <ele>944.63</ele>
        <time>2016-09-04T11:08:53Z</time>
      </trkpt>
      <trkpt lat="45.18165" lon="4.5674">
        <ele>945.11</ele>
        <time>2016-09-04T11:09:35Z</time>
      </trkpt>
      <trkpt lat="45.18165" lon="4.5674">
        <ele>945.11</ele>
        <time>2016-09-04T11:10:11Z</time>
      </trkpt>
      <trkpt lat="45.18164" lon="4.5674">
        <ele>946.07</ele>
        <time>2016-09-04T11:10:51Z</time>
      </trkpt>
      <trkpt lat="45.18164" lon="4.5674">
        <ele>946.56</ele>
        <time>2016-09-04T11:11:32Z</time>
      </trkpt>
      <trkpt lat="45.18164" lon="4.5674">
        <ele>947.04</ele>
        <time>2016-09-04T11:12:04Z</time>
      </trkpt>
      <trkpt lat="45.18163" lon="4.56739">
        <ele>947.52</ele>
        <time>2016-09-04T11:12:41Z</time>
      </trkpt>
      <trkpt lat="45.18162" lon="4.56739">
        <ele>948</ele>
        <time>2016-09-04T11:13:22Z</time>
      </trkpt>
      <trkpt lat="45.18162" lon="4.5674">
        <ele>948.48</ele>
        <time>2016-09-04T11:13:59Z</time>
      </trkpt>
      <trkpt lat="45.18162" lon="4.5674">
        <ele>948</ele>
        <time>2016-09-04T11:14:29Z</time>
      </trkpt>
      <trkpt lat="45.18162" lon="4.56741">
        <ele>948.48</ele>
        <time>2016-09-04T11:15:00Z</time>
      </trkpt>
      <trkpt lat="45.18162" lon="4.56741">
        <ele>948</ele>
        <time>2016-09-04T11:15:29Z</time>
      </trkpt>
      <trkpt lat="45.18161" lon="4.5674">
        <ele>948</ele>
        <time>2016-09-04T11:15:54Z</time>
      </trkpt>
      <trkpt lat="45.18161" lon="4.56741">
        <ele>948.48</ele>
        <time>2016-09-04T11:16:28Z</time>
      </trkpt>
      <trkpt lat="45.18162" lon="4.56741">
        <ele>948.48</ele>
        <time>2016-09-04T11:17:02Z</time>
      </trkpt>
      <trkpt lat="45.18163" lon="4.56741">
        <ele>948.48</ele>
        <time>2016-09-04T11:17:32Z</time>
      </trkpt>
      <trkpt lat="45.18163" lon="4.56741">
        <ele>947.52</ele>
        <time>2016-09-04T11:18:05Z</time>
      </trkpt>
      <trkpt lat="45.18163" lon="4.56741">
        <ele>947.52</ele>
        <time>2016-09-04T11:18:43Z</time>
      </trkpt>
      <trkpt lat="45.18163" lon="4.56742">
        <ele>948</ele>
        <time>2016-09-04T11:19:23Z</time>
      </trkpt>
      <trkpt lat="45.18163" lon="4.56741">
        <ele>948</ele>
        <time>2016-09-04T11:19:56Z</time>
      </trkpt>
      <trkpt lat="45.18163" lon="4.56739">
        <ele>948</ele>
        <time>2016-09-04T11:20:32Z</time>
      </trkpt>
      <trkpt lat="45.18163" lon="4.56739">
        <ele>947.52</ele>
        <time>2016-09-04T11:21:07Z</time>
      </trkpt>
      <trkpt lat="45.18163" lon="4.56738">
        <ele>947.52</ele>
        <time>2016-09-04T11:21:41Z</time>
      </trkpt>
      <trkpt lat="45.18163" lon="4.56739">
        <ele>945.59</ele>
        <time>2016-09-04T11:22:24Z</time>
      </trkpt>
      <trkpt lat="45.18164" lon="4.56739">
        <ele>944.63</ele>
        <time>2016-09-04T11:22:54Z</time>
      </trkpt>
      <trkpt lat="45.18164" lon="4.56739">
        <ele>943.67</ele>
        <time>2016-09-04T11:23:29Z</time>
      </trkpt>
      <trkpt lat="45.18163" lon="4.56738">
        <ele>943.19</ele>
        <time>2016-09-04T11:24:01Z</time>
      </trkpt>
      <trkpt lat="45.18162" lon="4.5674">
        <ele>942.71</ele>
        <time>2016-09-04T11:24:46Z</time>
      </trkpt>
      <trkpt lat="45.18162" lon="4.56741">
        <ele>942.71</ele>
        <time>2016-09-04T11:25:30Z</time>
      </trkpt>
      <trkpt lat="45.18162" lon="4.56742">
        <ele>943.19</ele>
        <time>2016-09-04T11:26:07Z</time>
      </trkpt>
      <trkpt lat="45.18161" lon="4.56742">
        <ele>943.19</ele>
        <time>2016-09-04T11:26:50Z</time>
      </trkpt>
      <trkpt lat="45.18161" lon="4.56743">
        <ele>943.67</ele>
        <time>2016-09-04T11:27:33Z</time>
      </trkpt>
      <trkpt lat="45.18161" lon="4.56744">
        <ele>944.63</ele>
        <time>2016-09-04T11:28:14Z</time>
      </trkpt>
      <trkpt lat="45.18162" lon="4.56745">
        <ele>944.63</ele>
        <time>2016-09-04T11:28:48Z</time>
      </trkpt>
      <trkpt lat="45.18162" lon="4.56745">
        <ele>944.63</ele>
        <time>2016-09-04T11:29:18Z</time>
      </trkpt>
      <trkpt lat="45.18162" lon="4.56744">
        <ele>944.15</ele>
        <time>2016-09-04T11:29:44Z</time>
      </trkpt>
      <trkpt lat="45.18163" lon="4.56745">
        <ele>943.67</ele>
        <time>2016-09-04T11:30:13Z</time>
      </trkpt>
      <trkpt lat="45.18162" lon="4.56746">
        <ele>942.71</ele>
        <time>2016-09-04T11:30:46Z</time>
      </trkpt>
      <trkpt lat="45.18163" lon="4.56745">
        <ele>942.23</ele>
        <time>2016-09-04T11:31:26Z</time>
      </trkpt>
      <trkpt lat="45.18163" lon="4.56745">
        <ele>942.23</ele>
        <time>2016-09-04T11:32:05Z</time>
      </trkpt>
      <trkpt lat="45.18162" lon="4.56746">
        <ele>941.75</ele>
        <time>2016-09-04T11:32:47Z</time>
      </trkpt>
      <trkpt lat="45.18161" lon="4.56744">
        <ele>941.75</ele>
        <time>2016-09-04T11:33:17Z</time>
      </trkpt>
      <trkpt lat="45.1816" lon="4.56743">
        <ele>942.23</ele>
        <time>2016-09-04T11:34:03Z</time>
      </trkpt>
      <trkpt lat="45.18161" lon="4.56742">
        <ele>942.71</ele>
        <time>2016-09-04T11:34:40Z</time>
      </trkpt>
      <trkpt lat="45.1816" lon="4.56742">
        <ele>942.71</ele>
        <time>2016-09-04T11:35:15Z</time>
      </trkpt>
      <trkpt lat="45.1816" lon="4.56743">
        <ele>941.75</ele>
        <time>2016-09-04T11:35:45Z</time>
      </trkpt>
      <trkpt lat="45.18161" lon="4.56743">
        <ele>941.75</ele>
        <time>2016-09-04T11:36:23Z</time>
      </trkpt>
      <trkpt lat="45.18161" lon="4.56743">
        <ele>941.75</ele>
        <time>2016-09-04T11:36:59Z</time>
      </trkpt>
      <trkpt lat="45.18161" lon="4.56743">
        <ele>941.27</ele>
        <time>2016-09-04T11:37:32Z</time>
      </trkpt>
      <trkpt lat="45.18162" lon="4.56741">
        <ele>942.23</ele>
        <time>2016-09-04T11:37:52Z</time>
      </trkpt>
      <trkpt lat="45.18161" lon="4.56739">
        <ele>941.27</ele>
        <time>2016-09-04T11:38:16Z</time>
      </trkpt>
      <trkpt lat="45.1816" lon="4.56739">
        <ele>940.31</ele>
        <time>2016-09-04T11:38:36Z</time>
      </trkpt>
      <trkpt lat="45.18161" lon="4.56735">
        <ele>940.79</ele>
        <time>2016-09-04T11:38:50Z</time>
      </trkpt>
      <trkpt lat="45.1816" lon="4.56733">
        <ele>940.79</ele>
        <time>2016-09-04T11:39:01Z</time>
      </trkpt>
      <trkpt lat="45.1816" lon="4.56733">
        <ele>940.79</ele>
        <time>2016-09-04T11:39:15Z</time>
      </trkpt>
      <trkpt lat="45.18161" lon="4.56733">
        <ele>940.79</ele>
        <time>2016-09-04T11:39:30Z</time>
      </trkpt>
      <trkpt lat="45.1816" lon="4.56732">
        <ele>940.79</ele>
        <time>2016-09-04T11:39:46Z</time>
      </trkpt>
      <trkpt lat="45.18159" lon="4.56734">
        <ele>941.75</ele>
        <time>2016-09-04T11:40:03Z</time>
      </trkpt>
      <trkpt lat="45.18158" lon="4.56737">
        <ele>941.75</ele>
        <time>2016-09-04T11:40:20Z</time>
      </trkpt>
      <trkpt lat="45.18151" lon="4.56745">
        <ele>942.71</ele>
        <time>2016-09-04T11:40:35Z</time>
      </trkpt>
      <trkpt lat="45.18145" lon="4.56749">
        <ele>944.15</ele>
        <time>2016-09-04T11:40:48Z</time>
      </trkpt>
      <trkpt lat="45.18131" lon="4.56755">
        <ele>946.56</ele>
        <time>2016-09-04T11:41:03Z</time>
      </trkpt>
      <trkpt lat="45.18109" lon="4.5676">
        <ele>948.48</ele>
        <time>2016-09-04T11:41:19Z</time>
      </trkpt>
      <trkpt lat="45.18101" lon="4.56761">
        <ele>948.96</ele>
        <time>2016-09-04T11:41:25Z</time>
      </trkpt>
      <trkpt lat="45.18089" lon="4.5676">
        <ele>948.96</ele>
        <time>2016-09-04T11:41:33Z</time>
      </trkpt>
      <trkpt lat="45.18071" lon="4.56751">
        <ele>946.56</ele>
        <time>2016-09-04T11:41:48Z</time>
      </trkpt>
      <trkpt lat="45.18058" lon="4.56742">
        <ele>947.52</ele>
        <time>2016-09-04T11:42:01Z</time>
      </trkpt>
      <trkpt lat="45.18046" lon="4.56733">
        <ele>947.52</ele>
        <time>2016-09-04T11:42:14Z</time>
      </trkpt>
      <trkpt lat="45.18042" lon="4.56729">
        <ele>948</ele>
        <time>2016-09-04T11:42:18Z</time>
      </trkpt>
      <trkpt lat="45.18028" lon="4.5671">
        <ele>947.52</ele>
        <time>2016-09-04T11:42:33Z</time>
      </trkpt>
      <trkpt lat="45.18014" lon="4.56691">
        <ele>950.88</ele>
        <time>2016-09-04T11:42:48Z</time>
      </trkpt>
      <trkpt lat="45.18007" lon="4.5668">
        <ele>952.8</ele>
        <time>2016-09-04T11:42:56Z</time>
      </trkpt>
      <trkpt lat="45.18004" lon="4.56677">
        <ele>954.73</ele>
        <time>2016-09-04T11:43:00Z</time>
      </trkpt>
      <trkpt lat="45.17989" lon="4.56663">
        <ele>956.65</ele>
        <time>2016-09-04T11:43:15Z</time>
      </trkpt>
      <trkpt lat="45.17978" lon="4.56654">
        <ele>957.61</ele>
        <time>2016-09-04T11:43:25Z</time>
      </trkpt>
      <trkpt lat="45.17963" lon="4.56639">
        <ele>955.21</ele>
        <time>2016-09-04T11:43:40Z</time>
      </trkpt>
      <trkpt lat="45.1795" lon="4.56631">
        <ele>953.28</ele>
        <time>2016-09-04T11:43:53Z</time>
      </trkpt>
      <trkpt lat="45.17934" lon="4.56621">
        <ele>951.84</ele>
        <time>2016-09-04T11:44:07Z</time>
      </trkpt>
      <trkpt lat="45.17918" lon="4.56612">
        <ele>955.69</ele>
        <time>2016-09-04T11:44:21Z</time>
      </trkpt>
      <trkpt lat="45.17899" lon="4.566">
        <ele>960.49</ele>
        <time>2016-09-04T11:44:36Z</time>
      </trkpt>
      <trkpt lat="45.17883" lon="4.5659">
        <ele>963.38</ele>
        <time>2016-09-04T11:44:50Z</time>
      </trkpt>
      <trkpt lat="45.1787" lon="4.56571">
        <ele>965.3</ele>
        <time>2016-09-04T11:45:06Z</time>
      </trkpt>
      <trkpt lat="45.17856" lon="4.56561">
        <ele>965.3</ele>
        <time>2016-09-04T11:45:20Z</time>
      </trkpt>
      <trkpt lat="45.17842" lon="4.56549">
        <ele>965.78</ele>
        <time>2016-09-04T11:45:33Z</time>
      </trkpt>
      <trkpt lat="45.17839" lon="4.56549">
        <ele>966.26</ele>
        <time>2016-09-04T11:45:35Z</time>
      </trkpt>
      <trkpt lat="45.17827" lon="4.56533">
        <ele>970.11</ele>
        <time>2016-09-04T11:45:51Z</time>
      </trkpt>
      <trkpt lat="45.17825" lon="4.56531">
        <ele>970.59</ele>
        <time>2016-09-04T11:45:53Z</time>
      </trkpt>
      <trkpt lat="45.17806" lon="4.56524">
        <ele>973.47</ele>
        <time>2016-09-04T11:46:08Z</time>
      </trkpt>
      <trkpt lat="45.178" lon="4.56511">
        <ele>976.84</ele>
        <time>2016-09-04T11:46:22Z</time>
      </trkpt>
      <trkpt lat="45.17788" lon="4.56504">
        <ele>979.24</ele>
        <time>2016-09-04T11:46:35Z</time>
      </trkpt>
      <trkpt lat="45.17778" lon="4.565">
        <ele>983.09</ele>
        <time>2016-09-04T11:46:49Z</time>
      </trkpt>
      <trkpt lat="45.17766" lon="4.56502">
        <ele>985.01</ele>
        <time>2016-09-04T11:47:01Z</time>
      </trkpt>
      <trkpt lat="45.17755" lon="4.56508">
        <ele>983.09</ele>
        <time>2016-09-04T11:47:16Z</time>
      </trkpt>
      <trkpt lat="45.17744" lon="4.56516">
        <ele>982.12</ele>
        <time>2016-09-04T11:47:28Z</time>
      </trkpt>
      <trkpt lat="45.17736" lon="4.56523">
        <ele>981.16</ele>
        <time>2016-09-04T11:47:36Z</time>
      </trkpt>
      <trkpt lat="45.17725" lon="4.56531">
        <ele>980.68</ele>
        <time>2016-09-04T11:47:44Z</time>
      </trkpt>
      <trkpt lat="45.17713" lon="4.56551">
        <ele>981.64</ele>
        <time>2016-09-04T11:47:59Z</time>
      </trkpt>
      <trkpt lat="45.17703" lon="4.56565">
        <ele>982.12</ele>
        <time>2016-09-04T11:48:12Z</time>
      </trkpt>
      <trkpt lat="45.17685" lon="4.56582">
        <ele>982.12</ele>
        <time>2016-09-04T11:48:27Z</time>
      </trkpt>
      <trkpt lat="45.17672" lon="4.56597">
        <ele>983.09</ele>
        <time>2016-09-04T11:48:42Z</time>
      </trkpt>
      <trkpt lat="45.17658" lon="4.56613">
        <ele>984.05</ele>
        <time>2016-09-04T11:48:57Z</time>
      </trkpt>
      <trkpt lat="45.17645" lon="4.56629">
        <ele>986.93</ele>
        <time>2016-09-04T11:49:12Z</time>
      </trkpt>
      <trkpt lat="45.17636" lon="4.56643">
        <ele>989.81</ele>
        <time>2016-09-04T11:49:27Z</time>
      </trkpt>
      <trkpt lat="45.1763" lon="4.56649">
        <ele>991.26</ele>
        <time>2016-09-04T11:49:33Z</time>
      </trkpt>
      <trkpt lat="45.17606" lon="4.56659">
        <ele>988.85</ele>
        <time>2016-09-04T11:49:48Z</time>
      </trkpt>
      <trkpt lat="45.17588" lon="4.56663">
        <ele>989.81</ele>
        <time>2016-09-04T11:50:00Z</time>
      </trkpt>
      <trkpt lat="45.17577" lon="4.56662">
        <ele>990.3</ele>
        <time>2016-09-04T11:50:04Z</time>
      </trkpt>
      <trkpt lat="45.17563" lon="4.56644">
        <ele>994.14</ele>
        <time>2016-09-04T11:50:19Z</time>
      </trkpt>
      <trkpt lat="45.17553" lon="4.56626">
        <ele>996.54</ele>
        <time>2016-09-04T11:50:34Z</time>
      </trkpt>
      <trkpt lat="45.17542" lon="4.56615">
        <ele>1001.83</ele>
        <time>2016-09-04T11:50:46Z</time>
      </trkpt>
      <trkpt lat="45.17529" lon="4.56602">
        <ele>1000.39</ele>
        <time>2016-09-04T11:50:59Z</time>
      </trkpt>
      <trkpt lat="45.17534" lon="4.56579">
        <ele>998.95</ele>
        <time>2016-09-04T11:51:14Z</time>
      </trkpt>
      <trkpt lat="45.17542" lon="4.56557">
        <ele>997.51</ele>
        <time>2016-09-04T11:51:30Z</time>
      </trkpt>
      <trkpt lat="45.17548" lon="4.56532">
        <ele>995.1</ele>
        <time>2016-09-04T11:51:45Z</time>
      </trkpt>
      <trkpt lat="45.17553" lon="4.56509">
        <ele>994.62</ele>
        <time>2016-09-04T11:52:01Z</time>
      </trkpt>
      <trkpt lat="45.17562" lon="4.56482">
        <ele>995.1</ele>
        <time>2016-09-04T11:52:15Z</time>
      </trkpt>
      <trkpt lat="45.17571" lon="4.56452">
        <ele>995.1</ele>
        <time>2016-09-04T11:52:31Z</time>
      </trkpt>
      <trkpt lat="45.17581" lon="4.56428">
        <ele>997.02</ele>
        <time>2016-09-04T11:52:47Z</time>
      </trkpt>
      <trkpt lat="45.17593" lon="4.56411">
        <ele>1000.87</ele>
        <time>2016-09-04T11:53:01Z</time>
      </trkpt>
      <trkpt lat="45.17598" lon="4.56404">
        <ele>1002.79</ele>
        <time>2016-09-04T11:53:06Z</time>
      </trkpt>
      <trkpt lat="45.17611" lon="4.56379">
        <ele>1001.83</ele>
        <time>2016-09-04T11:53:22Z</time>
      </trkpt>
      <trkpt lat="45.17617" lon="4.56366">
        <ele>1001.83</ele>
        <time>2016-09-04T11:53:30Z</time>
      </trkpt>
      <trkpt lat="45.17626" lon="4.5635">
        <ele>1002.31</ele>
        <time>2016-09-04T11:53:42Z</time>
      </trkpt>
      <trkpt lat="45.17638" lon="4.56337">
        <ele>1002.79</ele>
        <time>2016-09-04T11:53:56Z</time>
      </trkpt>
      <trkpt lat="45.17652" lon="4.56315">
        <ele>1005.2</ele>
        <time>2016-09-04T11:54:12Z</time>
      </trkpt>
      <trkpt lat="45.17657" lon="4.56307">
        <ele>1004.72</ele>
        <time>2016-09-04T11:54:18Z</time>
      </trkpt>
      <trkpt lat="45.17662" lon="4.56292">
        <ele>1004.23</ele>
        <time>2016-09-04T11:54:28Z</time>
      </trkpt>
      <trkpt lat="45.17666" lon="4.5627">
        <ele>1000.87</ele>
        <time>2016-09-04T11:54:42Z</time>
      </trkpt>
      <trkpt lat="45.17666" lon="4.56248">
        <ele>998.95</ele>
        <time>2016-09-04T11:54:57Z</time>
      </trkpt>
      <trkpt lat="45.17672" lon="4.5622">
        <ele>1001.35</ele>
        <time>2016-09-04T11:55:11Z</time>
      </trkpt>
      <trkpt lat="45.17675" lon="4.5621">
        <ele>1002.79</ele>
        <time>2016-09-04T11:55:16Z</time>
      </trkpt>
      <trkpt lat="45.17682" lon="4.56182">
        <ele>1007.12</ele>
        <time>2016-09-04T11:55:33Z</time>
      </trkpt>
      <trkpt lat="45.17684" lon="4.56172">
        <ele>1007.12</ele>
        <time>2016-09-04T11:55:39Z</time>
      </trkpt>
      <trkpt lat="45.17689" lon="4.56147">
        <ele>1008.08</ele>
        <time>2016-09-04T11:55:54Z</time>
      </trkpt>
      <trkpt lat="45.17693" lon="4.56121">
        <ele>1008.56</ele>
        <time>2016-09-04T11:56:10Z</time>
      </trkpt>
      <trkpt lat="45.17695" lon="4.56091">
        <ele>1011.44</ele>
        <time>2016-09-04T11:56:23Z</time>
      </trkpt>
      <trkpt lat="45.17698" lon="4.56064">
        <ele>1012.41</ele>
        <time>2016-09-04T11:56:36Z</time>
      </trkpt>
      <trkpt lat="45.17697" lon="4.56047">
        <ele>1010</ele>
        <time>2016-09-04T11:56:44Z</time>
      </trkpt>
      <trkpt lat="45.17691" lon="4.56026">
        <ele>1006.64</ele>
        <time>2016-09-04T11:56:58Z</time>
      </trkpt>
      <trkpt lat="45.17683" lon="4.5601">
        <ele>1006.16</ele>
        <time>2016-09-04T11:57:10Z</time>
      </trkpt>
      <trkpt lat="45.1767" lon="4.55989">
        <ele>1006.16</ele>
        <time>2016-09-04T11:57:25Z</time>
      </trkpt>
      <trkpt lat="45.17662" lon="4.55981">
        <ele>1007.6</ele>
        <time>2016-09-04T11:57:33Z</time>
      </trkpt>
      <trkpt lat="45.17654" lon="4.55969">
        <ele>1009.52</ele>
        <time>2016-09-04T11:57:43Z</time>
      </trkpt>
      <trkpt lat="45.17643" lon="4.55958">
        <ele>1010.48</ele>
        <time>2016-09-04T11:57:55Z</time>
      </trkpt>
      <trkpt lat="45.17633" lon="4.5595">
        <ele>1012.41</ele>
        <time>2016-09-04T11:58:04Z</time>
      </trkpt>
      <trkpt lat="45.17626" lon="4.55945">
        <ele>1013.37</ele>
        <time>2016-09-04T11:58:11Z</time>
      </trkpt>
      <trkpt lat="45.17612" lon="4.55932">
        <ele>1012.89</ele>
        <time>2016-09-04T11:58:25Z</time>
      </trkpt>
      <trkpt lat="45.17611" lon="4.5593">
        <ele>1012.41</ele>
        <time>2016-09-04T11:58:26Z</time>
      </trkpt>
      <trkpt lat="45.176" lon="4.5592">
        <ele>1009.52</ele>
        <time>2016-09-04T11:58:34Z</time>
      </trkpt>
      <trkpt lat="45.17582" lon="4.55914">
        <ele>1009.04</ele>
        <time>2016-09-04T11:58:48Z</time>
      </trkpt>
      <trkpt lat="45.17579" lon="4.55913">
        <ele>1009.04</ele>
        <time>2016-09-04T11:58:50Z</time>
      </trkpt>
      <trkpt lat="45.17569" lon="4.55907">
        <ele>1010.96</ele>
        <time>2016-09-04T11:58:59Z</time>
      </trkpt>
      <trkpt lat="45.1755" lon="4.55899">
        <ele>1010</ele>
        <time>2016-09-04T11:59:12Z</time>
      </trkpt>
      <trkpt lat="45.17545" lon="4.55898">
        <ele>1009.04</ele>
        <time>2016-09-04T11:59:15Z</time>
      </trkpt>
      <trkpt lat="45.17529" lon="4.55895">
        <ele>1007.6</ele>
        <time>2016-09-04T11:59:29Z</time>
      </trkpt>
      <trkpt lat="45.17511" lon="4.55887">
        <ele>1001.35</ele>
        <time>2016-09-04T11:59:43Z</time>
      </trkpt>
      <trkpt lat="45.17494" lon="4.5588">
        <ele>997.51</ele>
        <time>2016-09-04T11:59:56Z</time>
      </trkpt>
      <trkpt lat="45.17486" lon="4.55877">
        <ele>995.58</ele>
        <time>2016-09-04T12:00:01Z</time>
      </trkpt>
      <trkpt lat="45.17463" lon="4.55864">
        <ele>994.14</ele>
        <time>2016-09-04T12:00:17Z</time>
      </trkpt>
      <trkpt lat="45.17449" lon="4.55846">
        <ele>992.7</ele>
        <time>2016-09-04T12:00:31Z</time>
      </trkpt>
      <trkpt lat="45.1744" lon="4.55823">
        <ele>990.3</ele>
        <time>2016-09-04T12:00:44Z</time>
      </trkpt>
      <trkpt lat="45.17438" lon="4.55792">
        <ele>985.49</ele>
        <time>2016-09-04T12:00:58Z</time>
      </trkpt>
      <trkpt lat="45.17438" lon="4.55772">
        <ele>981.64</ele>
        <time>2016-09-04T12:01:09Z</time>
      </trkpt>
      <trkpt lat="45.17437" lon="4.55743">
        <ele>980.2</ele>
        <time>2016-09-04T12:01:22Z</time>
      </trkpt>
      <trkpt lat="45.17435" lon="4.55729">
        <ele>979.24</ele>
        <time>2016-09-04T12:01:31Z</time>
      </trkpt>
      <trkpt lat="45.17434" lon="4.55722">
        <ele>979.24</ele>
        <time>2016-09-04T12:01:35Z</time>
      </trkpt>
      <trkpt lat="45.17434" lon="4.55718">
        <ele>979.72</ele>
        <time>2016-09-04T12:01:37Z</time>
      </trkpt>
      <trkpt lat="45.17431" lon="4.55693">
        <ele>978.28</ele>
        <time>2016-09-04T12:01:51Z</time>
      </trkpt>
      <trkpt lat="45.17428" lon="4.5567">
        <ele>978.28</ele>
        <time>2016-09-04T12:02:03Z</time>
      </trkpt>
      <trkpt lat="45.1742" lon="4.55649">
        <ele>981.16</ele>
        <time>2016-09-04T12:02:16Z</time>
      </trkpt>
      <trkpt lat="45.17403" lon="4.55635">
        <ele>982.6</ele>
        <time>2016-09-04T12:02:31Z</time>
      </trkpt>
      <trkpt lat="45.17386" lon="4.55619">
        <ele>987.41</ele>
        <time>2016-09-04T12:02:47Z</time>
      </trkpt>
      <trkpt lat="45.17383" lon="4.55616">
        <ele>987.89</ele>
        <time>2016-09-04T12:02:50Z</time>
      </trkpt>
      <trkpt lat="45.17378" lon="4.55613">
        <ele>990.3</ele>
        <time>2016-09-04T12:02:55Z</time>
      </trkpt>
      <trkpt lat="45.17362" lon="4.55596">
        <ele>992.7</ele>
        <time>2016-09-04T12:03:11Z</time>
      </trkpt>
      <trkpt lat="45.17347" lon="4.5559">
        <ele>990.3</ele>
        <time>2016-09-04T12:03:21Z</time>
      </trkpt>
      <trkpt lat="45.17342" lon="4.55588">
        <ele>989.81</ele>
        <time>2016-09-04T12:03:25Z</time>
      </trkpt>
      <trkpt lat="45.17324" lon="4.55573">
        <ele>989.33</ele>
        <time>2016-09-04T12:03:41Z</time>
      </trkpt>
      <trkpt lat="45.17307" lon="4.55561">
        <ele>989.33</ele>
        <time>2016-09-04T12:03:57Z</time>
      </trkpt>
      <trkpt lat="45.17292" lon="4.55556">
        <ele>988.85</ele>
        <time>2016-09-04T12:04:09Z</time>
      </trkpt>
      <trkpt lat="45.17273" lon="4.55552">
        <ele>985.49</ele>
        <time>2016-09-04T12:04:24Z</time>
      </trkpt>
      <trkpt lat="45.17259" lon="4.55551">
        <ele>987.41</ele>
        <time>2016-09-04T12:04:36Z</time>
      </trkpt>
      <trkpt lat="45.17237" lon="4.55546">
        <ele>985.97</ele>
        <time>2016-09-04T12:04:53Z</time>
      </trkpt>
      <trkpt lat="45.17215" lon="4.55547">
        <ele>982.6</ele>
        <time>2016-09-04T12:05:08Z</time>
      </trkpt>
      <trkpt lat="45.17197" lon="4.55549">
        <ele>979.24</ele>
        <time>2016-09-04T12:05:22Z</time>
      </trkpt>
      <trkpt lat="45.1718" lon="4.55546">
        <ele>978.76</ele>
        <time>2016-09-04T12:05:36Z</time>
      </trkpt>
      <trkpt lat="45.17159" lon="4.55547">
        <ele>975.39</ele>
        <time>2016-09-04T12:05:50Z</time>
      </trkpt>
      <trkpt lat="45.17145" lon="4.55546">
        <ele>973.95</ele>
        <time>2016-09-04T12:06:04Z</time>
      </trkpt>
      <trkpt lat="45.17123" lon="4.55547">
        <ele>972.03</ele>
        <time>2016-09-04T12:06:20Z</time>
      </trkpt>
      <trkpt lat="45.17119" lon="4.55546">
        <ele>970.59</ele>
        <time>2016-09-04T12:06:23Z</time>
      </trkpt>
      <trkpt lat="45.17098" lon="4.55548">
        <ele>968.67</ele>
        <time>2016-09-04T12:06:37Z</time>
      </trkpt>
      <trkpt lat="45.17076" lon="4.55547">
        <ele>966.26</ele>
        <time>2016-09-04T12:06:54Z</time>
      </trkpt>
      <trkpt lat="45.17055" lon="4.5554">
        <ele>963.86</ele>
        <time>2016-09-04T12:07:09Z</time>
      </trkpt>
      <trkpt lat="45.17037" lon="4.55529">
        <ele>962.9</ele>
        <time>2016-09-04T12:07:23Z</time>
      </trkpt>
      <trkpt lat="45.17021" lon="4.55518">
        <ele>961.46</ele>
        <time>2016-09-04T12:07:37Z</time>
      </trkpt>
      <trkpt lat="45.17014" lon="4.55513">
        <ele>960.01</ele>
        <time>2016-09-04T12:07:42Z</time>
      </trkpt>
      <trkpt lat="45.17001" lon="4.555">
        <ele>960.98</ele>
        <time>2016-09-04T12:07:54Z</time>
      </trkpt>
      <trkpt lat="45.17" lon="4.55499">
        <ele>960.98</ele>
        <time>2016-09-04T12:07:55Z</time>
      </trkpt>
      <trkpt lat="45.16991" lon="4.55475">
        <ele>957.13</ele>
        <time>2016-09-04T12:08:09Z</time>
      </trkpt>
      <trkpt lat="45.1699" lon="4.55457">
        <ele>956.17</ele>
        <time>2016-09-04T12:08:19Z</time>
      </trkpt>
      <trkpt lat="45.16993" lon="4.55433">
        <ele>954.73</ele>
        <time>2016-09-04T12:08:30Z</time>
      </trkpt>
      <trkpt lat="45.16999" lon="4.55405">
        <ele>951.84</ele>
        <time>2016-09-04T12:08:43Z</time>
      </trkpt>
      <trkpt lat="45.17003" lon="4.55393">
        <ele>950.88</ele>
        <time>2016-09-04T12:08:49Z</time>
      </trkpt>
      <trkpt lat="45.17006" lon="4.55386">
        <ele>949.92</ele>
        <time>2016-09-04T12:08:54Z</time>
      </trkpt>
      <trkpt lat="45.17013" lon="4.55358">
        <ele>951.84</ele>
        <time>2016-09-04T12:09:09Z</time>
      </trkpt>
      <trkpt lat="45.17023" lon="4.5533">
        <ele>950.88</ele>
        <time>2016-09-04T12:09:26Z</time>
      </trkpt>
      <trkpt lat="45.1703" lon="4.55305">
        <ele>949.92</ele>
        <time>2016-09-04T12:09:41Z</time>
      </trkpt>
      <trkpt lat="45.17037" lon="4.55274">
        <ele>944.63</ele>
        <time>2016-09-04T12:09:57Z</time>
      </trkpt>
      <trkpt lat="45.17041" lon="4.55249">
        <ele>943.67</ele>
        <time>2016-09-04T12:10:11Z</time>
      </trkpt>
      <trkpt lat="45.17045" lon="4.55216">
        <ele>943.19</ele>
        <time>2016-09-04T12:10:29Z</time>
      </trkpt>
      <trkpt lat="45.17047" lon="4.55196">
        <ele>942.71</ele>
        <time>2016-09-04T12:10:40Z</time>
      </trkpt>
      <trkpt lat="45.17048" lon="4.55168">
        <ele>940.79</ele>
        <time>2016-09-04T12:10:55Z</time>
      </trkpt>
      <trkpt lat="45.1705" lon="4.55147">
        <ele>937.42</ele>
        <time>2016-09-04T12:11:07Z</time>
      </trkpt>
      <trkpt lat="45.17051" lon="4.55125">
        <ele>934.06</ele>
        <time>2016-09-04T12:11:19Z</time>
      </trkpt>
      <trkpt lat="45.17055" lon="4.55099">
        <ele>930.69</ele>
        <time>2016-09-04T12:11:32Z</time>
      </trkpt>
      <trkpt lat="45.17056" lon="4.55068">
        <ele>928.77</ele>
        <time>2016-09-04T12:11:48Z</time>
      </trkpt>
      <trkpt lat="45.1706" lon="4.5504">
        <ele>923.96</ele>
        <time>2016-09-04T12:12:03Z</time>
      </trkpt>
      <trkpt lat="45.17066" lon="4.55013">
        <ele>920.6</ele>
        <time>2016-09-04T12:12:18Z</time>
      </trkpt>
      <trkpt lat="45.1707" lon="4.54985">
        <ele>915.31</ele>
        <time>2016-09-04T12:12:31Z</time>
      </trkpt>
      <trkpt lat="45.17071" lon="4.54962">
        <ele>913.39</ele>
        <time>2016-09-04T12:12:44Z</time>
      </trkpt>
      <trkpt lat="45.17072" lon="4.54944">
        <ele>912.91</ele>
        <time>2016-09-04T12:12:54Z</time>
      </trkpt>
      <trkpt lat="45.17077" lon="4.54916">
        <ele>911.47</ele>
        <time>2016-09-04T12:13:10Z</time>
      </trkpt>
      <trkpt lat="45.17077" lon="4.54915">
        <ele>911.95</ele>
        <time>2016-09-04T12:13:11Z</time>
      </trkpt>
      <trkpt lat="45.17075" lon="4.54907">
        <ele>912.43</ele>
        <time>2016-09-04T12:13:23Z</time>
      </trkpt>
      <trkpt lat="45.17077" lon="4.54902">
        <ele>913.39</ele>
        <time>2016-09-04T12:13:36Z</time>
      </trkpt>
      <trkpt lat="45.17079" lon="4.549">
        <ele>913.87</ele>
        <time>2016-09-04T12:13:52Z</time>
      </trkpt>
      <trkpt lat="45.17078" lon="4.54899">
        <ele>913.87</ele>
        <time>2016-09-04T12:14:08Z</time>
      </trkpt>
      <trkpt lat="45.17078" lon="4.54898">
        <ele>914.35</ele>
        <time>2016-09-04T12:14:22Z</time>
      </trkpt>
      <trkpt lat="45.17077" lon="4.549">
        <ele>915.79</ele>
        <time>2016-09-04T12:14:42Z</time>
      </trkpt>
      <trkpt lat="45.17077" lon="4.549">
        <ele>916.75</ele>
        <time>2016-09-04T12:15:04Z</time>
      </trkpt>
      <trkpt lat="45.17077" lon="4.549">
        <ele>918.68</ele>
        <time>2016-09-04T12:15:29Z</time>
      </trkpt>
      <trkpt lat="45.17079" lon="4.54902">
        <ele>919.16</ele>
        <time>2016-09-04T12:15:46Z</time>
      </trkpt>
      <trkpt lat="45.17079" lon="4.54903">
        <ele>919.64</ele>
        <time>2016-09-04T12:16:09Z</time>
      </trkpt>
      <trkpt lat="45.17078" lon="4.54905">
        <ele>919.16</ele>
        <time>2016-09-04T12:16:23Z</time>
      </trkpt>
      <trkpt lat="45.17079" lon="4.54906">
        <ele>919.16</ele>
        <time>2016-09-04T12:16:44Z</time>
      </trkpt>
      <trkpt lat="45.17079" lon="4.54907">
        <ele>918.2</ele>
        <time>2016-09-04T12:17:04Z</time>
      </trkpt>
      <trkpt lat="45.17079" lon="4.54907">
        <ele>918.2</ele>
        <time>2016-09-04T12:17:15Z</time>
      </trkpt>
      <trkpt lat="45.17075" lon="4.54895">
        <ele>920.12</ele>
        <time>2016-09-04T12:17:27Z</time>
      </trkpt>
      <trkpt lat="45.17068" lon="4.54881">
        <ele>924.93</ele>
        <time>2016-09-04T12:17:41Z</time>
      </trkpt>
      <trkpt lat="45.17066" lon="4.54865">
        <ele>926.85</ele>
        <time>2016-09-04T12:17:54Z</time>
      </trkpt>
      <trkpt lat="45.17063" lon="4.54845">
        <ele>926.37</ele>
        <time>2016-09-04T12:18:10Z</time>
      </trkpt>
      <trkpt lat="45.17063" lon="4.54841">
        <ele>925.89</ele>
        <time>2016-09-04T12:18:12Z</time>
      </trkpt>
      <trkpt lat="45.17061" lon="4.54817">
        <ele>926.37</ele>
        <time>2016-09-04T12:18:27Z</time>
      </trkpt>
      <trkpt lat="45.17061" lon="4.54812">
        <ele>925.89</ele>
        <time>2016-09-04T12:18:30Z</time>
      </trkpt>
      <trkpt lat="45.17053" lon="4.5481">
        <ele>927.33</ele>
        <time>2016-09-04T12:18:42Z</time>
      </trkpt>
      <trkpt lat="45.17039" lon="4.54805">
        <ele>928.29</ele>
        <time>2016-09-04T12:18:56Z</time>
      </trkpt>
      <trkpt lat="45.1703" lon="4.54799">
        <ele>929.25</ele>
        <time>2016-09-04T12:19:10Z</time>
      </trkpt>
      <trkpt lat="45.17018" lon="4.5479">
        <ele>926.37</ele>
        <time>2016-09-04T12:19:23Z</time>
      </trkpt>
      <trkpt lat="45.17008" lon="4.54786">
        <ele>924.93</ele>
        <time>2016-09-04T12:19:31Z</time>
      </trkpt>
      <trkpt lat="45.16991" lon="4.54785">
        <ele>927.33</ele>
        <time>2016-09-04T12:19:47Z</time>
      </trkpt>
      <trkpt lat="45.1698" lon="4.5479">
        <ele>928.29</ele>
        <time>2016-09-04T12:20:01Z</time>
      </trkpt>
      <trkpt lat="45.16968" lon="4.54801">
        <ele>931.17</ele>
        <time>2016-09-04T12:20:14Z</time>
      </trkpt>
      <trkpt lat="45.16945" lon="4.5481">
        <ele>932.62</ele>
        <time>2016-09-04T12:20:27Z</time>
      </trkpt>
      <trkpt lat="45.16925" lon="4.54817">
        <ele>935.5</ele>
        <time>2016-09-04T12:20:42Z</time>
      </trkpt>
      <trkpt lat="45.16912" lon="4.5482">
        <ele>941.75</ele>
        <time>2016-09-04T12:20:54Z</time>
      </trkpt>
      <trkpt lat="45.16899" lon="4.54817">
        <ele>945.11</ele>
        <time>2016-09-04T12:21:08Z</time>
      </trkpt>
      <trkpt lat="45.16883" lon="4.54811">
        <ele>941.75</ele>
        <time>2016-09-04T12:21:22Z</time>
      </trkpt>
      <trkpt lat="45.16881" lon="4.54812">
        <ele>937.9</ele>
        <time>2016-09-04T12:21:44Z</time>
      </trkpt>
      <trkpt lat="45.16877" lon="4.54807">
        <ele>936.94</ele>
        <time>2016-09-04T12:21:52Z</time>
      </trkpt>
      <trkpt lat="45.16874" lon="4.54803">
        <ele>937.42</ele>
        <time>2016-09-04T12:21:55Z</time>
      </trkpt>
      <trkpt lat="45.16868" lon="4.54791">
        <ele>939.35</ele>
        <time>2016-09-04T12:22:06Z</time>
      </trkpt>
      <trkpt lat="45.16858" lon="4.54773">
        <ele>942.71</ele>
        <time>2016-09-04T12:22:21Z</time>
      </trkpt>
      <trkpt lat="45.1685" lon="4.54755">
        <ele>945.11</ele>
        <time>2016-09-04T12:22:35Z</time>
      </trkpt>
      <trkpt lat="45.16843" lon="4.54738">
        <ele>945.59</ele>
        <time>2016-09-04T12:22:49Z</time>
      </trkpt>
      <trkpt lat="45.16837" lon="4.54719">
        <ele>947.52</ele>
        <time>2016-09-04T12:23:02Z</time>
      </trkpt>
      <trkpt lat="45.16833" lon="4.54702">
        <ele>947.04</ele>
        <time>2016-09-04T12:23:14Z</time>
      </trkpt>
      <trkpt lat="45.16828" lon="4.54686">
        <ele>949.44</ele>
        <time>2016-09-04T12:23:26Z</time>
      </trkpt>
      <trkpt lat="45.16823" lon="4.54662">
        <ele>950.4</ele>
        <time>2016-09-04T12:23:41Z</time>
      </trkpt>
      <trkpt lat="45.1682" lon="4.54642">
        <ele>953.77</ele>
        <time>2016-09-04T12:23:55Z</time>
      </trkpt>
      <trkpt lat="45.16814" lon="4.54621">
        <ele>956.17</ele>
        <time>2016-09-04T12:24:09Z</time>
      </trkpt>
      <trkpt lat="45.16811" lon="4.546">
        <ele>959.53</ele>
        <time>2016-09-04T12:24:23Z</time>
      </trkpt>
      <trkpt lat="45.16808" lon="4.54588">
        <ele>962.9</ele>
        <time>2016-09-04T12:24:36Z</time>
      </trkpt>
      <trkpt lat="45.1681" lon="4.5457">
        <ele>965.3</ele>
        <time>2016-09-04T12:24:49Z</time>
      </trkpt>
      <trkpt lat="45.16806" lon="4.54553">
        <ele>967.7</ele>
        <time>2016-09-04T12:25:01Z</time>
      </trkpt>
      <trkpt lat="45.16804" lon="4.54549">
        <ele>968.67</ele>
        <time>2016-09-04T12:25:04Z</time>
      </trkpt>
      <trkpt lat="45.16787" lon="4.54529">
        <ele>966.74</ele>
        <time>2016-09-04T12:25:20Z</time>
      </trkpt>
      <trkpt lat="45.16782" lon="4.54522">
        <ele>969.63</ele>
        <time>2016-09-04T12:25:33Z</time>
      </trkpt>
      <trkpt lat="45.16766" lon="4.54505">
        <ele>973.95</ele>
        <time>2016-09-04T12:25:50Z</time>
      </trkpt>
      <trkpt lat="45.16751" lon="4.54494">
        <ele>971.55</ele>
        <time>2016-09-04T12:26:01Z</time>
      </trkpt>
      <trkpt lat="45.16748" lon="4.54492">
        <ele>971.55</ele>
        <time>2016-09-04T12:26:07Z</time>
      </trkpt>
      <trkpt lat="45.16742" lon="4.5449">
        <ele>969.63</ele>
        <time>2016-09-04T12:26:11Z</time>
      </trkpt>
      <trkpt lat="45.16738" lon="4.54487">
        <ele>968.67</ele>
        <time>2016-09-04T12:26:13Z</time>
      </trkpt>
      <trkpt lat="45.16706" lon="4.54477">
        <ele>953.28</ele>
        <time>2016-09-04T12:26:27Z</time>
      </trkpt>
      <trkpt lat="45.16688" lon="4.54471">
        <ele>948.48</ele>
        <time>2016-09-04T12:26:42Z</time>
      </trkpt>
      <trkpt lat="45.16676" lon="4.5446">
        <ele>947.52</ele>
        <time>2016-09-04T12:26:53Z</time>
      </trkpt>
      <trkpt lat="45.16669" lon="4.54452">
        <ele>946.56</ele>
        <time>2016-09-04T12:27:01Z</time>
      </trkpt>
      <trkpt lat="45.16662" lon="4.54449">
        <ele>945.59</ele>
        <time>2016-09-04T12:27:08Z</time>
      </trkpt>
      <trkpt lat="45.16656" lon="4.54442">
        <ele>945.59</ele>
        <time>2016-09-04T12:27:13Z</time>
      </trkpt>
      <trkpt lat="45.16659" lon="4.54429">
        <ele>944.63</ele>
        <time>2016-09-04T12:27:27Z</time>
      </trkpt>
      <trkpt lat="45.16668" lon="4.54418">
        <ele>948</ele>
        <time>2016-09-04T12:27:40Z</time>
      </trkpt>
      <trkpt lat="45.16675" lon="4.5441">
        <ele>949.92</ele>
        <time>2016-09-04T12:27:48Z</time>
      </trkpt>
      <trkpt lat="45.16683" lon="4.54393">
        <ele>952.32</ele>
        <time>2016-09-04T12:28:04Z</time>
      </trkpt>
      <trkpt lat="45.16691" lon="4.54372">
        <ele>951.84</ele>
        <time>2016-09-04T12:28:19Z</time>
      </trkpt>
      <trkpt lat="45.16702" lon="4.5435">
        <ele>948.48</ele>
        <time>2016-09-04T12:28:34Z</time>
      </trkpt>
      <trkpt lat="45.16712" lon="4.54333">
        <ele>947.04</ele>
        <time>2016-09-04T12:28:47Z</time>
      </trkpt>
      <trkpt lat="45.16713" lon="4.54327">
        <ele>946.56</ele>
        <time>2016-09-04T12:28:50Z</time>
      </trkpt>
      <trkpt lat="45.16725" lon="4.54309">
        <ele>944.63</ele>
        <time>2016-09-04T12:29:05Z</time>
      </trkpt>
      <trkpt lat="45.16731" lon="4.54302">
        <ele>944.63</ele>
        <time>2016-09-04T12:29:12Z</time>
      </trkpt>
      <trkpt lat="45.16741" lon="4.54293">
        <ele>947.52</ele>
        <time>2016-09-04T12:29:28Z</time>
      </trkpt>
      <trkpt lat="45.16746" lon="4.54278">
        <ele>947.52</ele>
        <time>2016-09-04T12:29:40Z</time>
      </trkpt>
      <trkpt lat="45.16755" lon="4.54261">
        <ele>945.59</ele>
        <time>2016-09-04T12:29:53Z</time>
      </trkpt>
      <trkpt lat="45.1676" lon="4.54247">
        <ele>943.67</ele>
        <time>2016-09-04T12:30:02Z</time>
      </trkpt>
      <trkpt lat="45.16764" lon="4.54234">
        <ele>942.71</ele>
        <time>2016-09-04T12:30:10Z</time>
      </trkpt>
      <trkpt lat="45.16769" lon="4.54214">
        <ele>942.71</ele>
        <time>2016-09-04T12:30:23Z</time>
      </trkpt>
      <trkpt lat="45.16771" lon="4.54199">
        <ele>944.15</ele>
        <time>2016-09-04T12:30:33Z</time>
      </trkpt>
      <trkpt lat="45.16772" lon="4.54178">
        <ele>946.07</ele>
        <time>2016-09-04T12:30:46Z</time>
      </trkpt>
      <trkpt lat="45.16774" lon="4.54173">
        <ele>947.52</ele>
        <time>2016-09-04T12:30:50Z</time>
      </trkpt>
      <trkpt lat="45.16784" lon="4.54148">
        <ele>946.07</ele>
        <time>2016-09-04T12:31:03Z</time>
      </trkpt>
      <trkpt lat="45.16793" lon="4.54125">
        <ele>942.71</ele>
        <time>2016-09-04T12:31:15Z</time>
      </trkpt>
      <trkpt lat="45.16799" lon="4.54106">
        <ele>942.23</ele>
        <time>2016-09-04T12:31:27Z</time>
      </trkpt>
      <trkpt lat="45.16805" lon="4.54086">
        <ele>941.75</ele>
        <time>2016-09-04T12:31:39Z</time>
      </trkpt>
      <trkpt lat="45.16809" lon="4.54072">
        <ele>941.27</ele>
        <time>2016-09-04T12:31:47Z</time>
      </trkpt>
      <trkpt lat="45.16816" lon="4.54056">
        <ele>943.67</ele>
        <time>2016-09-04T12:32:00Z</time>
      </trkpt>
      <trkpt lat="45.1682" lon="4.54041">
        <ele>940.79</ele>
        <time>2016-09-04T12:32:10Z</time>
      </trkpt>
      <trkpt lat="45.16825" lon="4.54015">
        <ele>935.98</ele>
        <time>2016-09-04T12:32:25Z</time>
      </trkpt>
      <trkpt lat="45.16828" lon="4.54001">
        <ele>933.58</ele>
        <time>2016-09-04T12:32:31Z</time>
      </trkpt>
      <trkpt lat="45.16834" lon="4.53982">
        <ele>930.21</ele>
        <time>2016-09-04T12:32:42Z</time>
      </trkpt>
      <trkpt lat="45.16842" lon="4.5396">
        <ele>923.96</ele>
        <time>2016-09-04T12:32:55Z</time>
      </trkpt>
      <trkpt lat="45.16851" lon="4.53938">
        <ele>920.6</ele>
        <time>2016-09-04T12:33:09Z</time>
      </trkpt>
      <trkpt lat="45.16855" lon="4.53924">
        <ele>919.64</ele>
        <time>2016-09-04T12:33:18Z</time>
      </trkpt>
      <trkpt lat="45.16855" lon="4.53914">
        <ele>919.16</ele>
        <time>2016-09-04T12:33:25Z</time>
      </trkpt>
      <trkpt lat="45.16856" lon="4.5389">
        <ele>916.75</ele>
        <time>2016-09-04T12:33:39Z</time>
      </trkpt>
      <trkpt lat="45.1686" lon="4.53868">
        <ele>915.79</ele>
        <time>2016-09-04T12:33:51Z</time>
      </trkpt>
      <trkpt lat="45.1686" lon="4.5386">
        <ele>915.31</ele>
        <time>2016-09-04T12:33:56Z</time>
      </trkpt>
      <trkpt lat="45.16855" lon="4.53848">
        <ele>915.31</ele>
        <time>2016-09-04T12:34:07Z</time>
      </trkpt>
      <trkpt lat="45.16852" lon="4.53845">
        <ele>916.27</ele>
        <time>2016-09-04T12:34:10Z</time>
      </trkpt>
      <trkpt lat="45.16845" lon="4.53823">
        <ele>921.56</ele>
        <time>2016-09-04T12:34:25Z</time>
      </trkpt>
      <trkpt lat="45.16842" lon="4.53807">
        <ele>921.56</ele>
        <time>2016-09-04T12:34:33Z</time>
      </trkpt>
      <trkpt lat="45.16841" lon="4.53784">
        <ele>918.68</ele>
        <time>2016-09-04T12:34:45Z</time>
      </trkpt>
      <trkpt lat="45.16841" lon="4.53763">
        <ele>919.16</ele>
        <time>2016-09-04T12:34:57Z</time>
      </trkpt>
      <trkpt lat="45.16841" lon="4.53747">
        <ele>919.16</ele>
        <time>2016-09-04T12:35:08Z</time>
      </trkpt>
      <trkpt lat="45.16841" lon="4.5373">
        <ele>921.56</ele>
        <time>2016-09-04T12:35:19Z</time>
      </trkpt>
      <trkpt lat="45.1684" lon="4.53717">
        <ele>923.48</ele>
        <time>2016-09-04T12:35:26Z</time>
      </trkpt>
      <trkpt lat="45.1684" lon="4.53688">
        <ele>923.48</ele>
        <time>2016-09-04T12:35:40Z</time>
      </trkpt>
      <trkpt lat="45.16839" lon="4.53683">
        <ele>922.52</ele>
        <time>2016-09-04T12:35:44Z</time>
      </trkpt>
      <trkpt lat="45.16835" lon="4.53673">
        <ele>922.52</ele>
        <time>2016-09-04T12:35:49Z</time>
      </trkpt>
      <trkpt lat="45.16832" lon="4.53655">
        <ele>922.04</ele>
        <time>2016-09-04T12:35:59Z</time>
      </trkpt>
      <trkpt lat="45.16833" lon="4.53644">
        <ele>923.96</ele>
        <time>2016-09-04T12:36:06Z</time>
      </trkpt>
      <trkpt lat="45.16834" lon="4.53622">
        <ele>928.29</ele>
        <time>2016-09-04T12:36:21Z</time>
      </trkpt>
      <trkpt lat="45.16839" lon="4.53602">
        <ele>931.65</ele>
        <time>2016-09-04T12:36:35Z</time>
      </trkpt>
      <trkpt lat="45.16839" lon="4.53597">
        <ele>933.58</ele>
        <time>2016-09-04T12:36:40Z</time>
      </trkpt>
      <trkpt lat="45.16835" lon="4.53584">
        <ele>933.58</ele>
        <time>2016-09-04T12:36:50Z</time>
      </trkpt>
      <trkpt lat="45.16833" lon="4.53578">
        <ele>933.58</ele>
        <time>2016-09-04T12:36:55Z</time>
      </trkpt>
      <trkpt lat="45.16826" lon="4.53572">
        <ele>937.42</ele>
        <time>2016-09-04T12:37:09Z</time>
      </trkpt>
      <trkpt lat="45.1682" lon="4.53566">
        <ele>940.31</ele>
        <time>2016-09-04T12:37:27Z</time>
      </trkpt>
      <trkpt lat="45.16814" lon="4.53565">
        <ele>943.67</ele>
        <time>2016-09-04T12:37:40Z</time>
      </trkpt>
      <trkpt lat="45.16804" lon="4.53564">
        <ele>948.96</ele>
        <time>2016-09-04T12:37:53Z</time>
      </trkpt>
      <trkpt lat="45.16799" lon="4.53564">
        <ele>950.88</ele>
        <time>2016-09-04T12:38:06Z</time>
      </trkpt>
      <trkpt lat="45.16791" lon="4.53559">
        <ele>953.77</ele>
        <time>2016-09-04T12:38:16Z</time>
      </trkpt>
      <trkpt lat="45.16784" lon="4.5356">
        <ele>955.21</ele>
        <time>2016-09-04T12:38:27Z</time>
      </trkpt>
      <trkpt lat="45.16783" lon="4.5356">
        <ele>955.21</ele>
        <time>2016-09-04T12:38:30Z</time>
      </trkpt>
      <trkpt lat="45.16774" lon="4.53566">
        <ele>959.53</ele>
        <time>2016-09-04T12:38:42Z</time>
      </trkpt>
      <trkpt lat="45.16762" lon="4.53575">
        <ele>961.94</ele>
        <time>2016-09-04T12:38:55Z</time>
      </trkpt>
      <trkpt lat="45.1675" lon="4.53583">
        <ele>962.42</ele>
        <time>2016-09-04T12:39:08Z</time>
      </trkpt>
      <trkpt lat="45.16728" lon="4.53586">
        <ele>955.69</ele>
        <time>2016-09-04T12:39:19Z</time>
      </trkpt>
      <trkpt lat="45.16713" lon="4.5359">
        <ele>954.25</ele>
        <time>2016-09-04T12:39:30Z</time>
      </trkpt>
      <trkpt lat="45.1669" lon="4.53605">
        <ele>953.28</ele>
        <time>2016-09-04T12:39:45Z</time>
      </trkpt>
      <trkpt lat="45.1667" lon="4.53617">
        <ele>952.8</ele>
        <time>2016-09-04T12:39:59Z</time>
      </trkpt>
      <trkpt lat="45.16654" lon="4.53631">
        <ele>956.17</ele>
        <time>2016-09-04T12:40:13Z</time>
      </trkpt>
      <trkpt lat="45.16631" lon="4.53631">
        <ele>958.09</ele>
        <time>2016-09-04T12:40:26Z</time>
      </trkpt>
      <trkpt lat="45.16629" lon="4.5363">
        <ele>958.09</ele>
        <time>2016-09-04T12:40:27Z</time>
      </trkpt>
      <trkpt lat="45.16627" lon="4.53625">
        <ele>960.98</ele>
        <time>2016-09-04T12:40:34Z</time>
      </trkpt>
      <trkpt lat="45.16625" lon="4.53609">
        <ele>959.53</ele>
        <time>2016-09-04T12:40:45Z</time>
      </trkpt>
      <trkpt lat="45.16626" lon="4.53606">
        <ele>959.05</ele>
        <time>2016-09-04T12:40:47Z</time>
      </trkpt>
      <trkpt lat="45.16632" lon="4.53588">
        <ele>960.98</ele>
        <time>2016-09-04T12:41:00Z</time>
      </trkpt>
      <trkpt lat="45.1664" lon="4.53571">
        <ele>959.53</ele>
        <time>2016-09-04T12:41:14Z</time>
      </trkpt>
      <trkpt lat="45.1665" lon="4.53553">
        <ele>959.05</ele>
        <time>2016-09-04T12:41:27Z</time>
      </trkpt>
      <trkpt lat="45.16658" lon="4.53533">
        <ele>957.61</ele>
        <time>2016-09-04T12:41:40Z</time>
      </trkpt>
      <trkpt lat="45.16661" lon="4.53521">
        <ele>958.09</ele>
        <time>2016-09-04T12:41:52Z</time>
      </trkpt>
      <trkpt lat="45.1667" lon="4.53507">
        <ele>960.98</ele>
        <time>2016-09-04T12:42:05Z</time>
      </trkpt>
      <trkpt lat="45.16673" lon="4.53505">
        <ele>960.49</ele>
        <time>2016-09-04T12:42:15Z</time>
      </trkpt>
      <trkpt lat="45.16674" lon="4.53497">
        <ele>959.05</ele>
        <time>2016-09-04T12:42:32Z</time>
      </trkpt>
      <trkpt lat="45.16674" lon="4.53493">
        <ele>958.57</ele>
        <time>2016-09-04T12:42:46Z</time>
      </trkpt>
      <trkpt lat="45.16675" lon="4.5349">
        <ele>957.13</ele>
        <time>2016-09-04T12:43:06Z</time>
      </trkpt>
      <trkpt lat="45.16675" lon="4.5349">
        <ele>957.61</ele>
        <time>2016-09-04T12:43:25Z</time>
      </trkpt>
      <trkpt lat="45.16675" lon="4.5349">
        <ele>957.13</ele>
        <time>2016-09-04T12:43:38Z</time>
      </trkpt>
      <trkpt lat="45.16675" lon="4.53489">
        <ele>957.13</ele>
        <time>2016-09-04T12:44:00Z</time>
      </trkpt>
      <trkpt lat="45.16676" lon="4.53489">
        <ele>957.13</ele>
        <time>2016-09-04T12:44:13Z</time>
      </trkpt>
      <trkpt lat="45.16676" lon="4.53488">
        <ele>957.61</ele>
        <time>2016-09-04T12:44:35Z</time>
      </trkpt>
      <trkpt lat="45.16676" lon="4.53489">
        <ele>957.61</ele>
        <time>2016-09-04T12:44:49Z</time>
      </trkpt>
      <trkpt lat="45.16676" lon="4.53491">
        <ele>957.13</ele>
        <time>2016-09-04T12:45:02Z</time>
      </trkpt>
      <trkpt lat="45.16677" lon="4.5349">
        <ele>957.13</ele>
        <time>2016-09-04T12:45:18Z</time>
      </trkpt>
      <trkpt lat="45.16677" lon="4.53488">
        <ele>957.13</ele>
        <time>2016-09-04T12:45:30Z</time>
      </trkpt>
      <trkpt lat="45.16676" lon="4.53488">
        <ele>957.61</ele>
        <time>2016-09-04T12:45:47Z</time>
      </trkpt>
      <trkpt lat="45.16676" lon="4.53488">
        <ele>958.09</ele>
        <time>2016-09-04T12:46:04Z</time>
      </trkpt>
      <trkpt lat="45.16677" lon="4.53488">
        <ele>958.09</ele>
        <time>2016-09-04T12:46:24Z</time>
      </trkpt>
      <trkpt lat="45.16677" lon="4.53488">
        <ele>957.61</ele>
        <time>2016-09-04T12:46:50Z</time>
      </trkpt>
      <trkpt lat="45.16677" lon="4.53488">
        <ele>957.61</ele>
        <time>2016-09-04T12:47:16Z</time>
      </trkpt>
      <trkpt lat="45.16678" lon="4.53489">
        <ele>957.61</ele>
        <time>2016-09-04T12:47:36Z</time>
      </trkpt>
      <trkpt lat="45.16681" lon="4.53485">
        <ele>959.05</ele>
        <time>2016-09-04T12:47:51Z</time>
      </trkpt>
      <trkpt lat="45.16683" lon="4.53468">
        <ele>959.53</ele>
        <time>2016-09-04T12:48:06Z</time>
      </trkpt>
      <trkpt lat="45.16678" lon="4.53445">
        <ele>960.01</ele>
        <time>2016-09-04T12:48:21Z</time>
      </trkpt>
      <trkpt lat="45.16673" lon="4.53426">
        <ele>961.94</ele>
        <time>2016-09-04T12:48:36Z</time>
      </trkpt>
      <trkpt lat="45.16668" lon="4.53404">
        <ele>964.82</ele>
        <time>2016-09-04T12:48:49Z</time>
      </trkpt>
      <trkpt lat="45.16665" lon="4.53378">
        <ele>966.74</ele>
        <time>2016-09-04T12:49:02Z</time>
      </trkpt>
      <trkpt lat="45.16663" lon="4.53356">
        <ele>968.18</ele>
        <time>2016-09-04T12:49:16Z</time>
      </trkpt>
      <trkpt lat="45.16662" lon="4.53329">
        <ele>967.22</ele>
        <time>2016-09-04T12:49:32Z</time>
      </trkpt>
      <trkpt lat="45.16664" lon="4.53306">
        <ele>964.82</ele>
        <time>2016-09-04T12:49:45Z</time>
      </trkpt>
      <trkpt lat="45.1667" lon="4.53282">
        <ele>963.38</ele>
        <time>2016-09-04T12:49:59Z</time>
      </trkpt>
      <trkpt lat="45.16675" lon="4.5326">
        <ele>966.74</ele>
        <time>2016-09-04T12:50:15Z</time>
      </trkpt>
      <trkpt lat="45.16677" lon="4.53253">
        <ele>968.18</ele>
        <time>2016-09-04T12:50:20Z</time>
      </trkpt>
      <trkpt lat="45.16686" lon="4.53225">
        <ele>969.15</ele>
        <time>2016-09-04T12:50:34Z</time>
      </trkpt>
      <trkpt lat="45.16696" lon="4.53197">
        <ele>967.22</ele>
        <time>2016-09-04T12:50:50Z</time>
      </trkpt>
      <trkpt lat="45.16709" lon="4.53171">
        <ele>971.07</ele>
        <time>2016-09-04T12:51:04Z</time>
      </trkpt>
      <trkpt lat="45.16722" lon="4.53145">
        <ele>973.95</ele>
        <time>2016-09-04T12:51:21Z</time>
      </trkpt>
      <trkpt lat="45.16735" lon="4.53127">
        <ele>974.43</ele>
        <time>2016-09-04T12:51:35Z</time>
      </trkpt>
      <trkpt lat="45.16736" lon="4.53108">
        <ele>975.88</ele>
        <time>2016-09-04T12:51:48Z</time>
      </trkpt>
      <trkpt lat="45.16737" lon="4.53092">
        <ele>978.76</ele>
        <time>2016-09-04T12:51:54Z</time>
      </trkpt>
      <trkpt lat="45.16727" lon="4.53085">
        <ele>979.72</ele>
        <time>2016-09-04T12:52:07Z</time>
      </trkpt>
      <trkpt lat="45.16725" lon="4.53085">
        <ele>980.2</ele>
        <time>2016-09-04T12:52:09Z</time>
      </trkpt>
      <trkpt lat="45.16708" lon="4.53075">
        <ele>984.05</ele>
        <time>2016-09-04T12:52:25Z</time>
      </trkpt>
      <trkpt lat="45.16689" lon="4.53066">
        <ele>993.18</ele>
        <time>2016-09-04T12:52:41Z</time>
      </trkpt>
      <trkpt lat="45.1667" lon="4.53059">
        <ele>996.54</ele>
        <time>2016-09-04T12:52:55Z</time>
      </trkpt>
      <trkpt lat="45.16657" lon="4.53048">
        <ele>998.47</ele>
        <time>2016-09-04T12:53:08Z</time>
      </trkpt>
      <trkpt lat="45.16647" lon="4.53029">
        <ele>1000.39</ele>
        <time>2016-09-04T12:53:23Z</time>
      </trkpt>
      <trkpt lat="45.16653" lon="4.53021">
        <ele>1002.79</ele>
        <time>2016-09-04T12:53:38Z</time>
      </trkpt>
      <trkpt lat="45.16658" lon="4.53022">
        <ele>1005.68</ele>
        <time>2016-09-04T12:53:50Z</time>
      </trkpt>
      <trkpt lat="45.1668" lon="4.53034">
        <ele>1008.08</ele>
        <time>2016-09-04T12:54:06Z</time>
      </trkpt>
      <trkpt lat="45.16692" lon="4.53031">
        <ele>1008.08</ele>
        <time>2016-09-04T12:54:19Z</time>
      </trkpt>
      <trkpt lat="45.16701" lon="4.53026">
        <ele>1009.52</ele>
        <time>2016-09-04T12:54:29Z</time>
      </trkpt>
      <trkpt lat="45.16721" lon="4.53012">
        <ele>1009.52</ele>
        <time>2016-09-04T12:54:44Z</time>
      </trkpt>
      <trkpt lat="45.16729" lon="4.53005">
        <ele>1008.56</ele>
        <time>2016-09-04T12:54:50Z</time>
      </trkpt>
      <trkpt lat="45.16738" lon="4.52998">
        <ele>1008.08</ele>
        <time>2016-09-04T12:54:56Z</time>
      </trkpt>
      <trkpt lat="45.16752" lon="4.52982">
        <ele>1010.48</ele>
        <time>2016-09-04T12:55:10Z</time>
      </trkpt>
      <trkpt lat="45.16773" lon="4.52991">
        <ele>1015.29</ele>
        <time>2016-09-04T12:55:25Z</time>
      </trkpt>
      <trkpt lat="45.16782" lon="4.53006">
        <ele>1018.17</ele>
        <time>2016-09-04T12:55:39Z</time>
      </trkpt>
      <trkpt lat="45.16785" lon="4.5301">
        <ele>1019.13</ele>
        <time>2016-09-04T12:55:51Z</time>
      </trkpt>
      <trkpt lat="45.16787" lon="4.53019">
        <ele>1021.54</ele>
        <time>2016-09-04T12:55:57Z</time>
      </trkpt>
      <trkpt lat="45.16793" lon="4.53032">
        <ele>1024.42</ele>
        <time>2016-09-04T12:56:10Z</time>
      </trkpt>
      <trkpt lat="45.16799" lon="4.53053">
        <ele>1027.79</ele>
        <time>2016-09-04T12:56:24Z</time>
      </trkpt>
      <trkpt lat="45.16799" lon="4.53067">
        <ele>1030.67</ele>
        <time>2016-09-04T12:56:32Z</time>
      </trkpt>
      <trkpt lat="45.16805" lon="4.53105">
        <ele>1031.63</ele>
        <time>2016-09-04T12:56:46Z</time>
      </trkpt>
      <trkpt lat="45.16809" lon="4.53134">
        <ele>1032.11</ele>
        <time>2016-09-04T12:57:01Z</time>
      </trkpt>
      <trkpt lat="45.1681" lon="4.53163">
        <ele>1036.92</ele>
        <time>2016-09-04T12:57:15Z</time>
      </trkpt>
      <trkpt lat="45.16817" lon="4.53185">
        <ele>1039.8</ele>
        <time>2016-09-04T12:57:29Z</time>
      </trkpt>
      <trkpt lat="45.1683" lon="4.53187">
        <ele>1046.05</ele>
        <time>2016-09-04T12:57:42Z</time>
      </trkpt>
      <trkpt lat="45.16836" lon="4.53198">
        <ele>1048.45</ele>
        <time>2016-09-04T12:57:54Z</time>
      </trkpt>
      <trkpt lat="45.16845" lon="4.53201">
        <ele>1047.01</ele>
        <time>2016-09-04T12:58:05Z</time>
      </trkpt>
      <trkpt lat="45.16851" lon="4.53203">
        <ele>1045.57</ele>
        <time>2016-09-04T12:58:11Z</time>
      </trkpt>
      <trkpt lat="45.16858" lon="4.53201">
        <ele>1044.61</ele>
        <time>2016-09-04T12:58:17Z</time>
      </trkpt>
      <trkpt lat="45.16876" lon="4.53203">
        <ele>1043.65</ele>
        <time>2016-09-04T12:58:31Z</time>
      </trkpt>
      <trkpt lat="45.16892" lon="4.53203">
        <ele>1043.65</ele>
        <time>2016-09-04T12:58:43Z</time>
      </trkpt>
      <trkpt lat="45.16905" lon="4.53203">
        <ele>1044.61</ele>
        <time>2016-09-04T12:58:55Z</time>
      </trkpt>
      <trkpt lat="45.16913" lon="4.53206">
        <ele>1046.05</ele>
        <time>2016-09-04T12:58:59Z</time>
      </trkpt>
      <trkpt lat="45.16928" lon="4.53207">
        <ele>1047.01</ele>
        <time>2016-09-04T12:59:13Z</time>
      </trkpt>
      <trkpt lat="45.16944" lon="4.53198">
        <ele>1046.05</ele>
        <time>2016-09-04T12:59:25Z</time>
      </trkpt>
      <trkpt lat="45.16954" lon="4.53193">
        <ele>1044.13</ele>
        <time>2016-09-04T12:59:33Z</time>
      </trkpt>
      <trkpt lat="45.1696" lon="4.53193">
        <ele>1043.17</ele>
        <time>2016-09-04T12:59:37Z</time>
      </trkpt>
      <trkpt lat="45.16986" lon="4.53194">
        <ele>1042.69</ele>
        <time>2016-09-04T12:59:49Z</time>
      </trkpt>
      <trkpt lat="45.17004" lon="4.53192">
        <ele>1041.25</ele>
        <time>2016-09-04T13:00:00Z</time>
      </trkpt>
      <trkpt lat="45.17023" lon="4.53193">
        <ele>1041.25</ele>
        <time>2016-09-04T13:00:12Z</time>
      </trkpt>
      <trkpt lat="45.17055" lon="4.532">
        <ele>1044.13</ele>
        <time>2016-09-04T13:00:29Z</time>
      </trkpt>
      <trkpt lat="45.17075" lon="4.53203">
        <ele>1046.05</ele>
        <time>2016-09-04T13:00:42Z</time>
      </trkpt>
      <trkpt lat="45.17099" lon="4.53214">
        <ele>1045.57</ele>
        <time>2016-09-04T13:00:57Z</time>
      </trkpt>
      <trkpt lat="45.17116" lon="4.53231">
        <ele>1047.49</ele>
        <time>2016-09-04T13:01:10Z</time>
      </trkpt>
      <trkpt lat="45.17135" lon="4.53244">
        <ele>1051.82</ele>
        <time>2016-09-04T13:01:25Z</time>
      </trkpt>
      <trkpt lat="45.17155" lon="4.53257">
        <ele>1050.38</ele>
        <time>2016-09-04T13:01:41Z</time>
      </trkpt>
      <trkpt lat="45.17165" lon="4.5326">
        <ele>1049.42</ele>
        <time>2016-09-04T13:01:50Z</time>
      </trkpt>
      <trkpt lat="45.17173" lon="4.53256">
        <ele>1048.94</ele>
        <time>2016-09-04T13:02:01Z</time>
      </trkpt>
      <trkpt lat="45.17173" lon="4.53255">
        <ele>1048.94</ele>
        <time>2016-09-04T13:02:11Z</time>
      </trkpt>
      <trkpt lat="45.17173" lon="4.53256">
        <ele>1047.97</ele>
        <time>2016-09-04T13:02:22Z</time>
      </trkpt>
      <trkpt lat="45.17173" lon="4.53254">
        <ele>1047.97</ele>
        <time>2016-09-04T13:02:36Z</time>
      </trkpt>
      <trkpt lat="45.17172" lon="4.53255">
        <ele>1048.45</ele>
        <time>2016-09-04T13:02:47Z</time>
      </trkpt>
      <trkpt lat="45.17172" lon="4.53257">
        <ele>1049.42</ele>
        <time>2016-09-04T13:02:59Z</time>
      </trkpt>
      <trkpt lat="45.17173" lon="4.53252">
        <ele>1049.42</ele>
        <time>2016-09-04T13:03:12Z</time>
      </trkpt>
      <trkpt lat="45.17172" lon="4.53251">
        <ele>1048.94</ele>
        <time>2016-09-04T13:03:18Z</time>
      </trkpt>
      <trkpt lat="45.1717" lon="4.53251">
        <ele>1048.45</ele>
        <time>2016-09-04T13:03:29Z</time>
      </trkpt>
      <trkpt lat="45.17171" lon="4.53258">
        <ele>1048.94</ele>
        <time>2016-09-04T13:03:42Z</time>
      </trkpt>
      <trkpt lat="45.17172" lon="4.53259">
        <ele>1048.94</ele>
        <time>2016-09-04T13:03:57Z</time>
      </trkpt>
      <trkpt lat="45.17172" lon="4.53258">
        <ele>1049.42</ele>
        <time>2016-09-04T13:04:09Z</time>
      </trkpt>
      <trkpt lat="45.17171" lon="4.53263">
        <ele>1047.97</ele>
        <time>2016-09-04T13:04:23Z</time>
      </trkpt>
      <trkpt lat="45.17172" lon="4.53261">
        <ele>1047.01</ele>
        <time>2016-09-04T13:04:36Z</time>
      </trkpt>
      <trkpt lat="45.17173" lon="4.53258">
        <ele>1047.49</ele>
        <time>2016-09-04T13:04:52Z</time>
      </trkpt>
      <trkpt lat="45.17171" lon="4.5325">
        <ele>1048.45</ele>
        <time>2016-09-04T13:05:08Z</time>
      </trkpt>
      <trkpt lat="45.17168" lon="4.53242">
        <ele>1047.49</ele>
        <time>2016-09-04T13:05:22Z</time>
      </trkpt>
      <trkpt lat="45.17156" lon="4.53232">
        <ele>1047.01</ele>
        <time>2016-09-04T13:05:35Z</time>
      </trkpt>
      <trkpt lat="45.17148" lon="4.53224">
        <ele>1047.97</ele>
        <time>2016-09-04T13:05:45Z</time>
      </trkpt>
      <trkpt lat="45.17133" lon="4.53211">
        <ele>1052.3</ele>
        <time>2016-09-04T13:06:02Z</time>
      </trkpt>
      <trkpt lat="45.1713" lon="4.5321">
        <ele>1053.74</ele>
        <time>2016-09-04T13:06:05Z</time>
      </trkpt>
      <trkpt lat="45.17128" lon="4.53208">
        <ele>1055.18</ele>
        <time>2016-09-04T13:06:08Z</time>
      </trkpt>
      <trkpt lat="45.17121" lon="4.53198">
        <ele>1057.11</ele>
        <time>2016-09-04T13:06:15Z</time>
      </trkpt>
      <trkpt lat="45.17108" lon="4.53188">
        <ele>1058.55</ele>
        <time>2016-09-04T13:06:27Z</time>
      </trkpt>
      <trkpt lat="45.17102" lon="4.53178">
        <ele>1060.47</ele>
        <time>2016-09-04T13:06:38Z</time>
      </trkpt>
      <trkpt lat="45.17083" lon="4.53166">
        <ele>1064.8</ele>
        <time>2016-09-04T13:06:55Z</time>
      </trkpt>
      <trkpt lat="45.1707" lon="4.53158">
        <ele>1067.68</ele>
        <time>2016-09-04T13:07:09Z</time>
      </trkpt>
      <trkpt lat="45.17053" lon="4.53155">
        <ele>1072.97</ele>
        <time>2016-09-04T13:07:24Z</time>
      </trkpt>
      <trkpt lat="45.17039" lon="4.53151">
        <ele>1080.66</ele>
        <time>2016-09-04T13:07:39Z</time>
      </trkpt>
      <trkpt lat="45.17035" lon="4.53148">
        <ele>1083.06</ele>
        <time>2016-09-04T13:07:44Z</time>
      </trkpt>
      <trkpt lat="45.17022" lon="4.53136">
        <ele>1090.75</ele>
        <time>2016-09-04T13:07:59Z</time>
      </trkpt>
      <trkpt lat="45.17002" lon="4.53128">
        <ele>1091.71</ele>
        <time>2016-09-04T13:08:11Z</time>
      </trkpt>
      <trkpt lat="45.16983" lon="4.53114">
        <ele>1087.87</ele>
        <time>2016-09-04T13:08:23Z</time>
      </trkpt>
      <trkpt lat="45.16973" lon="4.53098">
        <ele>1085.95</ele>
        <time>2016-09-04T13:08:31Z</time>
      </trkpt>
      <trkpt lat="45.1696" lon="4.53063">
        <ele>1078.74</ele>
        <time>2016-09-04T13:08:47Z</time>
      </trkpt>
      <trkpt lat="45.16955" lon="4.53034">
        <ele>1075.85</ele>
        <time>2016-09-04T13:09:02Z</time>
      </trkpt>
      <trkpt lat="45.16955" lon="4.53033">
        <ele>1075.85</ele>
        <time>2016-09-04T13:09:04Z</time>
      </trkpt>
      <trkpt lat="45.16945" lon="4.53011">
        <ele>1075.85</ele>
        <time>2016-09-04T13:09:17Z</time>
      </trkpt>
      <trkpt lat="45.16944" lon="4.5301">
        <ele>1075.85</ele>
        <time>2016-09-04T13:09:18Z</time>
      </trkpt>
      <trkpt lat="45.16936" lon="4.52991">
        <ele>1075.37</ele>
        <time>2016-09-04T13:09:33Z</time>
      </trkpt>
      <trkpt lat="45.16927" lon="4.52971">
        <ele>1075.37</ele>
        <time>2016-09-04T13:09:46Z</time>
      </trkpt>
      <trkpt lat="45.16919" lon="4.52952">
        <ele>1074.89</ele>
        <time>2016-09-04T13:09:59Z</time>
      </trkpt>
      <trkpt lat="45.16915" lon="4.52944">
        <ele>1074.89</ele>
        <time>2016-09-04T13:10:04Z</time>
      </trkpt>
      <trkpt lat="45.16905" lon="4.52925">
        <ele>1074.41</ele>
        <time>2016-09-04T13:10:17Z</time>
      </trkpt>
      <trkpt lat="45.16896" lon="4.52906">
        <ele>1075.85</ele>
        <time>2016-09-04T13:10:28Z</time>
      </trkpt>
      <trkpt lat="45.16891" lon="4.52896">
        <ele>1076.33</ele>
        <time>2016-09-04T13:10:34Z</time>
      </trkpt>
      <trkpt lat="45.1688" lon="4.52867">
        <ele>1075.37</ele>
        <time>2016-09-04T13:10:49Z</time>
      </trkpt>
      <trkpt lat="45.1687" lon="4.52841">
        <ele>1075.85</ele>
        <time>2016-09-04T13:11:03Z</time>
      </trkpt>
      <trkpt lat="45.16862" lon="4.52815">
        <ele>1075.85</ele>
        <time>2016-09-04T13:11:18Z</time>
      </trkpt>
      <trkpt lat="45.16855" lon="4.52794">
        <ele>1076.81</ele>
        <time>2016-09-04T13:11:30Z</time>
      </trkpt>
      <trkpt lat="45.16845" lon="4.52771">
        <ele>1078.26</ele>
        <time>2016-09-04T13:11:43Z</time>
      </trkpt>
      <trkpt lat="45.16842" lon="4.52765">
        <ele>1079.7</ele>
        <time>2016-09-04T13:11:47Z</time>
      </trkpt>
      <trkpt lat="45.16828" lon="4.52749">
        <ele>1080.66</ele>
        <time>2016-09-04T13:12:01Z</time>
      </trkpt>
      <trkpt lat="45.16813" lon="4.52738">
        <ele>1081.14</ele>
        <time>2016-09-04T13:12:16Z</time>
      </trkpt>
      <trkpt lat="45.16795" lon="4.52729">
        <ele>1084.5</ele>
        <time>2016-09-04T13:12:30Z</time>
      </trkpt>
      <trkpt lat="45.16793" lon="4.52728">
        <ele>1084.99</ele>
        <time>2016-09-04T13:12:32Z</time>
      </trkpt>
      <trkpt lat="45.16786" lon="4.52726">
        <ele>1085.47</ele>
        <time>2016-09-04T13:12:36Z</time>
      </trkpt>
      <trkpt lat="45.16768" lon="4.52723">
        <ele>1088.83</ele>
        <time>2016-09-04T13:12:51Z</time>
      </trkpt>
      <trkpt lat="45.16757" lon="4.52723">
        <ele>1091.23</ele>
        <time>2016-09-04T13:13:00Z</time>
      </trkpt>
      <trkpt lat="45.16741" lon="4.52726">
        <ele>1095.56</ele>
        <time>2016-09-04T13:13:13Z</time>
      </trkpt>
      <trkpt lat="45.16718" lon="4.52731">
        <ele>1096.52</ele>
        <time>2016-09-04T13:13:30Z</time>
      </trkpt>
      <trkpt lat="45.16699" lon="4.52737">
        <ele>1092.2</ele>
        <time>2016-09-04T13:13:44Z</time>
      </trkpt>
      <trkpt lat="45.16683" lon="4.52741">
        <ele>1090.75</ele>
        <time>2016-09-04T13:14:01Z</time>
      </trkpt>
      <trkpt lat="45.16674" lon="4.52744">
        <ele>1090.27</ele>
        <time>2016-09-04T13:14:07Z</time>
      </trkpt>
      <trkpt lat="45.16656" lon="4.52747">
        <ele>1089.31</ele>
        <time>2016-09-04T13:14:19Z</time>
      </trkpt>
      <trkpt lat="45.16636" lon="4.52749">
        <ele>1092.2</ele>
        <time>2016-09-04T13:14:33Z</time>
      </trkpt>
      <trkpt lat="45.16616" lon="4.52749">
        <ele>1093.64</ele>
        <time>2016-09-04T13:14:48Z</time>
      </trkpt>
      <trkpt lat="45.16594" lon="4.52751">
        <ele>1097.48</ele>
        <time>2016-09-04T13:15:02Z</time>
      </trkpt>
      <trkpt lat="45.16578" lon="4.52752">
        <ele>1099.4</ele>
        <time>2016-09-04T13:15:13Z</time>
      </trkpt>
      <trkpt lat="45.1656" lon="4.52757">
        <ele>1100.85</ele>
        <time>2016-09-04T13:15:27Z</time>
      </trkpt>
      <trkpt lat="45.16544" lon="4.52764">
        <ele>1101.33</ele>
        <time>2016-09-04T13:15:39Z</time>
      </trkpt>
      <trkpt lat="45.16529" lon="4.52771">
        <ele>1097.48</ele>
        <time>2016-09-04T13:15:53Z</time>
      </trkpt>
      <trkpt lat="45.16515" lon="4.52773">
        <ele>1096.52</ele>
        <time>2016-09-04T13:16:07Z</time>
      </trkpt>
      <trkpt lat="45.16511" lon="4.5277">
        <ele>1091.23</ele>
        <time>2016-09-04T13:16:21Z</time>
      </trkpt>
      <trkpt lat="45.16511" lon="4.5277">
        <ele>1088.83</ele>
        <time>2016-09-04T13:16:50Z</time>
      </trkpt>
      <trkpt lat="45.16502" lon="4.52778">
        <ele>1089.79</ele>
        <time>2016-09-04T13:17:04Z</time>
      </trkpt>
      <trkpt lat="45.16492" lon="4.52791">
        <ele>1090.27</ele>
        <time>2016-09-04T13:17:17Z</time>
      </trkpt>
      <trkpt lat="45.16481" lon="4.528">
        <ele>1089.31</ele>
        <time>2016-09-04T13:17:31Z</time>
      </trkpt>
      <trkpt lat="45.1647" lon="4.52811">
        <ele>1086.43</ele>
        <time>2016-09-04T13:17:44Z</time>
      </trkpt>
      <trkpt lat="45.16462" lon="4.52826">
        <ele>1079.22</ele>
        <time>2016-09-04T13:18:00Z</time>
      </trkpt>
      <trkpt lat="45.16458" lon="4.5283">
        <ele>1078.26</ele>
        <time>2016-09-04T13:18:04Z</time>
      </trkpt>
      <trkpt lat="45.16453" lon="4.52837">
        <ele>1076.81</ele>
        <time>2016-09-04T13:18:10Z</time>
      </trkpt>
      <trkpt lat="45.1645" lon="4.52839">
        <ele>1075.85</ele>
        <time>2016-09-04T13:18:12Z</time>
      </trkpt>
      <trkpt lat="45.16442" lon="4.52848">
        <ele>1074.89</ele>
        <time>2016-09-04T13:18:19Z</time>
      </trkpt>
      <trkpt lat="45.16436" lon="4.52858">
        <ele>1074.89</ele>
        <time>2016-09-04T13:18:27Z</time>
      </trkpt>
      <trkpt lat="45.16421" lon="4.52872">
        <ele>1078.74</ele>
        <time>2016-09-04T13:18:40Z</time>
      </trkpt>
      <trkpt lat="45.1641" lon="4.52889">
        <ele>1083.54</ele>
        <time>2016-09-04T13:18:54Z</time>
      </trkpt>
      <trkpt lat="45.16407" lon="4.52909">
        <ele>1083.06</ele>
        <time>2016-09-04T13:19:07Z</time>
      </trkpt>
      <trkpt lat="45.16405" lon="4.52915">
        <ele>1080.18</ele>
        <time>2016-09-04T13:19:23Z</time>
      </trkpt>
      <trkpt lat="45.16406" lon="4.52917">
        <ele>1077.78</ele>
        <time>2016-09-04T13:19:40Z</time>
      </trkpt>
      <trkpt lat="45.16408" lon="4.5292">
        <ele>1073.45</ele>
        <time>2016-09-04T13:20:00Z</time>
      </trkpt>
      <trkpt lat="45.16409" lon="4.52914">
        <ele>1072.97</ele>
        <time>2016-09-04T13:20:09Z</time>
      </trkpt>
      <trkpt lat="45.1641" lon="4.52912">
        <ele>1073.45</ele>
        <time>2016-09-04T13:20:11Z</time>
      </trkpt>
      <trkpt lat="45.16414" lon="4.52892">
        <ele>1074.41</ele>
        <time>2016-09-04T13:20:26Z</time>
      </trkpt>
      <trkpt lat="45.16423" lon="4.52871">
        <ele>1073.45</ele>
        <time>2016-09-04T13:20:42Z</time>
      </trkpt>
      <trkpt lat="45.1643" lon="4.5286">
        <ele>1075.85</ele>
        <time>2016-09-04T13:20:53Z</time>
      </trkpt>
      <trkpt lat="45.16433" lon="4.52852">
        <ele>1077.29</ele>
        <time>2016-09-04T13:20:58Z</time>
      </trkpt>
      <trkpt lat="45.16449" lon="4.52834">
        <ele>1081.14</ele>
        <time>2016-09-04T13:21:16Z</time>
      </trkpt>
      <trkpt lat="45.16465" lon="4.52817">
        <ele>1079.7</ele>
        <time>2016-09-04T13:21:33Z</time>
      </trkpt>
      <trkpt lat="45.16479" lon="4.52804">
        <ele>1081.14</ele>
        <time>2016-09-04T13:21:49Z</time>
      </trkpt>
      <trkpt lat="45.16496" lon="4.52794">
        <ele>1083.06</ele>
        <time>2016-09-04T13:22:05Z</time>
      </trkpt>
      <trkpt lat="45.16504" lon="4.52773">
        <ele>1084.02</ele>
        <time>2016-09-04T13:22:22Z</time>
      </trkpt>
      <trkpt lat="45.16506" lon="4.5277">
        <ele>1083.54</ele>
        <time>2016-09-04T13:22:37Z</time>
      </trkpt>
      <trkpt lat="45.16507" lon="4.5277">
        <ele>1084.02</ele>
        <time>2016-09-04T13:23:01Z</time>
      </trkpt>
      <trkpt lat="45.16507" lon="4.52769">
        <ele>1084.02</ele>
        <time>2016-09-04T13:23:18Z</time>
      </trkpt>
      <trkpt lat="45.16507" lon="4.52769">
        <ele>1083.54</ele>
        <time>2016-09-04T13:23:56Z</time>
      </trkpt>
      <trkpt lat="45.16507" lon="4.52768">
        <ele>1084.02</ele>
        <time>2016-09-04T13:24:32Z</time>
      </trkpt>
      <trkpt lat="45.16507" lon="4.52768">
        <ele>1084.02</ele>
        <time>2016-09-04T13:25:04Z</time>
      </trkpt>
      <trkpt lat="45.16507" lon="4.52768">
        <ele>1083.54</ele>
        <time>2016-09-04T13:25:34Z</time>
      </trkpt>
      <trkpt lat="45.16507" lon="4.52768">
        <ele>1083.06</ele>
        <time>2016-09-04T13:26:03Z</time>
      </trkpt>
      <trkpt lat="45.16507" lon="4.52768">
        <ele>1082.58</ele>
        <time>2016-09-04T13:26:28Z</time>
      </trkpt>
      <trkpt lat="45.16508" lon="4.52769">
        <ele>1082.1</ele>
        <time>2016-09-04T13:26:59Z</time>
      </trkpt>
      <trkpt lat="45.16508" lon="4.52768">
        <ele>1081.62</ele>
        <time>2016-09-04T13:27:31Z</time>
      </trkpt>
      <trkpt lat="45.16507" lon="4.5277">
        <ele>1080.66</ele>
        <time>2016-09-04T13:28:02Z</time>
      </trkpt>
      <trkpt lat="45.16507" lon="4.52769">
        <ele>1080.18</ele>
        <time>2016-09-04T13:28:41Z</time>
      </trkpt>
      <trkpt lat="45.16507" lon="4.52768">
        <ele>1080.18</ele>
        <time>2016-09-04T13:29:13Z</time>
      </trkpt>
      <trkpt lat="45.16507" lon="4.52768">
        <ele>1080.66</ele>
        <time>2016-09-04T13:29:45Z</time>
      </trkpt>
      <trkpt lat="45.16507" lon="4.52768">
        <ele>1081.14</ele>
        <time>2016-09-04T13:30:24Z</time>
      </trkpt>
      <trkpt lat="45.16507" lon="4.52768">
        <ele>1081.14</ele>
        <time>2016-09-04T13:30:58Z</time>
      </trkpt>
      <trkpt lat="45.16507" lon="4.52769">
        <ele>1081.62</ele>
        <time>2016-09-04T13:31:26Z</time>
      </trkpt>
      <trkpt lat="45.16509" lon="4.52769">
        <ele>1081.14</ele>
        <time>2016-09-04T13:31:59Z</time>
      </trkpt>
      <trkpt lat="45.16511" lon="4.52775">
        <ele>1082.58</ele>
        <time>2016-09-04T13:32:13Z</time>
      </trkpt>
      <trkpt lat="45.1651" lon="4.52775">
        <ele>1082.58</ele>
        <time>2016-09-04T13:32:33Z</time>
      </trkpt>
      <trkpt lat="45.16509" lon="4.52774">
        <ele>1082.58</ele>
        <time>2016-09-04T13:32:35Z</time>
      </trkpt>
      <trkpt lat="45.16506" lon="4.52767">
        <ele>1083.06</ele>
        <time>2016-09-04T13:32:41Z</time>
      </trkpt>
      <trkpt lat="45.16518" lon="4.52742">
        <ele>1084.99</ele>
        <time>2016-09-04T13:32:58Z</time>
      </trkpt>
      <trkpt lat="45.1653" lon="4.52725">
        <ele>1087.39</ele>
        <time>2016-09-04T13:33:13Z</time>
      </trkpt>
      <trkpt lat="45.16545" lon="4.52706">
        <ele>1089.79</ele>
        <time>2016-09-04T13:33:29Z</time>
      </trkpt>
      <trkpt lat="45.16562" lon="4.52688">
        <ele>1093.64</ele>
        <time>2016-09-04T13:33:45Z</time>
      </trkpt>
      <trkpt lat="45.16572" lon="4.52666">
        <ele>1095.56</ele>
        <time>2016-09-04T13:33:59Z</time>
      </trkpt>
      <trkpt lat="45.16574" lon="4.52663">
        <ele>1096.04</ele>
        <time>2016-09-04T13:34:01Z</time>
      </trkpt>
      <trkpt lat="45.16581" lon="4.52638">
        <ele>1099.89</ele>
        <time>2016-09-04T13:34:17Z</time>
      </trkpt>
      <trkpt lat="45.16582" lon="4.52629">
        <ele>1101.33</ele>
        <time>2016-09-04T13:34:23Z</time>
      </trkpt>
      <trkpt lat="45.16583" lon="4.52625">
        <ele>1101.81</ele>
        <time>2016-09-04T13:34:25Z</time>
      </trkpt>
      <trkpt lat="45.16588" lon="4.52609">
        <ele>1105.17</ele>
        <time>2016-09-04T13:34:35Z</time>
      </trkpt>
      <trkpt lat="45.16594" lon="4.52586">
        <ele>1109.98</ele>
        <time>2016-09-04T13:34:50Z</time>
      </trkpt>
      <trkpt lat="45.166" lon="4.52566">
        <ele>1112.38</ele>
        <time>2016-09-04T13:35:03Z</time>
      </trkpt>
      <trkpt lat="45.16603" lon="4.5255">
        <ele>1117.67</ele>
        <time>2016-09-04T13:35:17Z</time>
      </trkpt>
      <trkpt lat="45.16602" lon="4.52538">
        <ele>1121.52</ele>
        <time>2016-09-04T13:35:25Z</time>
      </trkpt>
      <trkpt lat="45.16603" lon="4.52532">
        <ele>1122</ele>
        <time>2016-09-04T13:35:28Z</time>
      </trkpt>
      <trkpt lat="45.166" lon="4.52499">
        <ele>1122.48</ele>
        <time>2016-09-04T13:35:45Z</time>
      </trkpt>
      <trkpt lat="45.16598" lon="4.52488">
        <ele>1123.44</ele>
        <time>2016-09-04T13:35:52Z</time>
      </trkpt>
      <trkpt lat="45.16597" lon="4.52483">
        <ele>1123.92</ele>
        <time>2016-09-04T13:35:55Z</time>
      </trkpt>
      <trkpt lat="45.16598" lon="4.52474">
        <ele>1123.92</ele>
        <time>2016-09-04T13:35:59Z</time>
      </trkpt>
      <trkpt lat="45.16598" lon="4.52445">
        <ele>1124.88</ele>
        <time>2016-09-04T13:36:14Z</time>
      </trkpt>
      <trkpt lat="45.16594" lon="4.52423">
        <ele>1124.88</ele>
        <time>2016-09-04T13:36:27Z</time>
      </trkpt>
      <trkpt lat="45.16593" lon="4.52403">
        <ele>1126.32</ele>
        <time>2016-09-04T13:36:39Z</time>
      </trkpt>
      <trkpt lat="45.1659" lon="4.52375">
        <ele>1127.76</ele>
        <time>2016-09-04T13:36:54Z</time>
      </trkpt>
      <trkpt lat="45.16585" lon="4.52348">
        <ele>1132.09</ele>
        <time>2016-09-04T13:37:08Z</time>
      </trkpt>
      <trkpt lat="45.16584" lon="4.52345">
        <ele>1132.57</ele>
        <time>2016-09-04T13:37:10Z</time>
      </trkpt>
      <trkpt lat="45.16582" lon="4.52318">
        <ele>1138.82</ele>
        <time>2016-09-04T13:37:24Z</time>
      </trkpt>
      <trkpt lat="45.16579" lon="4.52308">
        <ele>1139.78</ele>
        <time>2016-09-04T13:37:29Z</time>
      </trkpt>
      <trkpt lat="45.16574" lon="4.52291">
        <ele>1140.74</ele>
        <time>2016-09-04T13:37:38Z</time>
      </trkpt>
      <trkpt lat="45.16573" lon="4.52284">
        <ele>1141.22</ele>
        <time>2016-09-04T13:37:42Z</time>
      </trkpt>
      <trkpt lat="45.1657" lon="4.52265">
        <ele>1142.66</ele>
        <time>2016-09-04T13:37:53Z</time>
      </trkpt>
      <trkpt lat="45.16569" lon="4.52261">
        <ele>1144.59</ele>
        <time>2016-09-04T13:37:56Z</time>
      </trkpt>
      <trkpt lat="45.16567" lon="4.52248">
        <ele>1148.43</ele>
        <time>2016-09-04T13:38:03Z</time>
      </trkpt>
      <trkpt lat="45.16565" lon="4.52233">
        <ele>1148.91</ele>
        <time>2016-09-04T13:38:10Z</time>
      </trkpt>
      <trkpt lat="45.16567" lon="4.52222">
        <ele>1148.43</ele>
        <time>2016-09-04T13:38:15Z</time>
      </trkpt>
      <trkpt lat="45.16565" lon="4.52215">
        <ele>1148.43</ele>
        <time>2016-09-04T13:38:19Z</time>
      </trkpt>
      <trkpt lat="45.16563" lon="4.52206">
        <ele>1148.91</ele>
        <time>2016-09-04T13:38:24Z</time>
      </trkpt>
      <trkpt lat="45.1656" lon="4.52195">
        <ele>1148.43</ele>
        <time>2016-09-04T13:38:29Z</time>
      </trkpt>
      <trkpt lat="45.1656" lon="4.52191">
        <ele>1147.95</ele>
        <time>2016-09-04T13:38:31Z</time>
      </trkpt>
      <trkpt lat="45.16555" lon="4.52166">
        <ele>1151.8</ele>
        <time>2016-09-04T13:38:46Z</time>
      </trkpt>
      <trkpt lat="45.16552" lon="4.52148">
        <ele>1154.2</ele>
        <time>2016-09-04T13:38:55Z</time>
      </trkpt>
      <trkpt lat="45.16551" lon="4.5214">
        <ele>1154.68</ele>
        <time>2016-09-04T13:38:59Z</time>
      </trkpt>
      <trkpt lat="45.16542" lon="4.52113">
        <ele>1157.56</ele>
        <time>2016-09-04T13:39:15Z</time>
      </trkpt>
      <trkpt lat="45.16536" lon="4.52103">
        <ele>1157.56</ele>
        <time>2016-09-04T13:39:22Z</time>
      </trkpt>
      <trkpt lat="45.16524" lon="4.52078">
        <ele>1152.76</ele>
        <time>2016-09-04T13:39:36Z</time>
      </trkpt>
      <trkpt lat="45.16519" lon="4.52053">
        <ele>1157.08</ele>
        <time>2016-09-04T13:39:51Z</time>
      </trkpt>
      <trkpt lat="45.1651" lon="4.52027">
        <ele>1163.81</ele>
        <time>2016-09-04T13:40:07Z</time>
      </trkpt>
      <trkpt lat="45.16508" lon="4.52024">
        <ele>1165.26</ele>
        <time>2016-09-04T13:40:10Z</time>
      </trkpt>
      <trkpt lat="45.16495" lon="4.52019">
        <ele>1170.54</ele>
        <time>2016-09-04T13:40:25Z</time>
      </trkpt>
      <trkpt lat="45.16478" lon="4.52016">
        <ele>1174.39</ele>
        <time>2016-09-04T13:40:40Z</time>
      </trkpt>
      <trkpt lat="45.16466" lon="4.5201">
        <ele>1176.31</ele>
        <time>2016-09-04T13:40:53Z</time>
      </trkpt>
      <trkpt lat="45.16458" lon="4.52005">
        <ele>1176.31</ele>
        <time>2016-09-04T13:41:02Z</time>
      </trkpt>
      <trkpt lat="45.16444" lon="4.52003">
        <ele>1175.35</ele>
        <time>2016-09-04T13:41:15Z</time>
      </trkpt>
      <trkpt lat="45.1643" lon="4.51996">
        <ele>1172.47</ele>
        <time>2016-09-04T13:41:27Z</time>
      </trkpt>
      <trkpt lat="45.16408" lon="4.51987">
        <ele>1166.22</ele>
        <time>2016-09-04T13:41:41Z</time>
      </trkpt>
      <trkpt lat="45.1639" lon="4.51979">
        <ele>1165.26</ele>
        <time>2016-09-04T13:41:56Z</time>
      </trkpt>
      <trkpt lat="45.16379" lon="4.51976">
        <ele>1167.66</ele>
        <time>2016-09-04T13:42:09Z</time>
      </trkpt>
      <trkpt lat="45.16361" lon="4.51978">
        <ele>1171.98</ele>
        <time>2016-09-04T13:42:25Z</time>
      </trkpt>
      <trkpt lat="45.16356" lon="4.51979">
        <ele>1173.91</ele>
        <time>2016-09-04T13:42:31Z</time>
      </trkpt>
      <trkpt lat="45.16339" lon="4.5198">
        <ele>1179.19</ele>
        <time>2016-09-04T13:42:47Z</time>
      </trkpt>
      <trkpt lat="45.16321" lon="4.51983">
        <ele>1181.12</ele>
        <time>2016-09-04T13:43:00Z</time>
      </trkpt>
      <trkpt lat="45.16306" lon="4.51985">
        <ele>1184</ele>
        <time>2016-09-04T13:43:11Z</time>
      </trkpt>
      <trkpt lat="45.16273" lon="4.5199">
        <ele>1179.67</ele>
        <time>2016-09-04T13:43:26Z</time>
      </trkpt>
      <trkpt lat="45.16259" lon="4.51989">
        <ele>1177.27</ele>
        <time>2016-09-04T13:43:37Z</time>
      </trkpt>
      <trkpt lat="45.16244" lon="4.51988">
        <ele>1176.79</ele>
        <time>2016-09-04T13:43:50Z</time>
      </trkpt>
      <trkpt lat="45.1622" lon="4.51989">
        <ele>1174.39</ele>
        <time>2016-09-04T13:44:05Z</time>
      </trkpt>
      <trkpt lat="45.16203" lon="4.51986">
        <ele>1177.75</ele>
        <time>2016-09-04T13:44:19Z</time>
      </trkpt>
      <trkpt lat="45.16187" lon="4.51985">
        <ele>1177.27</ele>
        <time>2016-09-04T13:44:32Z</time>
      </trkpt>
      <trkpt lat="45.1617" lon="4.51987">
        <ele>1176.31</ele>
        <time>2016-09-04T13:44:45Z</time>
      </trkpt>
      <trkpt lat="45.16154" lon="4.51984">
        <ele>1176.31</ele>
        <time>2016-09-04T13:44:57Z</time>
      </trkpt>
      <trkpt lat="45.16133" lon="4.5198">
        <ele>1174.39</ele>
        <time>2016-09-04T13:45:11Z</time>
      </trkpt>
      <trkpt lat="45.16112" lon="4.51977">
        <ele>1175.35</ele>
        <time>2016-09-04T13:45:26Z</time>
      </trkpt>
      <trkpt lat="45.16092" lon="4.51971">
        <ele>1176.79</ele>
        <time>2016-09-04T13:45:40Z</time>
      </trkpt>
      <trkpt lat="45.16077" lon="4.51964">
        <ele>1178.23</ele>
        <time>2016-09-04T13:45:53Z</time>
      </trkpt>
      <trkpt lat="45.16065" lon="4.51957">
        <ele>1182.56</ele>
        <time>2016-09-04T13:46:06Z</time>
      </trkpt>
      <trkpt lat="45.16053" lon="4.5195">
        <ele>1185.92</ele>
        <time>2016-09-04T13:46:16Z</time>
      </trkpt>
      <trkpt lat="45.16046" lon="4.51945">
        <ele>1186.4</ele>
        <time>2016-09-04T13:46:21Z</time>
      </trkpt>
      <trkpt lat="45.16029" lon="4.51942">
        <ele>1190.25</ele>
        <time>2016-09-04T13:46:35Z</time>
      </trkpt>
      <trkpt lat="45.16011" lon="4.51934">
        <ele>1190.73</ele>
        <time>2016-09-04T13:46:48Z</time>
      </trkpt>
      <trkpt lat="45.15985" lon="4.51926">
        <ele>1190.73</ele>
        <time>2016-09-04T13:47:05Z</time>
      </trkpt>
      <trkpt lat="45.1597" lon="4.51918">
        <ele>1188.81</ele>
        <time>2016-09-04T13:47:17Z</time>
      </trkpt>
      <trkpt lat="45.15949" lon="4.51912">
        <ele>1186.88</ele>
        <time>2016-09-04T13:47:33Z</time>
      </trkpt>
      <trkpt lat="45.15933" lon="4.51909">
        <ele>1187.85</ele>
        <time>2016-09-04T13:47:46Z</time>
      </trkpt>
      <trkpt lat="45.15912" lon="4.51906">
        <ele>1189.29</ele>
        <time>2016-09-04T13:48:02Z</time>
      </trkpt>
      <trkpt lat="45.15892" lon="4.51901">
        <ele>1189.77</ele>
        <time>2016-09-04T13:48:17Z</time>
      </trkpt>
      <trkpt lat="45.15872" lon="4.5189">
        <ele>1189.77</ele>
        <time>2016-09-04T13:48:33Z</time>
      </trkpt>
      <trkpt lat="45.15856" lon="4.51874">
        <ele>1192.17</ele>
        <time>2016-09-04T13:48:47Z</time>
      </trkpt>
      <trkpt lat="45.15847" lon="4.51848">
        <ele>1195.54</ele>
        <time>2016-09-04T13:49:02Z</time>
      </trkpt>
      <trkpt lat="45.15843" lon="4.51825">
        <ele>1196.02</ele>
        <time>2016-09-04T13:49:13Z</time>
      </trkpt>
      <trkpt lat="45.15845" lon="4.51807">
        <ele>1193.61</ele>
        <time>2016-09-04T13:49:23Z</time>
      </trkpt>
      <trkpt lat="45.15846" lon="4.51801">
        <ele>1194.09</ele>
        <time>2016-09-04T13:49:27Z</time>
      </trkpt>
      <trkpt lat="45.15851" lon="4.51778">
        <ele>1197.46</ele>
        <time>2016-09-04T13:49:43Z</time>
      </trkpt>
      <trkpt lat="45.15849" lon="4.5177">
        <ele>1196.02</ele>
        <time>2016-09-04T13:49:46Z</time>
      </trkpt>
      <trkpt lat="45.15863" lon="4.51762">
        <ele>1192.65</ele>
        <time>2016-09-04T13:50:01Z</time>
      </trkpt>
      <trkpt lat="45.15863" lon="4.5176">
        <ele>1190.25</ele>
        <time>2016-09-04T13:50:19Z</time>
      </trkpt>
      <trkpt lat="45.15865" lon="4.51759">
        <ele>1188.33</ele>
        <time>2016-09-04T13:50:41Z</time>
      </trkpt>
      <trkpt lat="45.15863" lon="4.5176">
        <ele>1186.88</ele>
        <time>2016-09-04T13:50:56Z</time>
      </trkpt>
      <trkpt lat="45.15846" lon="4.51749">
        <ele>1183.04</ele>
        <time>2016-09-04T13:51:14Z</time>
      </trkpt>
      <trkpt lat="45.15829" lon="4.51734">
        <ele>1186.4</ele>
        <time>2016-09-04T13:51:29Z</time>
      </trkpt>
      <trkpt lat="45.15827" lon="4.51733">
        <ele>1187.37</ele>
        <time>2016-09-04T13:51:31Z</time>
      </trkpt>
      <trkpt lat="45.15808" lon="4.51717">
        <ele>1193.13</ele>
        <time>2016-09-04T13:51:47Z</time>
      </trkpt>
      <trkpt lat="45.15792" lon="4.51707">
        <ele>1196.02</ele>
        <time>2016-09-04T13:52:03Z</time>
      </trkpt>
      <trkpt lat="45.15771" lon="4.517">
        <ele>1200.34</ele>
        <time>2016-09-04T13:52:18Z</time>
      </trkpt>
      <trkpt lat="45.15753" lon="4.51692">
        <ele>1204.67</ele>
        <time>2016-09-04T13:52:32Z</time>
      </trkpt>
      <trkpt lat="45.15733" lon="4.51685">
        <ele>1203.71</ele>
        <time>2016-09-04T13:52:47Z</time>
      </trkpt>
      <trkpt lat="45.15708" lon="4.51683">
        <ele>1199.86</ele>
        <time>2016-09-04T13:53:02Z</time>
      </trkpt>
      <trkpt lat="45.15689" lon="4.51686">
        <ele>1198.9</ele>
        <time>2016-09-04T13:53:15Z</time>
      </trkpt>
      <trkpt lat="45.15667" lon="4.51689">
        <ele>1197.94</ele>
        <time>2016-09-04T13:53:29Z</time>
      </trkpt>
      <trkpt lat="45.15658" lon="4.5169">
        <ele>1196.98</ele>
        <time>2016-09-04T13:53:35Z</time>
      </trkpt>
      <trkpt lat="45.15637" lon="4.51688">
        <ele>1196.98</ele>
        <time>2016-09-04T13:53:51Z</time>
      </trkpt>
      <trkpt lat="45.15618" lon="4.51679">
        <ele>1197.46</ele>
        <time>2016-09-04T13:54:07Z</time>
      </trkpt>
      <trkpt lat="45.15597" lon="4.51664">
        <ele>1198.9</ele>
        <time>2016-09-04T13:54:25Z</time>
      </trkpt>
      <trkpt lat="45.15595" lon="4.5166">
        <ele>1199.38</ele>
        <time>2016-09-04T13:54:28Z</time>
      </trkpt>
      <trkpt lat="45.15581" lon="4.51642">
        <ele>1201.79</ele>
        <time>2016-09-04T13:54:43Z</time>
      </trkpt>
      <trkpt lat="45.15564" lon="4.51636">
        <ele>1203.71</ele>
        <time>2016-09-04T13:54:57Z</time>
      </trkpt>
      <trkpt lat="45.15545" lon="4.51631">
        <ele>1205.15</ele>
        <time>2016-09-04T13:55:12Z</time>
      </trkpt>
      <trkpt lat="45.15536" lon="4.51622">
        <ele>1205.63</ele>
        <time>2016-09-04T13:55:21Z</time>
      </trkpt>
      <trkpt lat="45.15524" lon="4.5161">
        <ele>1208.51</ele>
        <time>2016-09-04T13:55:36Z</time>
      </trkpt>
      <trkpt lat="45.15525" lon="4.51607">
        <ele>1208.51</ele>
        <time>2016-09-04T13:55:50Z</time>
      </trkpt>
      <trkpt lat="45.15525" lon="4.51606">
        <ele>1209</ele>
        <time>2016-09-04T13:56:08Z</time>
      </trkpt>
      <trkpt lat="45.15525" lon="4.51606">
        <ele>1208.03</ele>
        <time>2016-09-04T13:56:31Z</time>
      </trkpt>
      <trkpt lat="45.15525" lon="4.51604">
        <ele>1208.51</ele>
        <time>2016-09-04T13:56:48Z</time>
      </trkpt>
      <trkpt lat="45.15525" lon="4.51605">
        <ele>1208.51</ele>
        <time>2016-09-04T13:56:59Z</time>
      </trkpt>
      <trkpt lat="45.15524" lon="4.51605">
        <ele>1209.96</ele>
        <time>2016-09-04T13:57:11Z</time>
      </trkpt>
      <trkpt lat="45.15523" lon="4.51604">
        <ele>1210.44</ele>
        <time>2016-09-04T13:57:24Z</time>
      </trkpt>
      <trkpt lat="45.15524" lon="4.51604">
        <ele>1210.92</ele>
        <time>2016-09-04T13:57:37Z</time>
      </trkpt>
      <trkpt lat="45.15523" lon="4.51604">
        <ele>1211.4</ele>
        <time>2016-09-04T13:57:51Z</time>
      </trkpt>
      <trkpt lat="45.15523" lon="4.51604">
        <ele>1212.36</ele>
        <time>2016-09-04T13:58:11Z</time>
      </trkpt>
      <trkpt lat="45.15523" lon="4.51604">
        <ele>1212.36</ele>
        <time>2016-09-04T13:58:14Z</time>
      </trkpt>
      <trkpt lat="45.15539" lon="4.5161">
        <ele>1214.28</ele>
        <time>2016-09-04T13:58:27Z</time>
      </trkpt>
      <trkpt lat="45.15544" lon="4.51603">
        <ele>1214.76</ele>
        <time>2016-09-04T13:58:34Z</time>
      </trkpt>
      <trkpt lat="45.15534" lon="4.51581">
        <ele>1213.8</ele>
        <time>2016-09-04T13:58:50Z</time>
      </trkpt>
      <trkpt lat="45.15532" lon="4.51577">
        <ele>1213.32</ele>
        <time>2016-09-04T13:58:53Z</time>
      </trkpt>
      <trkpt lat="45.15514" lon="4.51553">
        <ele>1212.84</ele>
        <time>2016-09-04T13:59:10Z</time>
      </trkpt>
      <trkpt lat="45.15511" lon="4.51546">
        <ele>1213.32</ele>
        <time>2016-09-04T13:59:14Z</time>
      </trkpt>
      <trkpt lat="45.15507" lon="4.51538">
        <ele>1214.28</ele>
        <time>2016-09-04T13:59:19Z</time>
      </trkpt>
      <trkpt lat="45.15497" lon="4.51506">
        <ele>1218.13</ele>
        <time>2016-09-04T13:59:36Z</time>
      </trkpt>
      <trkpt lat="45.15493" lon="4.51492">
        <ele>1219.57</ele>
        <time>2016-09-04T13:59:44Z</time>
      </trkpt>
      <trkpt lat="45.15491" lon="4.51485">
        <ele>1221.01</ele>
        <time>2016-09-04T13:59:49Z</time>
      </trkpt>
      <trkpt lat="45.15489" lon="4.51465">
        <ele>1226.3</ele>
        <time>2016-09-04T14:00:03Z</time>
      </trkpt>
      <trkpt lat="45.15486" lon="4.51448">
        <ele>1234.95</ele>
        <time>2016-09-04T14:00:17Z</time>
      </trkpt>
      <trkpt lat="45.15487" lon="4.51444">
        <ele>1236.87</ele>
        <time>2016-09-04T14:00:20Z</time>
      </trkpt>
      <trkpt lat="45.15488" lon="4.51434">
        <ele>1242.64</ele>
        <time>2016-09-04T14:00:26Z</time>
      </trkpt>
      <trkpt lat="45.1549" lon="4.51429">
        <ele>1245.53</ele>
        <time>2016-09-04T14:00:29Z</time>
      </trkpt>
      <trkpt lat="45.15493" lon="4.51423">
        <ele>1250.81</ele>
        <time>2016-09-04T14:00:34Z</time>
      </trkpt>
      <trkpt lat="45.15497" lon="4.51407">
        <ele>1263.31</ele>
        <time>2016-09-04T14:00:47Z</time>
      </trkpt>
      <trkpt lat="45.15503" lon="4.51391">
        <ele>1271.96</ele>
        <time>2016-09-04T14:00:58Z</time>
      </trkpt>
      <trkpt lat="45.15505" lon="4.51387">
        <ele>1272.92</ele>
        <time>2016-09-04T14:01:00Z</time>
      </trkpt>
      <trkpt lat="45.15509" lon="4.51368">
        <ele>1277.73</ele>
        <time>2016-09-04T14:01:11Z</time>
      </trkpt>
      <trkpt lat="45.15513" lon="4.51355">
        <ele>1283.5</ele>
        <time>2016-09-04T14:01:20Z</time>
      </trkpt>
      <trkpt lat="45.15519" lon="4.51333">
        <ele>1282.06</ele>
        <time>2016-09-04T14:01:33Z</time>
      </trkpt>
      <trkpt lat="45.15524" lon="4.51317">
        <ele>1282.06</ele>
        <time>2016-09-04T14:01:44Z</time>
      </trkpt>
      <trkpt lat="45.15531" lon="4.51298">
        <ele>1280.61</ele>
        <time>2016-09-04T14:01:55Z</time>
      </trkpt>
      <trkpt lat="45.15534" lon="4.51292">
        <ele>1278.21</ele>
        <time>2016-09-04T14:01:58Z</time>
      </trkpt>
      <trkpt lat="45.15548" lon="4.51273">
        <ele>1278.69</ele>
        <time>2016-09-04T14:02:12Z</time>
      </trkpt>
      <trkpt lat="45.15564" lon="4.51254">
        <ele>1275.33</ele>
        <time>2016-09-04T14:02:25Z</time>
      </trkpt>
      <trkpt lat="45.15581" lon="4.51238">
        <ele>1275.81</ele>
        <time>2016-09-04T14:02:40Z</time>
      </trkpt>
      <trkpt lat="45.15596" lon="4.51219">
        <ele>1269.08</ele>
        <time>2016-09-04T14:02:54Z</time>
      </trkpt>
      <trkpt lat="45.1561" lon="4.51191">
        <ele>1251.29</ele>
        <time>2016-09-04T14:03:06Z</time>
      </trkpt>
      <trkpt lat="45.15629" lon="4.51163">
        <ele>1235.91</ele>
        <time>2016-09-04T14:03:22Z</time>
      </trkpt>
      <trkpt lat="45.15647" lon="4.51132">
        <ele>1224.86</ele>
        <time>2016-09-04T14:03:39Z</time>
      </trkpt>
      <trkpt lat="45.15661" lon="4.5111">
        <ele>1217.65</ele>
        <time>2016-09-04T14:03:52Z</time>
      </trkpt>
      <trkpt lat="45.15665" lon="4.51101">
        <ele>1216.21</ele>
        <time>2016-09-04T14:03:58Z</time>
      </trkpt>
      <trkpt lat="45.1568" lon="4.51071">
        <ele>1215.24</ele>
        <time>2016-09-04T14:04:17Z</time>
      </trkpt>
      <trkpt lat="45.15686" lon="4.51053">
        <ele>1218.13</ele>
        <time>2016-09-04T14:04:28Z</time>
      </trkpt>
      <trkpt lat="45.15693" lon="4.51024">
        <ele>1221.01</ele>
        <time>2016-09-04T14:04:41Z</time>
      </trkpt>
      <trkpt lat="45.15693" lon="4.50987">
        <ele>1217.65</ele>
        <time>2016-09-04T14:04:56Z</time>
      </trkpt>
      <trkpt lat="45.15688" lon="4.50953">
        <ele>1213.8</ele>
        <time>2016-09-04T14:05:12Z</time>
      </trkpt>
      <trkpt lat="45.15684" lon="4.50926">
        <ele>1208.51</ele>
        <time>2016-09-04T14:05:24Z</time>
      </trkpt>
      <trkpt lat="45.15679" lon="4.50909">
        <ele>1210.44</ele>
        <time>2016-09-04T14:05:33Z</time>
      </trkpt>
      <trkpt lat="45.15676" lon="4.50892">
        <ele>1213.8</ele>
        <time>2016-09-04T14:05:43Z</time>
      </trkpt>
      <trkpt lat="45.15678" lon="4.50886">
        <ele>1216.21</ele>
        <time>2016-09-04T14:05:49Z</time>
      </trkpt>
      <trkpt lat="45.1569" lon="4.5088">
        <ele>1218.61</ele>
        <time>2016-09-04T14:06:03Z</time>
      </trkpt>
      <trkpt lat="45.15705" lon="4.50869">
        <ele>1221.01</ele>
        <time>2016-09-04T14:06:18Z</time>
      </trkpt>
      <trkpt lat="45.15715" lon="4.50852">
        <ele>1217.65</ele>
        <time>2016-09-04T14:06:29Z</time>
      </trkpt>
      <trkpt lat="45.15716" lon="4.5085">
        <ele>1217.17</ele>
        <time>2016-09-04T14:06:30Z</time>
      </trkpt>
      <trkpt lat="45.15732" lon="4.50828">
        <ele>1211.88</ele>
        <time>2016-09-04T14:06:46Z</time>
      </trkpt>
      <trkpt lat="45.15739" lon="4.50816">
        <ele>1209.48</ele>
        <time>2016-09-04T14:06:54Z</time>
      </trkpt>
      <trkpt lat="45.1575" lon="4.50801">
        <ele>1211.4</ele>
        <time>2016-09-04T14:07:08Z</time>
      </trkpt>
      <trkpt lat="45.15756" lon="4.50793">
        <ele>1210.92</ele>
        <time>2016-09-04T14:07:13Z</time>
      </trkpt>
      <trkpt lat="45.15759" lon="4.50789">
        <ele>1210.92</ele>
        <time>2016-09-04T14:07:16Z</time>
      </trkpt>
      <trkpt lat="45.15771" lon="4.50776">
        <ele>1210.44</ele>
        <time>2016-09-04T14:07:28Z</time>
      </trkpt>
      <trkpt lat="45.15783" lon="4.50766">
        <ele>1213.8</ele>
        <time>2016-09-04T14:07:41Z</time>
      </trkpt>
      <trkpt lat="45.15794" lon="4.50749">
        <ele>1211.88</ele>
        <time>2016-09-04T14:07:54Z</time>
      </trkpt>
      <trkpt lat="45.15805" lon="4.50722">
        <ele>1207.55</ele>
        <time>2016-09-04T14:08:08Z</time>
      </trkpt>
      <trkpt lat="45.1581" lon="4.50703">
        <ele>1208.03</ele>
        <time>2016-09-04T14:08:19Z</time>
      </trkpt>
      <trkpt lat="45.15812" lon="4.50691">
        <ele>1206.59</ele>
        <time>2016-09-04T14:08:25Z</time>
      </trkpt>
      <trkpt lat="45.15814" lon="4.50681">
        <ele>1207.07</ele>
        <time>2016-09-04T14:08:31Z</time>
      </trkpt>
      <trkpt lat="45.15815" lon="4.50665">
        <ele>1209</ele>
        <time>2016-09-04T14:08:43Z</time>
      </trkpt>
      <trkpt lat="45.15816" lon="4.50636">
        <ele>1209.48</ele>
        <time>2016-09-04T14:08:57Z</time>
      </trkpt>
      <trkpt lat="45.15813" lon="4.50618">
        <ele>1212.84</ele>
        <time>2016-09-04T14:09:09Z</time>
      </trkpt>
      <trkpt lat="45.15813" lon="4.50616">
        <ele>1213.8</ele>
        <time>2016-09-04T14:09:10Z</time>
      </trkpt>
      <trkpt lat="45.15812" lon="4.50599">
        <ele>1218.61</ele>
        <time>2016-09-04T14:09:22Z</time>
      </trkpt>
      <trkpt lat="45.15822" lon="4.50588">
        <ele>1221.97</ele>
        <time>2016-09-04T14:09:34Z</time>
      </trkpt>
      <trkpt lat="45.1583" lon="4.50575">
        <ele>1219.09</ele>
        <time>2016-09-04T14:09:46Z</time>
      </trkpt>
      <trkpt lat="45.15832" lon="4.50566">
        <ele>1213.8</ele>
        <time>2016-09-04T14:09:57Z</time>
      </trkpt>
      <trkpt lat="45.15838" lon="4.50557">
        <ele>1211.4</ele>
        <time>2016-09-04T14:10:08Z</time>
      </trkpt>
      <trkpt lat="45.15852" lon="4.50535">
        <ele>1207.07</ele>
        <time>2016-09-04T14:10:24Z</time>
      </trkpt>
      <trkpt lat="45.15861" lon="4.50523">
        <ele>1202.75</ele>
        <time>2016-09-04T14:10:34Z</time>
      </trkpt>
      <trkpt lat="45.15863" lon="4.50522">
        <ele>1203.71</ele>
        <time>2016-09-04T14:10:36Z</time>
      </trkpt>
      <trkpt lat="45.15866" lon="4.50519">
        <ele>1204.67</ele>
        <time>2016-09-04T14:10:39Z</time>
      </trkpt>
      <trkpt lat="45.15879" lon="4.50505">
        <ele>1207.55</ele>
        <time>2016-09-04T14:10:54Z</time>
      </trkpt>
      <trkpt lat="45.15889" lon="4.50496">
        <ele>1210.44</ele>
        <time>2016-09-04T14:11:05Z</time>
      </trkpt>
      <trkpt lat="45.15897" lon="4.50491">
        <ele>1210.44</ele>
        <time>2016-09-04T14:11:14Z</time>
      </trkpt>
      <trkpt lat="45.15909" lon="4.50484">
        <ele>1212.84</ele>
        <time>2016-09-04T14:11:25Z</time>
      </trkpt>
      <trkpt lat="45.15926" lon="4.50475">
        <ele>1214.28</ele>
        <time>2016-09-04T14:11:39Z</time>
      </trkpt>
      <trkpt lat="45.15938" lon="4.5047">
        <ele>1210.92</ele>
        <time>2016-09-04T14:11:52Z</time>
      </trkpt>
      <trkpt lat="45.15957" lon="4.50459">
        <ele>1203.23</ele>
        <time>2016-09-04T14:12:06Z</time>
      </trkpt>
      <trkpt lat="45.15971" lon="4.50443">
        <ele>1186.4</ele>
        <time>2016-09-04T14:12:20Z</time>
      </trkpt>
      <trkpt lat="45.15987" lon="4.50442">
        <ele>1184.48</ele>
        <time>2016-09-04T14:12:33Z</time>
      </trkpt>
      <trkpt lat="45.16" lon="4.5044">
        <ele>1184</ele>
        <time>2016-09-04T14:12:41Z</time>
      </trkpt>
      <trkpt lat="45.16014" lon="4.50431">
        <ele>1179.67</ele>
        <time>2016-09-04T14:12:52Z</time>
      </trkpt>
      <trkpt lat="45.1602" lon="4.50423">
        <ele>1171.98</ele>
        <time>2016-09-04T14:13:02Z</time>
      </trkpt>
      <trkpt lat="45.16035" lon="4.50421">
        <ele>1170.06</ele>
        <time>2016-09-04T14:13:15Z</time>
      </trkpt>
      <trkpt lat="45.16048" lon="4.50425">
        <ele>1171.98</ele>
        <time>2016-09-04T14:13:28Z</time>
      </trkpt>
      <trkpt lat="45.16059" lon="4.50426">
        <ele>1171.98</ele>
        <time>2016-09-04T14:13:40Z</time>
      </trkpt>
      <trkpt lat="45.16077" lon="4.50424">
        <ele>1173.43</ele>
        <time>2016-09-04T14:13:51Z</time>
      </trkpt>
      <trkpt lat="45.16089" lon="4.50427">
        <ele>1174.39</ele>
        <time>2016-09-04T14:14:00Z</time>
      </trkpt>
      <trkpt lat="45.16114" lon="4.50422">
        <ele>1170.06</ele>
        <time>2016-09-04T14:14:13Z</time>
      </trkpt>
      <trkpt lat="45.16117" lon="4.50423">
        <ele>1169.58</ele>
        <time>2016-09-04T14:14:15Z</time>
      </trkpt>
      <trkpt lat="45.16129" lon="4.5042">
        <ele>1166.7</ele>
        <time>2016-09-04T14:14:21Z</time>
      </trkpt>
      <trkpt lat="45.16151" lon="4.50419">
        <ele>1159.97</ele>
        <time>2016-09-04T14:14:35Z</time>
      </trkpt>
      <trkpt lat="45.16158" lon="4.50416">
        <ele>1155.64</ele>
        <time>2016-09-04T14:14:40Z</time>
      </trkpt>
      <trkpt lat="45.16178" lon="4.50431">
        <ele>1152.28</ele>
        <time>2016-09-04T14:14:56Z</time>
      </trkpt>
      <trkpt lat="45.16192" lon="4.50447">
        <ele>1158.05</ele>
        <time>2016-09-04T14:15:11Z</time>
      </trkpt>
      <trkpt lat="45.16197" lon="4.50448">
        <ele>1159.97</ele>
        <time>2016-09-04T14:15:15Z</time>
      </trkpt>
      <trkpt lat="45.16207" lon="4.50447">
        <ele>1151.8</ele>
        <time>2016-09-04T14:15:22Z</time>
      </trkpt>
      <trkpt lat="45.16224" lon="4.50441">
        <ele>1147.95</ele>
        <time>2016-09-04T14:15:35Z</time>
      </trkpt>
      <trkpt lat="45.16239" lon="4.50434">
        <ele>1147.47</ele>
        <time>2016-09-04T14:15:47Z</time>
      </trkpt>
      <trkpt lat="45.16255" lon="4.50423">
        <ele>1148.91</ele>
        <time>2016-09-04T14:16:02Z</time>
      </trkpt>
      <trkpt lat="45.16268" lon="4.50411">
        <ele>1149.39</ele>
        <time>2016-09-04T14:16:12Z</time>
      </trkpt>
      <trkpt lat="45.1628" lon="4.50402">
        <ele>1148.43</ele>
        <time>2016-09-04T14:16:20Z</time>
      </trkpt>
      <trkpt lat="45.16285" lon="4.50382">
        <ele>1143.14</ele>
        <time>2016-09-04T14:16:31Z</time>
      </trkpt>
      <trkpt lat="45.16284" lon="4.50371">
        <ele>1140.74</ele>
        <time>2016-09-04T14:16:36Z</time>
      </trkpt>
      <trkpt lat="45.16282" lon="4.50354">
        <ele>1137.38</ele>
        <time>2016-09-04T14:16:44Z</time>
      </trkpt>
      <trkpt lat="45.16264" lon="4.50325">
        <ele>1119.59</ele>
        <time>2016-09-04T14:17:00Z</time>
      </trkpt>
      <trkpt lat="45.16242" lon="4.50307">
        <ele>1102.29</ele>
        <time>2016-09-04T14:17:17Z</time>
      </trkpt>
      <trkpt lat="45.16231" lon="4.50294">
        <ele>1096.04</ele>
        <time>2016-09-04T14:17:32Z</time>
      </trkpt>
      <trkpt lat="45.16228" lon="4.50291">
        <ele>1094.12</ele>
        <time>2016-09-04T14:17:45Z</time>
      </trkpt>
      <trkpt lat="45.16222" lon="4.50279">
        <ele>1092.2</ele>
        <time>2016-09-04T14:17:58Z</time>
      </trkpt>
      <trkpt lat="45.16217" lon="4.50269">
        <ele>1092.2</ele>
        <time>2016-09-04T14:18:11Z</time>
      </trkpt>
      <trkpt lat="45.16217" lon="4.50268">
        <ele>1091.71</ele>
        <time>2016-09-04T14:18:14Z</time>
      </trkpt>
      <trkpt lat="45.16214" lon="4.50263">
        <ele>1091.71</ele>
        <time>2016-09-04T14:18:19Z</time>
      </trkpt>
      <trkpt lat="45.16205" lon="4.50239">
        <ele>1090.27</ele>
        <time>2016-09-04T14:18:35Z</time>
      </trkpt>
      <trkpt lat="45.16197" lon="4.50211">
        <ele>1092.2</ele>
        <time>2016-09-04T14:18:50Z</time>
      </trkpt>
      <trkpt lat="45.16196" lon="4.50208">
        <ele>1093.16</ele>
        <time>2016-09-04T14:18:52Z</time>
      </trkpt>
      <trkpt lat="45.16194" lon="4.50178">
        <ele>1101.81</ele>
        <time>2016-09-04T14:19:09Z</time>
      </trkpt>
      <trkpt lat="45.1619" lon="4.5016">
        <ele>1104.69</ele>
        <time>2016-09-04T14:19:20Z</time>
      </trkpt>
      <trkpt lat="45.16186" lon="4.50136">
        <ele>1107.1</ele>
        <time>2016-09-04T14:19:33Z</time>
      </trkpt>
      <trkpt lat="45.16177" lon="4.50115">
        <ele>1104.69</ele>
        <time>2016-09-04T14:19:46Z</time>
      </trkpt>
      <trkpt lat="45.16159" lon="4.5009">
        <ele>1091.71</ele>
        <time>2016-09-04T14:20:00Z</time>
      </trkpt>
      <trkpt lat="45.16142" lon="4.50074">
        <ele>1084.02</ele>
        <time>2016-09-04T14:20:14Z</time>
      </trkpt>
      <trkpt lat="45.16126" lon="4.50066">
        <ele>1080.18</ele>
        <time>2016-09-04T14:20:30Z</time>
      </trkpt>
      <trkpt lat="45.16108" lon="4.5006">
        <ele>1080.66</ele>
        <time>2016-09-04T14:20:44Z</time>
      </trkpt>
      <trkpt lat="45.16094" lon="4.50058">
        <ele>1082.58</ele>
        <time>2016-09-04T14:20:59Z</time>
      </trkpt>
      <trkpt lat="45.1608" lon="4.50052">
        <ele>1083.06</ele>
        <time>2016-09-04T14:21:10Z</time>
      </trkpt>
      <trkpt lat="45.16076" lon="4.5005">
        <ele>1084.99</ele>
        <time>2016-09-04T14:21:13Z</time>
      </trkpt>
      <trkpt lat="45.16065" lon="4.50051">
        <ele>1088.35</ele>
        <time>2016-09-04T14:21:25Z</time>
      </trkpt>
      <trkpt lat="45.16044" lon="4.50046">
        <ele>1086.91</ele>
        <time>2016-09-04T14:21:40Z</time>
      </trkpt>
      <trkpt lat="45.16032" lon="4.50049">
        <ele>1089.79</ele>
        <time>2016-09-04T14:21:54Z</time>
      </trkpt>
      <trkpt lat="45.16014" lon="4.5004">
        <ele>1085.95</ele>
        <time>2016-09-04T14:22:03Z</time>
      </trkpt>
      <trkpt lat="45.15996" lon="4.50034">
        <ele>1081.14</ele>
        <time>2016-09-04T14:22:13Z</time>
      </trkpt>
      <trkpt lat="45.1599" lon="4.50032">
        <ele>1080.18</ele>
        <time>2016-09-04T14:22:21Z</time>
      </trkpt>
      <trkpt lat="45.15983" lon="4.50024">
        <ele>1080.66</ele>
        <time>2016-09-04T14:22:31Z</time>
      </trkpt>
      <trkpt lat="45.15973" lon="4.50015">
        <ele>1084.99</ele>
        <time>2016-09-04T14:22:44Z</time>
      </trkpt>
      <trkpt lat="45.15959" lon="4.5001">
        <ele>1086.43</ele>
        <time>2016-09-04T14:22:55Z</time>
      </trkpt>
      <trkpt lat="45.15951" lon="4.50008">
        <ele>1086.91</ele>
        <time>2016-09-04T14:23:07Z</time>
      </trkpt>
      <trkpt lat="45.15947" lon="4.50006">
        <ele>1086.91</ele>
        <time>2016-09-04T14:23:21Z</time>
      </trkpt>
      <trkpt lat="45.15942" lon="4.50004">
        <ele>1084.99</ele>
        <time>2016-09-04T14:23:38Z</time>
      </trkpt>
      <trkpt lat="45.15941" lon="4.50004">
        <ele>1083.54</ele>
        <time>2016-09-04T14:23:52Z</time>
      </trkpt>
      <trkpt lat="45.15939" lon="4.50003">
        <ele>1081.62</ele>
        <time>2016-09-04T14:24:08Z</time>
      </trkpt>
      <trkpt lat="45.15935" lon="4.50005">
        <ele>1083.06</ele>
        <time>2016-09-04T14:24:22Z</time>
      </trkpt>
      <trkpt lat="45.15918" lon="4.49993">
        <ele>1086.43</ele>
        <time>2016-09-04T14:24:36Z</time>
      </trkpt>
      <trkpt lat="45.15904" lon="4.49979">
        <ele>1090.75</ele>
        <time>2016-09-04T14:24:47Z</time>
      </trkpt>
      <trkpt lat="45.15905" lon="4.49973">
        <ele>1095.08</ele>
        <time>2016-09-04T14:24:52Z</time>
      </trkpt>
      <trkpt lat="45.15914" lon="4.49959">
        <ele>1097.48</ele>
        <time>2016-09-04T14:25:05Z</time>
      </trkpt>
      <trkpt lat="45.15922" lon="4.49953">
        <ele>1097.48</ele>
        <time>2016-09-04T14:25:15Z</time>
      </trkpt>
      <trkpt lat="45.15927" lon="4.49949">
        <ele>1097.96</ele>
        <time>2016-09-04T14:25:20Z</time>
      </trkpt>
      <trkpt lat="45.15931" lon="4.49947">
        <ele>1098.92</ele>
        <time>2016-09-04T14:25:23Z</time>
      </trkpt>
      <trkpt lat="45.15933" lon="4.49943">
        <ele>1099.4</ele>
        <time>2016-09-04T14:25:26Z</time>
      </trkpt>
      <trkpt lat="45.15949" lon="4.49926">
        <ele>1102.77</ele>
        <time>2016-09-04T14:25:40Z</time>
      </trkpt>
      <trkpt lat="45.15951" lon="4.49908">
        <ele>1098.92</ele>
        <time>2016-09-04T14:25:51Z</time>
      </trkpt>
      <trkpt lat="45.1595" lon="4.49891">
        <ele>1098.44</ele>
        <time>2016-09-04T14:26:03Z</time>
      </trkpt>
      <trkpt lat="45.15952" lon="4.49887">
        <ele>1099.89</ele>
        <time>2016-09-04T14:26:05Z</time>
      </trkpt>
      <trkpt lat="45.15959" lon="4.49869">
        <ele>1101.81</ele>
        <time>2016-09-04T14:26:15Z</time>
      </trkpt>
      <trkpt lat="45.1596" lon="4.49861">
        <ele>1100.85</ele>
        <time>2016-09-04T14:26:20Z</time>
      </trkpt>
      <trkpt lat="45.15964" lon="4.4985">
        <ele>1099.4</ele>
        <time>2016-09-04T14:26:27Z</time>
      </trkpt>
      <trkpt lat="45.15968" lon="4.49822">
        <ele>1090.27</ele>
        <time>2016-09-04T14:26:41Z</time>
      </trkpt>
      <trkpt lat="45.15974" lon="4.49805">
        <ele>1085.95</ele>
        <time>2016-09-04T14:26:51Z</time>
      </trkpt>
      <trkpt lat="45.15979" lon="4.49791">
        <ele>1081.14</ele>
        <time>2016-09-04T14:26:58Z</time>
      </trkpt>
      <trkpt lat="45.15989" lon="4.49765">
        <ele>1075.85</ele>
        <time>2016-09-04T14:27:11Z</time>
      </trkpt>
      <trkpt lat="45.15991" lon="4.49759">
        <ele>1074.41</ele>
        <time>2016-09-04T14:27:14Z</time>
      </trkpt>
      <trkpt lat="45.15999" lon="4.49741">
        <ele>1071.05</ele>
        <time>2016-09-04T14:27:23Z</time>
      </trkpt>
      <trkpt lat="45.16002" lon="4.49723">
        <ele>1064.8</ele>
        <time>2016-09-04T14:27:34Z</time>
      </trkpt>
      <trkpt lat="45.16003" lon="4.49694">
        <ele>1059.99</ele>
        <time>2016-09-04T14:27:51Z</time>
      </trkpt>
      <trkpt lat="45.16004" lon="4.49668">
        <ele>1059.03</ele>
        <time>2016-09-04T14:28:03Z</time>
      </trkpt>
      <trkpt lat="45.16001" lon="4.49663">
        <ele>1059.99</ele>
        <time>2016-09-04T14:28:06Z</time>
      </trkpt>
      <trkpt lat="45.15999" lon="4.49655">
        <ele>1061.43</ele>
        <time>2016-09-04T14:28:10Z</time>
      </trkpt>
      <trkpt lat="45.15997" lon="4.49629">
        <ele>1063.84</ele>
        <time>2016-09-04T14:28:24Z</time>
      </trkpt>
      <trkpt lat="45.15995" lon="4.49608">
        <ele>1070.08</ele>
        <time>2016-09-04T14:28:37Z</time>
      </trkpt>
      <trkpt lat="45.15998" lon="4.496">
        <ele>1074.89</ele>
        <time>2016-09-04T14:28:44Z</time>
      </trkpt>
      <trkpt lat="45.16" lon="4.49588">
        <ele>1075.85</ele>
        <time>2016-09-04T14:28:51Z</time>
      </trkpt>
      <trkpt lat="45.16004" lon="4.49575">
        <ele>1075.37</ele>
        <time>2016-09-04T14:28:58Z</time>
      </trkpt>
      <trkpt lat="45.16004" lon="4.49567">
        <ele>1074.89</ele>
        <time>2016-09-04T14:29:03Z</time>
      </trkpt>
      <trkpt lat="45.1601" lon="4.49542">
        <ele>1074.41</ele>
        <time>2016-09-04T14:29:16Z</time>
      </trkpt>
      <trkpt lat="45.16013" lon="4.49525">
        <ele>1070.08</ele>
        <time>2016-09-04T14:29:25Z</time>
      </trkpt>
      <trkpt lat="45.16016" lon="4.49502">
        <ele>1066.72</ele>
        <time>2016-09-04T14:29:39Z</time>
      </trkpt>
      <trkpt lat="45.16019" lon="4.49483">
        <ele>1065.28</ele>
        <time>2016-09-04T14:29:50Z</time>
      </trkpt>
      <trkpt lat="45.16019" lon="4.49473">
        <ele>1062.87</ele>
        <time>2016-09-04T14:29:55Z</time>
      </trkpt>
      <trkpt lat="45.16018" lon="4.49457">
        <ele>1059.03</ele>
        <time>2016-09-04T14:30:04Z</time>
      </trkpt>
      <trkpt lat="45.16017" lon="4.49435">
        <ele>1054.22</ele>
        <time>2016-09-04T14:30:16Z</time>
      </trkpt>
      <trkpt lat="45.1602" lon="4.49419">
        <ele>1055.18</ele>
        <time>2016-09-04T14:30:25Z</time>
      </trkpt>
      <trkpt lat="45.16022" lon="4.49407">
        <ele>1056.63</ele>
        <time>2016-09-04T14:30:33Z</time>
      </trkpt>
      <trkpt lat="45.16023" lon="4.49399">
        <ele>1056.63</ele>
        <time>2016-09-04T14:30:38Z</time>
      </trkpt>
      <trkpt lat="45.16028" lon="4.49386">
        <ele>1055.67</ele>
        <time>2016-09-04T14:30:52Z</time>
      </trkpt>
      <trkpt lat="45.16033" lon="4.49381">
        <ele>1054.22</ele>
        <time>2016-09-04T14:31:05Z</time>
      </trkpt>
      <trkpt lat="45.16042" lon="4.49382">
        <ele>1052.3</ele>
        <time>2016-09-04T14:31:17Z</time>
      </trkpt>
      <trkpt lat="45.16051" lon="4.49382">
        <ele>1051.82</ele>
        <time>2016-09-04T14:31:30Z</time>
      </trkpt>
      <trkpt lat="45.16055" lon="4.49383">
        <ele>1051.34</ele>
        <time>2016-09-04T14:31:34Z</time>
      </trkpt>
      <trkpt lat="45.16067" lon="4.49376">
        <ele>1049.42</ele>
        <time>2016-09-04T14:31:50Z</time>
      </trkpt>
      <trkpt lat="45.16088" lon="4.4938">
        <ele>1044.61</ele>
        <time>2016-09-04T14:32:02Z</time>
      </trkpt>
      <trkpt lat="45.16111" lon="4.49382">
        <ele>1042.69</ele>
        <time>2016-09-04T14:32:16Z</time>
      </trkpt>
      <trkpt lat="45.16129" lon="4.49378">
        <ele>1029.23</ele>
        <time>2016-09-04T14:32:27Z</time>
      </trkpt>
      <trkpt lat="45.16148" lon="4.49371">
        <ele>1017.21</ele>
        <time>2016-09-04T14:32:38Z</time>
      </trkpt>
      <trkpt lat="45.16166" lon="4.49357">
        <ele>1008.56</ele>
        <time>2016-09-04T14:32:52Z</time>
      </trkpt>
      <trkpt lat="45.16182" lon="4.49339">
        <ele>1005.2</ele>
        <time>2016-09-04T14:33:06Z</time>
      </trkpt>
      <trkpt lat="45.16185" lon="4.49338">
        <ele>1004.72</ele>
        <time>2016-09-04T14:33:08Z</time>
      </trkpt>
      <trkpt lat="45.16194" lon="4.49329">
        <ele>1003.27</ele>
        <time>2016-09-04T14:33:16Z</time>
      </trkpt>
      <trkpt lat="45.1621" lon="4.49316">
        <ele>1002.31</ele>
        <time>2016-09-04T14:33:30Z</time>
      </trkpt>
      <trkpt lat="45.16213" lon="4.49314">
        <ele>1001.83</ele>
        <time>2016-09-04T14:33:33Z</time>
      </trkpt>
      <trkpt lat="45.16214" lon="4.49312">
        <ele>1001.83</ele>
        <time>2016-09-04T14:33:35Z</time>
      </trkpt>
      <trkpt lat="45.16221" lon="4.4931">
        <ele>1001.35</ele>
        <time>2016-09-04T14:33:41Z</time>
      </trkpt>
      <trkpt lat="45.16223" lon="4.49308">
        <ele>1000.87</ele>
        <time>2016-09-04T14:33:43Z</time>
      </trkpt>
      <trkpt lat="45.1623" lon="4.49305">
        <ele>998.95</ele>
        <time>2016-09-04T14:33:50Z</time>
      </trkpt>
      <trkpt lat="45.16253" lon="4.49292">
        <ele>990.78</ele>
        <time>2016-09-04T14:34:04Z</time>
      </trkpt>
      <trkpt lat="45.16269" lon="4.49288">
        <ele>983.09</ele>
        <time>2016-09-04T14:34:19Z</time>
      </trkpt>
      <trkpt lat="45.16286" lon="4.49287">
        <ele>978.76</ele>
        <time>2016-09-04T14:34:32Z</time>
      </trkpt>
      <trkpt lat="45.163" lon="4.4929">
        <ele>976.36</ele>
        <time>2016-09-04T14:34:45Z</time>
      </trkpt>
      <trkpt lat="45.1632" lon="4.49291">
        <ele>975.39</ele>
        <time>2016-09-04T14:34:59Z</time>
      </trkpt>
      <trkpt lat="45.16335" lon="4.4929">
        <ele>971.07</ele>
        <time>2016-09-04T14:35:13Z</time>
      </trkpt>
      <trkpt lat="45.16337" lon="4.49291">
        <ele>969.63</ele>
        <time>2016-09-04T14:35:37Z</time>
      </trkpt>
      <trkpt lat="45.16347" lon="4.4929">
        <ele>968.67</ele>
        <time>2016-09-04T14:35:52Z</time>
      </trkpt>
      <trkpt lat="45.16359" lon="4.49288">
        <ele>969.63</ele>
        <time>2016-09-04T14:36:02Z</time>
      </trkpt>
      <trkpt lat="45.16371" lon="4.49291">
        <ele>972.03</ele>
        <time>2016-09-04T14:36:15Z</time>
      </trkpt>
      <trkpt lat="45.16389" lon="4.49293">
        <ele>974.91</ele>
        <time>2016-09-04T14:36:28Z</time>
      </trkpt>
      <trkpt lat="45.16411" lon="4.49299">
        <ele>971.55</ele>
        <time>2016-09-04T14:36:42Z</time>
      </trkpt>
      <trkpt lat="45.16427" lon="4.49306">
        <ele>966.74</ele>
        <time>2016-09-04T14:36:54Z</time>
      </trkpt>
      <trkpt lat="45.16428" lon="4.49312">
        <ele>967.22</ele>
        <time>2016-09-04T14:36:58Z</time>
      </trkpt>
      <trkpt lat="45.16427" lon="4.49315">
        <ele>967.7</ele>
        <time>2016-09-04T14:37:00Z</time>
      </trkpt>
      <trkpt lat="45.16416" lon="4.49335">
        <ele>971.07</ele>
        <time>2016-09-04T14:37:14Z</time>
      </trkpt>
      <trkpt lat="45.16406" lon="4.49338">
        <ele>973.95</ele>
        <time>2016-09-04T14:37:28Z</time>
      </trkpt>
      <trkpt lat="45.1639" lon="4.49334">
        <ele>974.43</ele>
        <time>2016-09-04T14:37:41Z</time>
      </trkpt>
      <trkpt lat="45.16372" lon="4.49335">
        <ele>978.28</ele>
        <time>2016-09-04T14:37:55Z</time>
      </trkpt>
      <trkpt lat="45.16351" lon="4.49344">
        <ele>985.49</ele>
        <time>2016-09-04T14:38:09Z</time>
      </trkpt>
      <trkpt lat="45.16339" lon="4.49353">
        <ele>989.81</ele>
        <time>2016-09-04T14:38:17Z</time>
      </trkpt>
      <trkpt lat="45.16333" lon="4.49355">
        <ele>992.22</ele>
        <time>2016-09-04T14:38:21Z</time>
      </trkpt>
      <trkpt lat="45.16325" lon="4.49362">
        <ele>997.51</ele>
        <time>2016-09-04T14:38:28Z</time>
      </trkpt>
      <trkpt lat="45.1632" lon="4.49365">
        <ele>998.95</ele>
        <time>2016-09-04T14:38:33Z</time>
      </trkpt>
      <trkpt lat="45.163" lon="4.4938">
        <ele>1005.68</ele>
        <time>2016-09-04T14:38:48Z</time>
      </trkpt>
      <trkpt lat="45.16293" lon="4.49388">
        <ele>1002.79</ele>
        <time>2016-09-04T14:38:55Z</time>
      </trkpt>
      <trkpt lat="45.16292" lon="4.49397">
        <ele>1001.35</ele>
        <time>2016-09-04T14:39:03Z</time>
      </trkpt>
      <trkpt lat="45.16279" lon="4.49409">
        <ele>996.54</ele>
        <time>2016-09-04T14:39:15Z</time>
      </trkpt>
      <trkpt lat="45.16268" lon="4.49431">
        <ele>989.33</ele>
        <time>2016-09-04T14:39:29Z</time>
      </trkpt>
      <trkpt lat="45.16258" lon="4.49439">
        <ele>987.41</ele>
        <time>2016-09-04T14:39:37Z</time>
      </trkpt>
      <trkpt lat="45.1625" lon="4.49443">
        <ele>986.93</ele>
        <time>2016-09-04T14:39:41Z</time>
      </trkpt>
      <trkpt lat="45.16231" lon="4.49463">
        <ele>983.57</ele>
        <time>2016-09-04T14:39:57Z</time>
      </trkpt>
      <trkpt lat="45.1623" lon="4.4947">
        <ele>980.68</ele>
        <time>2016-09-04T14:40:00Z</time>
      </trkpt>
      <trkpt lat="45.16233" lon="4.49484">
        <ele>971.55</ele>
        <time>2016-09-04T14:40:06Z</time>
      </trkpt>
      <trkpt lat="45.16226" lon="4.49509">
        <ele>963.86</ele>
        <time>2016-09-04T14:40:20Z</time>
      </trkpt>
      <trkpt lat="45.16225" lon="4.4951">
        <ele>963.86</ele>
        <time>2016-09-04T14:40:21Z</time>
      </trkpt>
      <trkpt lat="45.16219" lon="4.49522">
        <ele>958.09</ele>
        <time>2016-09-04T14:40:31Z</time>
      </trkpt>
      <trkpt lat="45.16219" lon="4.49526">
        <ele>958.09</ele>
        <time>2016-09-04T14:40:34Z</time>
      </trkpt>
      <trkpt lat="45.16211" lon="4.49546">
        <ele>958.57</ele>
        <time>2016-09-04T14:40:51Z</time>
      </trkpt>
      <trkpt lat="45.16209" lon="4.49558">
        <ele>963.38</ele>
        <time>2016-09-04T14:41:02Z</time>
      </trkpt>
      <trkpt lat="45.16183" lon="4.49577">
        <ele>956.65</ele>
        <time>2016-09-04T14:41:17Z</time>
      </trkpt>
      <trkpt lat="45.16179" lon="4.49596">
        <ele>955.21</ele>
        <time>2016-09-04T14:41:29Z</time>
      </trkpt>
      <trkpt lat="45.16178" lon="4.49607">
        <ele>955.69</ele>
        <time>2016-09-04T14:41:40Z</time>
      </trkpt>
      <trkpt lat="45.16177" lon="4.49608">
        <ele>955.69</ele>
        <time>2016-09-04T14:41:45Z</time>
      </trkpt>
      <trkpt lat="45.16178" lon="4.49611">
        <ele>957.13</ele>
        <time>2016-09-04T14:41:48Z</time>
      </trkpt>
      <trkpt lat="45.16191" lon="4.49612">
        <ele>970.11</ele>
        <time>2016-09-04T14:42:02Z</time>
      </trkpt>
      <trkpt lat="45.16193" lon="4.4961">
        <ele>972.99</ele>
        <time>2016-09-04T14:42:05Z</time>
      </trkpt>
      <trkpt lat="45.16195" lon="4.49609">
        <ele>974.43</ele>
        <time>2016-09-04T14:42:07Z</time>
      </trkpt>
      <trkpt lat="45.162" lon="4.49611">
        <ele>977.32</ele>
        <time>2016-09-04T14:42:10Z</time>
      </trkpt>
      <trkpt lat="45.16204" lon="4.49613">
        <ele>980.68</ele>
        <time>2016-09-04T14:42:13Z</time>
      </trkpt>
      <trkpt lat="45.16212" lon="4.49614">
        <ele>986.93</ele>
        <time>2016-09-04T14:42:20Z</time>
      </trkpt>
      <trkpt lat="45.16225" lon="4.49619">
        <ele>997.02</ele>
        <time>2016-09-04T14:42:31Z</time>
      </trkpt>
      <trkpt lat="45.16244" lon="4.49618">
        <ele>1003.75</ele>
        <time>2016-09-04T14:42:43Z</time>
      </trkpt>
      <trkpt lat="45.16257" lon="4.49624">
        <ele>1003.27</ele>
        <time>2016-09-04T14:42:51Z</time>
      </trkpt>
      <trkpt lat="45.16272" lon="4.49632">
        <ele>999.91</ele>
        <time>2016-09-04T14:43:01Z</time>
      </trkpt>
      <trkpt lat="45.16283" lon="4.49646">
        <ele>995.58</ele>
        <time>2016-09-04T14:43:08Z</time>
      </trkpt>
      <trkpt lat="45.16304" lon="4.49665">
        <ele>981.64</ele>
        <time>2016-09-04T14:43:18Z</time>
      </trkpt>
      <trkpt lat="45.16308" lon="4.49665">
        <ele>980.2</ele>
        <time>2016-09-04T14:43:21Z</time>
      </trkpt>
      <trkpt lat="45.16323" lon="4.49675">
        <ele>973.47</ele>
        <time>2016-09-04T14:43:34Z</time>
      </trkpt>
      <trkpt lat="45.16332" lon="4.49686">
        <ele>971.55</ele>
        <time>2016-09-04T14:43:42Z</time>
      </trkpt>
      <trkpt lat="45.16344" lon="4.497">
        <ele>969.63</ele>
        <time>2016-09-04T14:43:54Z</time>
      </trkpt>
      <trkpt lat="45.16353" lon="4.49712">
        <ele>969.15</ele>
        <time>2016-09-04T14:44:04Z</time>
      </trkpt>
      <trkpt lat="45.16364" lon="4.49734">
        <ele>972.99</ele>
        <time>2016-09-04T14:44:17Z</time>
      </trkpt>
      <trkpt lat="45.16366" lon="4.4974">
        <ele>973.95</ele>
        <time>2016-09-04T14:44:20Z</time>
      </trkpt>
      <trkpt lat="45.16369" lon="4.49745">
        <ele>974.91</ele>
        <time>2016-09-04T14:44:24Z</time>
      </trkpt>
      <trkpt lat="45.16379" lon="4.49771">
        <ele>975.39</ele>
        <time>2016-09-04T14:44:39Z</time>
      </trkpt>
      <trkpt lat="45.16389" lon="4.49782">
        <ele>978.28</ele>
        <time>2016-09-04T14:44:50Z</time>
      </trkpt>
      <trkpt lat="45.16392" lon="4.49791">
        <ele>976.36</ele>
        <time>2016-09-04T14:44:57Z</time>
      </trkpt>
      <trkpt lat="45.16399" lon="4.49808">
        <ele>972.51</ele>
        <time>2016-09-04T14:45:07Z</time>
      </trkpt>
      <trkpt lat="45.16408" lon="4.49823">
        <ele>968.67</ele>
        <time>2016-09-04T14:45:17Z</time>
      </trkpt>
      <trkpt lat="45.16425" lon="4.4983">
        <ele>966.26</ele>
        <time>2016-09-04T14:45:31Z</time>
      </trkpt>
      <trkpt lat="45.1643" lon="4.49831">
        <ele>966.26</ele>
        <time>2016-09-04T14:45:36Z</time>
      </trkpt>
      <trkpt lat="45.16433" lon="4.49833">
        <ele>965.78</ele>
        <time>2016-09-04T14:45:41Z</time>
      </trkpt>
      <trkpt lat="45.16436" lon="4.49834">
        <ele>966.26</ele>
        <time>2016-09-04T14:45:44Z</time>
      </trkpt>
      <trkpt lat="45.16438" lon="4.49836">
        <ele>966.26</ele>
        <time>2016-09-04T14:45:46Z</time>
      </trkpt>
      <trkpt lat="45.16452" lon="4.49839">
        <ele>965.78</ele>
        <time>2016-09-04T14:45:55Z</time>
      </trkpt>
      <trkpt lat="45.16477" lon="4.49862">
        <ele>957.61</ele>
        <time>2016-09-04T14:46:08Z</time>
      </trkpt>
      <trkpt lat="45.16481" lon="4.49862">
        <ele>956.65</ele>
        <time>2016-09-04T14:46:11Z</time>
      </trkpt>
      <trkpt lat="45.16487" lon="4.49861">
        <ele>955.69</ele>
        <time>2016-09-04T14:46:16Z</time>
      </trkpt>
      <trkpt lat="45.16495" lon="4.49865">
        <ele>955.69</ele>
        <time>2016-09-04T14:46:21Z</time>
      </trkpt>
      <trkpt lat="45.16498" lon="4.49869">
        <ele>955.21</ele>
        <time>2016-09-04T14:46:24Z</time>
      </trkpt>
      <trkpt lat="45.16501" lon="4.49873">
        <ele>953.77</ele>
        <time>2016-09-04T14:46:26Z</time>
      </trkpt>
      <trkpt lat="45.16521" lon="4.49886">
        <ele>945.59</ele>
        <time>2016-09-04T14:46:38Z</time>
      </trkpt>
      <trkpt lat="45.16535" lon="4.49888">
        <ele>943.67</ele>
        <time>2016-09-04T14:46:49Z</time>
      </trkpt>
      <trkpt lat="45.16541" lon="4.49889">
        <ele>944.15</ele>
        <time>2016-09-04T14:46:56Z</time>
      </trkpt>
      <trkpt lat="45.16558" lon="4.49895">
        <ele>944.15</ele>
        <time>2016-09-04T14:47:08Z</time>
      </trkpt>
      <trkpt lat="45.16575" lon="4.49907">
        <ele>944.15</ele>
        <time>2016-09-04T14:47:21Z</time>
      </trkpt>
      <trkpt lat="45.16593" lon="4.49912">
        <ele>942.71</ele>
        <time>2016-09-04T14:47:33Z</time>
      </trkpt>
      <trkpt lat="45.16603" lon="4.4992">
        <ele>947.52</ele>
        <time>2016-09-04T14:47:44Z</time>
      </trkpt>
      <trkpt lat="45.16613" lon="4.49929">
        <ele>948.96</ele>
        <time>2016-09-04T14:47:53Z</time>
      </trkpt>
      <trkpt lat="45.1663" lon="4.49942">
        <ele>950.88</ele>
        <time>2016-09-04T14:48:07Z</time>
      </trkpt>
      <trkpt lat="45.16631" lon="4.49946">
        <ele>950.88</ele>
        <time>2016-09-04T14:48:09Z</time>
      </trkpt>
      <trkpt lat="45.16635" lon="4.49951">
        <ele>952.32</ele>
        <time>2016-09-04T14:48:13Z</time>
      </trkpt>
      <trkpt lat="45.16637" lon="4.49951">
        <ele>953.77</ele>
        <time>2016-09-04T14:48:15Z</time>
      </trkpt>
      <trkpt lat="45.16641" lon="4.49952">
        <ele>956.65</ele>
        <time>2016-09-04T14:48:19Z</time>
      </trkpt>
      <trkpt lat="45.16656" lon="4.49961">
        <ele>955.69</ele>
        <time>2016-09-04T14:48:31Z</time>
      </trkpt>
      <trkpt lat="45.1666" lon="4.49966">
        <ele>954.73</ele>
        <time>2016-09-04T14:48:35Z</time>
      </trkpt>
      <trkpt lat="45.16666" lon="4.49973">
        <ele>952.32</ele>
        <time>2016-09-04T14:48:39Z</time>
      </trkpt>
      <trkpt lat="45.16671" lon="4.49979">
        <ele>950.4</ele>
        <time>2016-09-04T14:48:43Z</time>
      </trkpt>
      <trkpt lat="45.16673" lon="4.49984">
        <ele>949.92</ele>
        <time>2016-09-04T14:48:46Z</time>
      </trkpt>
      <trkpt lat="45.1669" lon="4.50001">
        <ele>944.63</ele>
        <time>2016-09-04T14:49:00Z</time>
      </trkpt>
      <trkpt lat="45.16691" lon="4.50002">
        <ele>944.63</ele>
        <time>2016-09-04T14:49:01Z</time>
      </trkpt>
      <trkpt lat="45.16696" lon="4.5001">
        <ele>943.19</ele>
        <time>2016-09-04T14:49:06Z</time>
      </trkpt>
      <trkpt lat="45.16711" lon="4.50026">
        <ele>937.42</ele>
        <time>2016-09-04T14:49:18Z</time>
      </trkpt>
      <trkpt lat="45.16716" lon="4.5003">
        <ele>937.42</ele>
        <time>2016-09-04T14:49:22Z</time>
      </trkpt>
      <trkpt lat="45.16732" lon="4.50046">
        <ele>934.06</ele>
        <time>2016-09-04T14:49:35Z</time>
      </trkpt>
      <trkpt lat="45.16745" lon="4.50059">
        <ele>931.17</ele>
        <time>2016-09-04T14:49:46Z</time>
      </trkpt>
      <trkpt lat="45.16755" lon="4.50067">
        <ele>929.25</ele>
        <time>2016-09-04T14:49:55Z</time>
      </trkpt>
      <trkpt lat="45.16761" lon="4.50069">
        <ele>927.81</ele>
        <time>2016-09-04T14:49:59Z</time>
      </trkpt>
      <trkpt lat="45.16773" lon="4.50076">
        <ele>923.48</ele>
        <time>2016-09-04T14:50:09Z</time>
      </trkpt>
      <trkpt lat="45.16782" lon="4.50084">
        <ele>922.04</ele>
        <time>2016-09-04T14:50:17Z</time>
      </trkpt>
      <trkpt lat="45.16788" lon="4.50091">
        <ele>921.56</ele>
        <time>2016-09-04T14:50:22Z</time>
      </trkpt>
      <trkpt lat="45.16797" lon="4.50113">
        <ele>922.04</ele>
        <time>2016-09-04T14:50:34Z</time>
      </trkpt>
      <trkpt lat="45.1681" lon="4.50126">
        <ele>922.52</ele>
        <time>2016-09-04T14:50:49Z</time>
      </trkpt>
      <trkpt lat="45.16815" lon="4.5013">
        <ele>918.68</ele>
        <time>2016-09-04T14:51:02Z</time>
      </trkpt>
      <trkpt lat="45.16814" lon="4.50137">
        <ele>914.35</ele>
        <time>2016-09-04T14:51:17Z</time>
      </trkpt>
      <trkpt lat="45.16813" lon="4.50139">
        <ele>912.43</ele>
        <time>2016-09-04T14:51:31Z</time>
      </trkpt>
      <trkpt lat="45.16814" lon="4.5014">
        <ele>910.51</ele>
        <time>2016-09-04T14:51:45Z</time>
      </trkpt>
      <trkpt lat="45.16812" lon="4.5014">
        <ele>906.18</ele>
        <time>2016-09-04T14:51:58Z</time>
      </trkpt>
      <trkpt lat="45.16813" lon="4.50141">
        <ele>904.26</ele>
        <time>2016-09-04T14:52:13Z</time>
      </trkpt>
      <trkpt lat="45.16812" lon="4.50142">
        <ele>902.82</ele>
        <time>2016-09-04T14:52:25Z</time>
      </trkpt>
      <trkpt lat="45.1681" lon="4.50149">
        <ele>902.33</ele>
        <time>2016-09-04T14:52:30Z</time>
      </trkpt>
      <trkpt lat="45.16804" lon="4.50174">
        <ele>903.3</ele>
        <time>2016-09-04T14:52:43Z</time>
      </trkpt>
      <trkpt lat="45.16802" lon="4.50194">
        <ele>897.05</ele>
        <time>2016-09-04T14:52:56Z</time>
      </trkpt>
      <trkpt lat="45.16794" lon="4.50212">
        <ele>893.68</ele>
        <time>2016-09-04T14:53:10Z</time>
      </trkpt>
      <trkpt lat="45.16784" lon="4.5023">
        <ele>896.57</ele>
        <time>2016-09-04T14:53:23Z</time>
      </trkpt>
      <trkpt lat="45.16773" lon="4.50248">
        <ele>901.37</ele>
        <time>2016-09-04T14:53:36Z</time>
      </trkpt>
      <trkpt lat="45.16765" lon="4.50266">
        <ele>907.62</ele>
        <time>2016-09-04T14:53:50Z</time>
      </trkpt>
      <trkpt lat="45.16756" lon="4.50282">
        <ele>914.83</ele>
        <time>2016-09-04T14:54:02Z</time>
      </trkpt>
      <trkpt lat="45.16752" lon="4.50286">
        <ele>917.72</ele>
        <time>2016-09-04T14:54:06Z</time>
      </trkpt>
      <trkpt lat="45.16745" lon="4.50304">
        <ele>926.85</ele>
        <time>2016-09-04T14:54:19Z</time>
      </trkpt>
      <trkpt lat="45.16741" lon="4.50315">
        <ele>933.1</ele>
        <time>2016-09-04T14:54:29Z</time>
      </trkpt>
      <trkpt lat="45.16719" lon="4.50334">
        <ele>927.81</ele>
        <time>2016-09-04T14:54:45Z</time>
      </trkpt>
      <trkpt lat="45.16717" lon="4.5034">
        <ele>927.81</ele>
        <time>2016-09-04T14:54:50Z</time>
      </trkpt>
      <trkpt lat="45.16711" lon="4.50357">
        <ele>929.25</ele>
        <time>2016-09-04T14:55:01Z</time>
      </trkpt>
      <trkpt lat="45.16689" lon="4.50374">
        <ele>923.48</ele>
        <time>2016-09-04T14:55:13Z</time>
      </trkpt>
      <trkpt lat="45.16683" lon="4.50381">
        <ele>921.56</ele>
        <time>2016-09-04T14:55:19Z</time>
      </trkpt>
      <trkpt lat="45.16671" lon="4.50396">
        <ele>922.52</ele>
        <time>2016-09-04T14:55:32Z</time>
      </trkpt>
      <trkpt lat="45.1666" lon="4.50415">
        <ele>918.68</ele>
        <time>2016-09-04T14:55:45Z</time>
      </trkpt>
      <trkpt lat="45.16652" lon="4.50426">
        <ele>919.16</ele>
        <time>2016-09-04T14:55:55Z</time>
      </trkpt>
      <trkpt lat="45.16649" lon="4.50432">
        <ele>918.68</ele>
        <time>2016-09-04T14:55:59Z</time>
      </trkpt>
      <trkpt lat="45.16636" lon="4.50462">
        <ele>920.6</ele>
        <time>2016-09-04T14:56:16Z</time>
      </trkpt>
      <trkpt lat="45.1663" lon="4.50471">
        <ele>920.6</ele>
        <time>2016-09-04T14:56:23Z</time>
      </trkpt>
      <trkpt lat="45.16621" lon="4.5049">
        <ele>923.96</ele>
        <time>2016-09-04T14:56:37Z</time>
      </trkpt>
      <trkpt lat="45.16607" lon="4.50515">
        <ele>923.48</ele>
        <time>2016-09-04T14:56:51Z</time>
      </trkpt>
      <trkpt lat="45.16592" lon="4.50535">
        <ele>919.64</ele>
        <time>2016-09-04T14:57:06Z</time>
      </trkpt>
      <trkpt lat="45.16582" lon="4.50556">
        <ele>919.16</ele>
        <time>2016-09-04T14:57:19Z</time>
      </trkpt>
      <trkpt lat="45.1658" lon="4.50558">
        <ele>919.64</ele>
        <time>2016-09-04T14:57:21Z</time>
      </trkpt>
      <trkpt lat="45.16565" lon="4.50575">
        <ele>922.04</ele>
        <time>2016-09-04T14:57:37Z</time>
      </trkpt>
      <trkpt lat="45.16562" lon="4.50583">
        <ele>923.48</ele>
        <time>2016-09-04T14:57:43Z</time>
      </trkpt>
      <trkpt lat="45.1656" lon="4.50585">
        <ele>923.48</ele>
        <time>2016-09-04T14:57:45Z</time>
      </trkpt>
      <trkpt lat="45.16543" lon="4.50603">
        <ele>927.33</ele>
        <time>2016-09-04T14:58:00Z</time>
      </trkpt>
      <trkpt lat="45.16524" lon="4.50619">
        <ele>932.14</ele>
        <time>2016-09-04T14:58:17Z</time>
      </trkpt>
      <trkpt lat="45.16511" lon="4.50634">
        <ele>935.98</ele>
        <time>2016-09-04T14:58:30Z</time>
      </trkpt>
      <trkpt lat="45.16501" lon="4.50647">
        <ele>940.79</ele>
        <time>2016-09-04T14:58:41Z</time>
      </trkpt>
      <trkpt lat="45.16488" lon="4.50661">
        <ele>946.56</ele>
        <time>2016-09-04T14:58:56Z</time>
      </trkpt>
      <trkpt lat="45.16482" lon="4.50666">
        <ele>948.48</ele>
        <time>2016-09-04T14:59:00Z</time>
      </trkpt>
      <trkpt lat="45.16474" lon="4.50674">
        <ele>950.4</ele>
        <time>2016-09-04T14:59:07Z</time>
      </trkpt>
      <trkpt lat="45.16455" lon="4.50695">
        <ele>951.36</ele>
        <time>2016-09-04T14:59:24Z</time>
      </trkpt>
      <trkpt lat="45.16442" lon="4.50709">
        <ele>952.32</ele>
        <time>2016-09-04T14:59:39Z</time>
      </trkpt>
      <trkpt lat="45.16425" lon="4.50728">
        <ele>950.4</ele>
        <time>2016-09-04T14:59:55Z</time>
      </trkpt>
      <trkpt lat="45.16407" lon="4.50742">
        <ele>948</ele>
        <time>2016-09-04T15:00:09Z</time>
      </trkpt>
      <trkpt lat="45.16392" lon="4.50755">
        <ele>950.4</ele>
        <time>2016-09-04T15:00:24Z</time>
      </trkpt>
      <trkpt lat="45.16378" lon="4.50765">
        <ele>949.92</ele>
        <time>2016-09-04T15:00:39Z</time>
      </trkpt>
      <trkpt lat="45.16375" lon="4.50771">
        <ele>950.4</ele>
        <time>2016-09-04T15:00:50Z</time>
      </trkpt>
      <trkpt lat="45.16369" lon="4.50778">
        <ele>948.48</ele>
        <time>2016-09-04T15:01:04Z</time>
      </trkpt>
      <trkpt lat="45.16368" lon="4.50779">
        <ele>948</ele>
        <time>2016-09-04T15:01:06Z</time>
      </trkpt>
      <trkpt lat="45.1636" lon="4.50793">
        <ele>945.11</ele>
        <time>2016-09-04T15:01:18Z</time>
      </trkpt>
      <trkpt lat="45.16351" lon="4.50805">
        <ele>942.71</ele>
        <time>2016-09-04T15:01:28Z</time>
      </trkpt>
      <trkpt lat="45.16344" lon="4.50822">
        <ele>940.31</ele>
        <time>2016-09-04T15:01:42Z</time>
      </trkpt>
      <trkpt lat="45.16333" lon="4.50839">
        <ele>942.71</ele>
        <time>2016-09-04T15:01:56Z</time>
      </trkpt>
      <trkpt lat="45.16317" lon="4.50855">
        <ele>943.67</ele>
        <time>2016-09-04T15:02:09Z</time>
      </trkpt>
      <trkpt lat="45.16296" lon="4.50878">
        <ele>944.15</ele>
        <time>2016-09-04T15:02:26Z</time>
      </trkpt>
      <trkpt lat="45.16288" lon="4.50889">
        <ele>945.11</ele>
        <time>2016-09-04T15:02:33Z</time>
      </trkpt>
      <trkpt lat="45.16278" lon="4.50895">
        <ele>947.52</ele>
        <time>2016-09-04T15:02:42Z</time>
      </trkpt>
      <trkpt lat="45.16268" lon="4.50899">
        <ele>950.4</ele>
        <time>2016-09-04T15:02:49Z</time>
      </trkpt>
      <trkpt lat="45.16249" lon="4.50903">
        <ele>955.69</ele>
        <time>2016-09-04T15:03:03Z</time>
      </trkpt>
      <trkpt lat="45.16229" lon="4.50914">
        <ele>959.05</ele>
        <time>2016-09-04T15:03:18Z</time>
      </trkpt>
      <trkpt lat="45.16228" lon="4.50915">
        <ele>959.05</ele>
        <time>2016-09-04T15:03:19Z</time>
      </trkpt>
      <trkpt lat="45.16226" lon="4.50929">
        <ele>958.09</ele>
        <time>2016-09-04T15:03:29Z</time>
      </trkpt>
      <trkpt lat="45.16226" lon="4.50947">
        <ele>959.53</ele>
        <time>2016-09-04T15:03:44Z</time>
      </trkpt>
      <trkpt lat="45.16225" lon="4.50963">
        <ele>959.53</ele>
        <time>2016-09-04T15:03:53Z</time>
      </trkpt>
      <trkpt lat="45.16222" lon="4.50989">
        <ele>952.8</ele>
        <time>2016-09-04T15:04:08Z</time>
      </trkpt>
      <trkpt lat="45.16221" lon="4.51003">
        <ele>951.36</ele>
        <time>2016-09-04T15:04:13Z</time>
      </trkpt>
      <trkpt lat="45.16218" lon="4.51036">
        <ele>942.71</ele>
        <time>2016-09-04T15:04:28Z</time>
      </trkpt>
      <trkpt lat="45.16212" lon="4.51057">
        <ele>941.75</ele>
        <time>2016-09-04T15:04:42Z</time>
      </trkpt>
      <trkpt lat="45.16201" lon="4.51075">
        <ele>942.71</ele>
        <time>2016-09-04T15:04:54Z</time>
      </trkpt>
      <trkpt lat="45.16194" lon="4.51106">
        <ele>942.23</ele>
        <time>2016-09-04T15:05:10Z</time>
      </trkpt>
      <trkpt lat="45.16197" lon="4.51116">
        <ele>947.04</ele>
        <time>2016-09-04T15:05:24Z</time>
      </trkpt>
      <trkpt lat="45.16195" lon="4.51121">
        <ele>948.96</ele>
        <time>2016-09-04T15:05:43Z</time>
      </trkpt>
      <trkpt lat="45.16192" lon="4.51123">
        <ele>950.88</ele>
        <time>2016-09-04T15:05:58Z</time>
      </trkpt>
      <trkpt lat="45.16195" lon="4.51124">
        <ele>952.32</ele>
        <time>2016-09-04T15:06:16Z</time>
      </trkpt>
      <trkpt lat="45.16196" lon="4.51126">
        <ele>950.88</ele>
        <time>2016-09-04T15:06:32Z</time>
      </trkpt>
      <trkpt lat="45.16197" lon="4.51128">
        <ele>950.88</ele>
        <time>2016-09-04T15:06:46Z</time>
      </trkpt>
      <trkpt lat="45.162" lon="4.51131">
        <ele>948.96</ele>
        <time>2016-09-04T15:06:58Z</time>
      </trkpt>
      <trkpt lat="45.16202" lon="4.51128">
        <ele>948.96</ele>
        <time>2016-09-04T15:07:14Z</time>
      </trkpt>
      <trkpt lat="45.16202" lon="4.51125">
        <ele>946.56</ele>
        <time>2016-09-04T15:07:30Z</time>
      </trkpt>
      <trkpt lat="45.16202" lon="4.51124">
        <ele>944.15</ele>
        <time>2016-09-04T15:07:47Z</time>
      </trkpt>
      <trkpt lat="45.16208" lon="4.51128">
        <ele>942.23</ele>
        <time>2016-09-04T15:08:00Z</time>
      </trkpt>
      <trkpt lat="45.1621" lon="4.51128">
        <ele>941.27</ele>
        <time>2016-09-04T15:08:02Z</time>
      </trkpt>
      <trkpt lat="45.16222" lon="4.51124">
        <ele>936.46</ele>
        <time>2016-09-04T15:08:15Z</time>
      </trkpt>
      <trkpt lat="45.16237" lon="4.51115">
        <ele>930.69</ele>
        <time>2016-09-04T15:08:29Z</time>
      </trkpt>
      <trkpt lat="45.16239" lon="4.51114">
        <ele>929.25</ele>
        <time>2016-09-04T15:08:32Z</time>
      </trkpt>
      <trkpt lat="45.16247" lon="4.51112">
        <ele>925.89</ele>
        <time>2016-09-04T15:08:38Z</time>
      </trkpt>
      <trkpt lat="45.16265" lon="4.51109">
        <ele>921.08</ele>
        <time>2016-09-04T15:08:51Z</time>
      </trkpt>
      <trkpt lat="45.16284" lon="4.51103">
        <ele>919.64</ele>
        <time>2016-09-04T15:09:05Z</time>
      </trkpt>
      <trkpt lat="45.16303" lon="4.51099">
        <ele>918.2</ele>
        <time>2016-09-04T15:09:19Z</time>
      </trkpt>
      <trkpt lat="45.16323" lon="4.51096">
        <ele>916.75</ele>
        <time>2016-09-04T15:09:34Z</time>
      </trkpt>
      <trkpt lat="45.16341" lon="4.51096">
        <ele>917.72</ele>
        <time>2016-09-04T15:09:49Z</time>
      </trkpt>
      <trkpt lat="45.16348" lon="4.51092">
        <ele>919.64</ele>
        <time>2016-09-04T15:09:55Z</time>
      </trkpt>
      <trkpt lat="45.16373" lon="4.51077">
        <ele>923.96</ele>
        <time>2016-09-04T15:10:13Z</time>
      </trkpt>
      <trkpt lat="45.16381" lon="4.51067">
        <ele>926.85</ele>
        <time>2016-09-04T15:10:26Z</time>
      </trkpt>
      <trkpt lat="45.16395" lon="4.51055">
        <ele>931.17</ele>
        <time>2016-09-04T15:10:40Z</time>
      </trkpt>
      <trkpt lat="45.16407" lon="4.51049">
        <ele>934.54</ele>
        <time>2016-09-04T15:10:53Z</time>
      </trkpt>
      <trkpt lat="45.16417" lon="4.5104">
        <ele>937.42</ele>
        <time>2016-09-04T15:11:04Z</time>
      </trkpt>
      <trkpt lat="45.16426" lon="4.51027">
        <ele>939.83</ele>
        <time>2016-09-04T15:11:14Z</time>
      </trkpt>
      <trkpt lat="45.16445" lon="4.51017">
        <ele>937.9</ele>
        <time>2016-09-04T15:11:26Z</time>
      </trkpt>
      <trkpt lat="45.16463" lon="4.51014">
        <ele>936.94</ele>
        <time>2016-09-04T15:11:40Z</time>
      </trkpt>
      <trkpt lat="45.16476" lon="4.51009">
        <ele>934.06</ele>
        <time>2016-09-04T15:11:52Z</time>
      </trkpt>
      <trkpt lat="45.16477" lon="4.51008">
        <ele>934.06</ele>
        <time>2016-09-04T15:11:53Z</time>
      </trkpt>
      <trkpt lat="45.16489" lon="4.51004">
        <ele>930.21</ele>
        <time>2016-09-04T15:12:01Z</time>
      </trkpt>
      <trkpt lat="45.16495" lon="4.51002">
        <ele>927.33</ele>
        <time>2016-09-04T15:12:05Z</time>
      </trkpt>
      <trkpt lat="45.16501" lon="4.51001">
        <ele>925.89</ele>
        <time>2016-09-04T15:12:09Z</time>
      </trkpt>
      <trkpt lat="45.16509" lon="4.50999">
        <ele>923.96</ele>
        <time>2016-09-04T15:12:15Z</time>
      </trkpt>
      <trkpt lat="45.16513" lon="4.50994">
        <ele>920.6</ele>
        <time>2016-09-04T15:12:20Z</time>
      </trkpt>
      <trkpt lat="45.16525" lon="4.5099">
        <ele>919.16</ele>
        <time>2016-09-04T15:12:29Z</time>
      </trkpt>
      <trkpt lat="45.16542" lon="4.50981">
        <ele>914.83</ele>
        <time>2016-09-04T15:12:42Z</time>
      </trkpt>
      <trkpt lat="45.16546" lon="4.50977">
        <ele>912.43</ele>
        <time>2016-09-04T15:12:46Z</time>
      </trkpt>
      <trkpt lat="45.16563" lon="4.50968">
        <ele>904.26</ele>
        <time>2016-09-04T15:12:58Z</time>
      </trkpt>
      <trkpt lat="45.16569" lon="4.50966">
        <ele>903.78</ele>
        <time>2016-09-04T15:13:03Z</time>
      </trkpt>
      <trkpt lat="45.16584" lon="4.50951">
        <ele>903.3</ele>
        <time>2016-09-04T15:13:17Z</time>
      </trkpt>
      <trkpt lat="45.16607" lon="4.50942">
        <ele>895.61</ele>
        <time>2016-09-04T15:13:32Z</time>
      </trkpt>
      <trkpt lat="45.16615" lon="4.50936">
        <ele>892.24</ele>
        <time>2016-09-04T15:13:38Z</time>
      </trkpt>
      <trkpt lat="45.16636" lon="4.50935">
        <ele>889.36</ele>
        <time>2016-09-04T15:13:52Z</time>
      </trkpt>
      <trkpt lat="45.1665" lon="4.50929">
        <ele>888.4</ele>
        <time>2016-09-04T15:14:03Z</time>
      </trkpt>
      <trkpt lat="45.16662" lon="4.50926">
        <ele>889.36</ele>
        <time>2016-09-04T15:14:14Z</time>
      </trkpt>
      <trkpt lat="45.16677" lon="4.50927">
        <ele>889.84</ele>
        <time>2016-09-04T15:14:26Z</time>
      </trkpt>
      <trkpt lat="45.16695" lon="4.50921">
        <ele>883.11</ele>
        <time>2016-09-04T15:14:39Z</time>
      </trkpt>
      <trkpt lat="45.1671" lon="4.50922">
        <ele>879.74</ele>
        <time>2016-09-04T15:14:51Z</time>
      </trkpt>
      <trkpt lat="45.16722" lon="4.50921">
        <ele>879.26</ele>
        <time>2016-09-04T15:15:02Z</time>
      </trkpt>
      <trkpt lat="45.16739" lon="4.50921">
        <ele>881.19</ele>
        <time>2016-09-04T15:15:15Z</time>
      </trkpt>
      <trkpt lat="45.16754" lon="4.50921">
        <ele>887.43</ele>
        <time>2016-09-04T15:15:28Z</time>
      </trkpt>
      <trkpt lat="45.16757" lon="4.50919">
        <ele>891.28</ele>
        <time>2016-09-04T15:15:33Z</time>
      </trkpt>
      <trkpt lat="45.16769" lon="4.50911">
        <ele>899.45</ele>
        <time>2016-09-04T15:15:47Z</time>
      </trkpt>
      <trkpt lat="45.1678" lon="4.50908">
        <ele>901.85</ele>
        <time>2016-09-04T15:15:59Z</time>
      </trkpt>
      <trkpt lat="45.16799" lon="4.50899">
        <ele>900.89</ele>
        <time>2016-09-04T15:16:11Z</time>
      </trkpt>
      <trkpt lat="45.16813" lon="4.50892">
        <ele>895.61</ele>
        <time>2016-09-04T15:16:22Z</time>
      </trkpt>
      <trkpt lat="45.16835" lon="4.50879">
        <ele>888.4</ele>
        <time>2016-09-04T15:16:38Z</time>
      </trkpt>
      <trkpt lat="45.16851" lon="4.5087">
        <ele>881.67</ele>
        <time>2016-09-04T15:16:50Z</time>
      </trkpt>
      <trkpt lat="45.16868" lon="4.50859">
        <ele>875.9</ele>
        <time>2016-09-04T15:17:04Z</time>
      </trkpt>
      <trkpt lat="45.16885" lon="4.50845">
        <ele>872.05</ele>
        <time>2016-09-04T15:17:18Z</time>
      </trkpt>
      <trkpt lat="45.16898" lon="4.50831">
        <ele>870.13</ele>
        <time>2016-09-04T15:17:32Z</time>
      </trkpt>
      <trkpt lat="45.16911" lon="4.50821">
        <ele>871.57</ele>
        <time>2016-09-04T15:17:45Z</time>
      </trkpt>
      <trkpt lat="45.1692" lon="4.50809">
        <ele>870.13</ele>
        <time>2016-09-04T15:17:53Z</time>
      </trkpt>
      <trkpt lat="45.16931" lon="4.50796">
        <ele>872.53</ele>
        <time>2016-09-04T15:18:07Z</time>
      </trkpt>
      <trkpt lat="45.16946" lon="4.50779">
        <ele>873.98</ele>
        <time>2016-09-04T15:18:21Z</time>
      </trkpt>
      <trkpt lat="45.16958" lon="4.5076">
        <ele>870.61</ele>
        <time>2016-09-04T15:18:34Z</time>
      </trkpt>
      <trkpt lat="45.1696" lon="4.50757">
        <ele>869.65</ele>
        <time>2016-09-04T15:18:36Z</time>
      </trkpt>
      <trkpt lat="45.16978" lon="4.50739">
        <ele>861</ele>
        <time>2016-09-04T15:18:52Z</time>
      </trkpt>
      <trkpt lat="45.16992" lon="4.50724">
        <ele>852.83</ele>
        <time>2016-09-04T15:19:05Z</time>
      </trkpt>
      <trkpt lat="45.17007" lon="4.50705">
        <ele>847.54</ele>
        <time>2016-09-04T15:19:20Z</time>
      </trkpt>
      <trkpt lat="45.17022" lon="4.50684">
        <ele>845.62</ele>
        <time>2016-09-04T15:19:36Z</time>
      </trkpt>
      <trkpt lat="45.17032" lon="4.50676">
        <ele>844.66</ele>
        <time>2016-09-04T15:19:44Z</time>
      </trkpt>
      <trkpt lat="45.17042" lon="4.50662">
        <ele>839.85</ele>
        <time>2016-09-04T15:19:57Z</time>
      </trkpt>
      <trkpt lat="45.17047" lon="4.50656">
        <ele>839.37</ele>
        <time>2016-09-04T15:20:01Z</time>
      </trkpt>
      <trkpt lat="45.17063" lon="4.50635">
        <ele>834.08</ele>
        <time>2016-09-04T15:20:17Z</time>
      </trkpt>
      <trkpt lat="45.17081" lon="4.50609">
        <ele>833.12</ele>
        <time>2016-09-04T15:20:36Z</time>
      </trkpt>
      <trkpt lat="45.17083" lon="4.50607">
        <ele>832.64</ele>
        <time>2016-09-04T15:20:37Z</time>
      </trkpt>
      <trkpt lat="45.17088" lon="4.50603">
        <ele>831.68</ele>
        <time>2016-09-04T15:20:41Z</time>
      </trkpt>
      <trkpt lat="45.17104" lon="4.50581">
        <ele>830.24</ele>
        <time>2016-09-04T15:20:57Z</time>
      </trkpt>
      <trkpt lat="45.17118" lon="4.50568">
        <ele>826.39</ele>
        <time>2016-09-04T15:21:09Z</time>
      </trkpt>
      <trkpt lat="45.17132" lon="4.50552">
        <ele>821.1</ele>
        <time>2016-09-04T15:21:20Z</time>
      </trkpt>
      <trkpt lat="45.17153" lon="4.50537">
        <ele>809.57</ele>
        <time>2016-09-04T15:21:35Z</time>
      </trkpt>
      <trkpt lat="45.17167" lon="4.50518">
        <ele>805.24</ele>
        <time>2016-09-04T15:21:49Z</time>
      </trkpt>
      <trkpt lat="45.17183" lon="4.50501">
        <ele>801.4</ele>
        <time>2016-09-04T15:22:02Z</time>
      </trkpt>
      <trkpt lat="45.17197" lon="4.50484">
        <ele>798.99</ele>
        <time>2016-09-04T15:22:17Z</time>
      </trkpt>
      <trkpt lat="45.17215" lon="4.50465">
        <ele>792.74</ele>
        <time>2016-09-04T15:22:32Z</time>
      </trkpt>
      <trkpt lat="45.17226" lon="4.50456">
        <ele>788.42</ele>
        <time>2016-09-04T15:22:42Z</time>
      </trkpt>
      <trkpt lat="45.17241" lon="4.5045">
        <ele>784.57</ele>
        <time>2016-09-04T15:22:54Z</time>
      </trkpt>
      <trkpt lat="45.1725" lon="4.50448">
        <ele>783.13</ele>
        <time>2016-09-04T15:23:01Z</time>
      </trkpt>
      <trkpt lat="45.17255" lon="4.50447">
        <ele>782.17</ele>
        <time>2016-09-04T15:23:05Z</time>
      </trkpt>
      <trkpt lat="45.17271" lon="4.50446">
        <ele>779.29</ele>
        <time>2016-09-04T15:23:19Z</time>
      </trkpt>
      <trkpt lat="45.17275" lon="4.50445">
        <ele>779.77</ele>
        <time>2016-09-04T15:23:23Z</time>
      </trkpt>
      <trkpt lat="45.17281" lon="4.50446">
        <ele>780.25</ele>
        <time>2016-09-04T15:23:28Z</time>
      </trkpt>
      <trkpt lat="45.17283" lon="4.50447">
        <ele>780.25</ele>
        <time>2016-09-04T15:23:30Z</time>
      </trkpt>
      <trkpt lat="45.17301" lon="4.50457">
        <ele>781.21</ele>
        <time>2016-09-04T15:23:45Z</time>
      </trkpt>
      <trkpt lat="45.17305" lon="4.5046">
        <ele>781.69</ele>
        <time>2016-09-04T15:23:48Z</time>
      </trkpt>
      <trkpt lat="45.17306" lon="4.50462">
        <ele>781.21</ele>
        <time>2016-09-04T15:23:50Z</time>
      </trkpt>
      <trkpt lat="45.17312" lon="4.5047">
        <ele>779.77</ele>
        <time>2016-09-04T15:23:57Z</time>
      </trkpt>
      <trkpt lat="45.17321" lon="4.50489">
        <ele>776.88</ele>
        <time>2016-09-04T15:24:08Z</time>
      </trkpt>
      <trkpt lat="45.17323" lon="4.50518">
        <ele>772.08</ele>
        <time>2016-09-04T15:24:23Z</time>
      </trkpt>
      <trkpt lat="45.17323" lon="4.50521">
        <ele>772.08</ele>
        <time>2016-09-04T15:24:25Z</time>
      </trkpt>
      <trkpt lat="45.17326" lon="4.50547">
        <ele>771.6</ele>
        <time>2016-09-04T15:24:38Z</time>
      </trkpt>
      <trkpt lat="45.17328" lon="4.50569">
        <ele>772.08</ele>
        <time>2016-09-04T15:24:51Z</time>
      </trkpt>
      <trkpt lat="45.17329" lon="4.50578">
        <ele>772.08</ele>
        <time>2016-09-04T15:24:57Z</time>
      </trkpt>
      <trkpt lat="45.17331" lon="4.5059">
        <ele>773.04</ele>
        <time>2016-09-04T15:25:04Z</time>
      </trkpt>
      <trkpt lat="45.17331" lon="4.50595">
        <ele>773.04</ele>
        <time>2016-09-04T15:25:07Z</time>
      </trkpt>
      <trkpt lat="45.17336" lon="4.50618">
        <ele>775.44</ele>
        <time>2016-09-04T15:25:21Z</time>
      </trkpt>
      <trkpt lat="45.17339" lon="4.50633">
        <ele>775.44</ele>
        <time>2016-09-04T15:25:30Z</time>
      </trkpt>
      <trkpt lat="45.17352" lon="4.5065">
        <ele>776.4</ele>
        <time>2016-09-04T15:25:42Z</time>
      </trkpt>
      <trkpt lat="45.17355" lon="4.50655">
        <ele>776.88</ele>
        <time>2016-09-04T15:25:46Z</time>
      </trkpt>
      <trkpt lat="45.1736" lon="4.50674">
        <ele>777.36</ele>
        <time>2016-09-04T15:25:57Z</time>
      </trkpt>
      <trkpt lat="45.17362" lon="4.50696">
        <ele>774</ele>
        <time>2016-09-04T15:26:08Z</time>
      </trkpt>
      <trkpt lat="45.1736" lon="4.50712">
        <ele>772.56</ele>
        <time>2016-09-04T15:26:18Z</time>
      </trkpt>
      <trkpt lat="45.17358" lon="4.50738">
        <ele>766.31</ele>
        <time>2016-09-04T15:26:26Z</time>
      </trkpt>
      <trkpt lat="45.17354" lon="4.50765">
        <ele>761.5</ele>
        <time>2016-09-04T15:26:40Z</time>
      </trkpt>
      <trkpt lat="45.17352" lon="4.50774">
        <ele>761.98</ele>
        <time>2016-09-04T15:26:46Z</time>
      </trkpt>
      <trkpt lat="45.17349" lon="4.50782">
        <ele>762.46</ele>
        <time>2016-09-04T15:26:50Z</time>
      </trkpt>
      <trkpt lat="45.17342" lon="4.50794">
        <ele>766.79</ele>
        <time>2016-09-04T15:27:03Z</time>
      </trkpt>
      <trkpt lat="45.17342" lon="4.50805">
        <ele>771.11</ele>
        <time>2016-09-04T15:27:15Z</time>
      </trkpt>
      <trkpt lat="45.1734" lon="4.50815">
        <ele>771.6</ele>
        <time>2016-09-04T15:27:31Z</time>
      </trkpt>
      <trkpt lat="45.1734" lon="4.5082">
        <ele>770.63</ele>
        <time>2016-09-04T15:27:51Z</time>
      </trkpt>
      <trkpt lat="45.17344" lon="4.5082">
        <ele>771.11</ele>
        <time>2016-09-04T15:28:17Z</time>
      </trkpt>
      <trkpt lat="45.17347" lon="4.5082">
        <ele>767.27</ele>
        <time>2016-09-04T15:28:45Z</time>
      </trkpt>
      <trkpt lat="45.17346" lon="4.50819">
        <ele>765.35</ele>
        <time>2016-09-04T15:29:01Z</time>
      </trkpt>
      <trkpt lat="45.17349" lon="4.50827">
        <ele>758.62</ele>
        <time>2016-09-04T15:29:14Z</time>
      </trkpt>
      <trkpt lat="45.1735" lon="4.50825">
        <ele>754.29</ele>
        <time>2016-09-04T15:29:25Z</time>
      </trkpt>
      <trkpt lat="45.17363" lon="4.50806">
        <ele>745.64</ele>
        <time>2016-09-04T15:29:38Z</time>
      </trkpt>
      <trkpt lat="45.17371" lon="4.50789">
        <ele>741.31</ele>
        <time>2016-09-04T15:29:51Z</time>
      </trkpt>
      <trkpt lat="45.17371" lon="4.50784">
        <ele>740.83</ele>
        <time>2016-09-04T15:29:53Z</time>
      </trkpt>
      <trkpt lat="45.17375" lon="4.50769">
        <ele>742.28</ele>
        <time>2016-09-04T15:30:03Z</time>
      </trkpt>
      <trkpt lat="45.17378" lon="4.50763">
        <ele>744.2</ele>
        <time>2016-09-04T15:30:09Z</time>
      </trkpt>
      <trkpt lat="45.17388" lon="4.50746">
        <ele>746.12</ele>
        <time>2016-09-04T15:30:23Z</time>
      </trkpt>
      <trkpt lat="45.17403" lon="4.50725">
        <ele>747.08</ele>
        <time>2016-09-04T15:30:39Z</time>
      </trkpt>
      <trkpt lat="45.17419" lon="4.50706">
        <ele>740.83</ele>
        <time>2016-09-04T15:30:54Z</time>
      </trkpt>
      <trkpt lat="45.17424" lon="4.50694">
        <ele>736.03</ele>
        <time>2016-09-04T15:31:03Z</time>
      </trkpt>
      <trkpt lat="45.17441" lon="4.50671">
        <ele>734.1</ele>
        <time>2016-09-04T15:31:18Z</time>
      </trkpt>
      <trkpt lat="45.17442" lon="4.50669">
        <ele>733.62</ele>
        <time>2016-09-04T15:31:19Z</time>
      </trkpt>
      <trkpt lat="45.17454" lon="4.50652">
        <ele>728.82</ele>
        <time>2016-09-04T15:31:31Z</time>
      </trkpt>
      <trkpt lat="45.17455" lon="4.5065">
        <ele>725.45</ele>
        <time>2016-09-04T15:31:51Z</time>
      </trkpt>
      <trkpt lat="45.17456" lon="4.50648">
        <ele>723.05</ele>
        <time>2016-09-04T15:32:05Z</time>
      </trkpt>
      <trkpt lat="45.17457" lon="4.50647">
        <ele>722.57</ele>
        <time>2016-09-04T15:32:09Z</time>
      </trkpt>
      <trkpt lat="45.17457" lon="4.50621">
        <ele>723.53</ele>
        <time>2016-09-04T15:32:24Z</time>
      </trkpt>
      <trkpt lat="45.17451" lon="4.50594">
        <ele>721.13</ele>
        <time>2016-09-04T15:32:40Z</time>
      </trkpt>
      <trkpt lat="45.17453" lon="4.5057">
        <ele>721.13</ele>
        <time>2016-09-04T15:32:55Z</time>
      </trkpt>
      <trkpt lat="45.17456" lon="4.50564">
        <ele>720.16</ele>
        <time>2016-09-04T15:33:08Z</time>
      </trkpt>
      <trkpt lat="45.17456" lon="4.50559">
        <ele>719.68</ele>
        <time>2016-09-04T15:33:22Z</time>
      </trkpt>
      <trkpt lat="45.1746" lon="4.50531">
        <ele>719.2</ele>
        <time>2016-09-04T15:33:38Z</time>
      </trkpt>
      <trkpt lat="45.17468" lon="4.50509">
        <ele>717.28</ele>
        <time>2016-09-04T15:33:52Z</time>
      </trkpt>
      <trkpt lat="45.17469" lon="4.50484">
        <ele>713.92</ele>
        <time>2016-09-04T15:34:07Z</time>
      </trkpt>
      <trkpt lat="45.17469" lon="4.50467">
        <ele>714.4</ele>
        <time>2016-09-04T15:34:18Z</time>
      </trkpt>
      <trkpt lat="45.17473" lon="4.50445">
        <ele>715.36</ele>
        <time>2016-09-04T15:34:33Z</time>
      </trkpt>
      <trkpt lat="45.17483" lon="4.5043">
        <ele>712.47</ele>
        <time>2016-09-04T15:34:47Z</time>
      </trkpt>
      <trkpt lat="45.17493" lon="4.50417">
        <ele>708.15</ele>
        <time>2016-09-04T15:35:01Z</time>
      </trkpt>
      <trkpt lat="45.17499" lon="4.50405">
        <ele>705.26</ele>
        <time>2016-09-04T15:35:13Z</time>
      </trkpt>
      <trkpt lat="45.17505" lon="4.50399">
        <ele>707.19</ele>
        <time>2016-09-04T15:35:21Z</time>
      </trkpt>
      <trkpt lat="45.17517" lon="4.50394">
        <ele>701.9</ele>
        <time>2016-09-04T15:35:35Z</time>
      </trkpt>
      <trkpt lat="45.17518" lon="4.50393">
        <ele>699.98</ele>
        <time>2016-09-04T15:35:56Z</time>
      </trkpt>
    </trkseg>
  </trk>
</gpx>